<?xml version="1.0" encoding="UTF-8" standalone="no" ?>
<gpx xmlns="http://www.topografix.com/GPX/1/1" xmlns:xsi="http://www.w3.org/2001/XMLSchema-instance" xsi:schemaLocation="http://www.topografix.com/GPX/1/1 http://www.topografix.com/GPX/1/1/gpx.xsd" version="1.1" creator="VisuGPX - https://www.visugpx.com">
  <metadata>
    <name>2022-01-13 le Thannerhubel depuis Bitschwiller-les-Thann</name>
  </metadata>
  <trk>
    <name><![CDATA[2022-01-13 le Thannerhubel depuis Bitschwiller-les-Thann]]></name>
    <extensions>
      <line xmlns="http://www.topografix.com/GPX/gpx_style/0/2">
        <color>0000FF</color>
        <opacity>0.59</opacity>
        <width>6.0</width>
      </line>
    </extensions>
    <trkseg>
      <trkpt lat="47.83068" lon="7.07812">
        <ele>359.9</ele>
        <time>2022-01-13T07:46:23.000Z</time>
      </trkpt>
      <trkpt lat="47.83057" lon="7.07803">
        <ele>360</ele>
        <time>2022-01-13T07:46:32.576Z</time>
      </trkpt>
      <trkpt lat="47.83046" lon="7.0781">
        <ele>359.8</ele>
        <time>2022-01-13T07:46:42.000Z</time>
      </trkpt>
      <trkpt lat="47.83031" lon="7.0782">
        <ele>359.5</ele>
        <time>2022-01-13T07:46:52.000Z</time>
      </trkpt>
      <trkpt lat="47.83019" lon="7.07833">
        <ele>359.3</ele>
        <time>2022-01-13T07:47:02.000Z</time>
      </trkpt>
      <trkpt lat="47.83004" lon="7.07853">
        <ele>359.2</ele>
        <time>2022-01-13T07:47:12.000Z</time>
      </trkpt>
      <trkpt lat="47.8299" lon="7.0787">
        <ele>359</ele>
        <time>2022-01-13T07:47:22.000Z</time>
      </trkpt>
      <trkpt lat="47.82979" lon="7.07877">
        <ele>359</ele>
        <time>2022-01-13T07:47:32.000Z</time>
      </trkpt>
      <trkpt lat="47.82968" lon="7.07884">
        <ele>359</ele>
        <time>2022-01-13T07:47:42.000Z</time>
      </trkpt>
      <trkpt lat="47.82957" lon="7.07899">
        <ele>358.8</ele>
        <time>2022-01-13T07:47:52.000Z</time>
      </trkpt>
      <trkpt lat="47.82939" lon="7.07919">
        <ele>358</ele>
        <time>2022-01-13T07:48:02.000Z</time>
      </trkpt>
      <trkpt lat="47.82928" lon="7.07939">
        <ele>358</ele>
        <time>2022-01-13T07:48:12.000Z</time>
      </trkpt>
      <trkpt lat="47.82922" lon="7.0795">
        <ele>358</ele>
        <time>2022-01-13T07:48:22.000Z</time>
      </trkpt>
      <trkpt lat="47.82917" lon="7.07951">
        <ele>358</ele>
        <time>2022-01-13T07:48:32.000Z</time>
      </trkpt>
      <trkpt lat="47.82901" lon="7.07933">
        <ele>358</ele>
        <time>2022-01-13T07:48:42.000Z</time>
      </trkpt>
      <trkpt lat="47.82893" lon="7.07914">
        <ele>358.1</ele>
        <time>2022-01-13T07:48:52.000Z</time>
      </trkpt>
      <trkpt lat="47.82884" lon="7.07897">
        <ele>358.7</ele>
        <time>2022-01-13T07:49:02.000Z</time>
      </trkpt>
      <trkpt lat="47.82876" lon="7.07878">
        <ele>358.3</ele>
        <time>2022-01-13T07:49:12.000Z</time>
      </trkpt>
      <trkpt lat="47.82868" lon="7.07861">
        <ele>358</ele>
        <time>2022-01-13T07:49:22.000Z</time>
      </trkpt>
      <trkpt lat="47.8286" lon="7.07838">
        <ele>358</ele>
        <time>2022-01-13T07:49:32.000Z</time>
      </trkpt>
      <trkpt lat="47.82856" lon="7.07816">
        <ele>358.2</ele>
        <time>2022-01-13T07:49:42.000Z</time>
      </trkpt>
      <trkpt lat="47.82852" lon="7.07793">
        <ele>358.6</ele>
        <time>2022-01-13T07:49:52.000Z</time>
      </trkpt>
      <trkpt lat="47.82847" lon="7.07775">
        <ele>359</ele>
        <time>2022-01-13T07:50:02.000Z</time>
      </trkpt>
      <trkpt lat="47.82844" lon="7.07753">
        <ele>359</ele>
        <time>2022-01-13T07:50:12.000Z</time>
      </trkpt>
      <trkpt lat="47.82846" lon="7.07751">
        <ele>359</ele>
        <time>2022-01-13T07:50:22.000Z</time>
      </trkpt>
      <trkpt lat="47.82847" lon="7.07751">
        <ele>359</ele>
        <time>2022-01-13T07:51:11.000Z</time>
      </trkpt>
      <trkpt lat="47.82848" lon="7.07753">
        <ele>359</ele>
        <time>2022-01-13T07:51:21.000Z</time>
      </trkpt>
      <trkpt lat="47.82844" lon="7.07746">
        <ele>359</ele>
        <time>2022-01-13T07:51:31.000Z</time>
      </trkpt>
      <trkpt lat="47.82836" lon="7.07727">
        <ele>359</ele>
        <time>2022-01-13T07:51:40.378Z</time>
      </trkpt>
      <trkpt lat="47.82828" lon="7.07713">
        <ele>359.3</ele>
        <time>2022-01-13T07:51:50.000Z</time>
      </trkpt>
      <trkpt lat="47.82812" lon="7.07701">
        <ele>359.2</ele>
        <time>2022-01-13T07:51:59.737Z</time>
      </trkpt>
      <trkpt lat="47.82802" lon="7.07687">
        <ele>359.7</ele>
        <time>2022-01-13T07:52:09.313Z</time>
      </trkpt>
      <trkpt lat="47.82784" lon="7.07684">
        <ele>359.8</ele>
        <time>2022-01-13T07:52:19.000Z</time>
      </trkpt>
      <trkpt lat="47.8277" lon="7.07681">
        <ele>360.1</ele>
        <time>2022-01-13T07:52:28.637Z</time>
      </trkpt>
      <trkpt lat="47.82761" lon="7.07672">
        <ele>360.8</ele>
        <time>2022-01-13T07:52:38.195Z</time>
      </trkpt>
      <trkpt lat="47.8275" lon="7.07663">
        <ele>361.1</ele>
        <time>2022-01-13T07:52:47.516Z</time>
      </trkpt>
      <trkpt lat="47.82741" lon="7.07652">
        <ele>361.2</ele>
        <time>2022-01-13T07:52:56.834Z</time>
      </trkpt>
      <trkpt lat="47.82727" lon="7.07644">
        <ele>361</ele>
        <time>2022-01-13T07:53:06.316Z</time>
      </trkpt>
      <trkpt lat="47.82716" lon="7.07631">
        <ele>361.8</ele>
        <time>2022-01-13T07:53:15.835Z</time>
      </trkpt>
      <trkpt lat="47.82704" lon="7.0762">
        <ele>362.6</ele>
        <time>2022-01-13T07:53:25.354Z</time>
      </trkpt>
      <trkpt lat="47.8269" lon="7.07615">
        <ele>362.7</ele>
        <time>2022-01-13T07:53:35.000Z</time>
      </trkpt>
      <trkpt lat="47.82678" lon="7.07597">
        <ele>363.5</ele>
        <time>2022-01-13T07:53:44.714Z</time>
      </trkpt>
      <trkpt lat="47.8267" lon="7.0758">
        <ele>364.6</ele>
        <time>2022-01-13T07:53:53.826Z</time>
      </trkpt>
      <trkpt lat="47.82662" lon="7.07567">
        <ele>366.8</ele>
        <time>2022-01-13T07:54:03.819Z</time>
      </trkpt>
      <trkpt lat="47.82652" lon="7.07556">
        <ele>367.9</ele>
        <time>2022-01-13T07:54:13.000Z</time>
      </trkpt>
      <trkpt lat="47.82646" lon="7.07538">
        <ele>368.8</ele>
        <time>2022-01-13T07:54:23.000Z</time>
      </trkpt>
      <trkpt lat="47.82641" lon="7.07516">
        <ele>370</ele>
        <time>2022-01-13T07:54:32.695Z</time>
      </trkpt>
      <trkpt lat="47.82632" lon="7.075">
        <ele>370.7</ele>
        <time>2022-01-13T07:54:41.846Z</time>
      </trkpt>
      <trkpt lat="47.82625" lon="7.07482">
        <ele>371.1</ele>
        <time>2022-01-13T07:54:51.636Z</time>
      </trkpt>
      <trkpt lat="47.82627" lon="7.07462">
        <ele>372</ele>
        <time>2022-01-13T07:55:01.637Z</time>
      </trkpt>
      <trkpt lat="47.82624" lon="7.07441">
        <ele>372.5</ele>
        <time>2022-01-13T07:55:11.574Z</time>
      </trkpt>
      <trkpt lat="47.8262" lon="7.07421">
        <ele>372.6</ele>
        <time>2022-01-13T07:55:20.686Z</time>
      </trkpt>
      <trkpt lat="47.82617" lon="7.07404">
        <ele>372.5</ele>
        <time>2022-01-13T07:55:30.000Z</time>
      </trkpt>
      <trkpt lat="47.82618" lon="7.07379">
        <ele>373.2</ele>
        <time>2022-01-13T07:55:39.852Z</time>
      </trkpt>
      <trkpt lat="47.82615" lon="7.0736">
        <ele>373.5</ele>
        <time>2022-01-13T07:55:49.434Z</time>
      </trkpt>
      <trkpt lat="47.8261" lon="7.07343">
        <ele>372.2</ele>
        <time>2022-01-13T07:55:59.000Z</time>
      </trkpt>
      <trkpt lat="47.82608" lon="7.07329">
        <ele>371.7</ele>
        <time>2022-01-13T07:56:09.000Z</time>
      </trkpt>
      <trkpt lat="47.82609" lon="7.07352">
        <ele>372.3</ele>
        <time>2022-01-13T07:56:19.000Z</time>
      </trkpt>
      <trkpt lat="47.82612" lon="7.07374">
        <ele>372.7</ele>
        <time>2022-01-13T07:56:29.000Z</time>
      </trkpt>
      <trkpt lat="47.82619" lon="7.07392">
        <ele>372.9</ele>
        <time>2022-01-13T07:56:39.000Z</time>
      </trkpt>
      <trkpt lat="47.82631" lon="7.07404">
        <ele>373.8</ele>
        <time>2022-01-13T07:56:49.000Z</time>
      </trkpt>
      <trkpt lat="47.82625" lon="7.07426">
        <ele>372.8</ele>
        <time>2022-01-13T07:56:59.000Z</time>
      </trkpt>
      <trkpt lat="47.82632" lon="7.07449">
        <ele>372.6</ele>
        <time>2022-01-13T07:57:09.000Z</time>
      </trkpt>
      <trkpt lat="47.8265" lon="7.07455">
        <ele>374.8</ele>
        <time>2022-01-13T07:57:19.000Z</time>
      </trkpt>
      <trkpt lat="47.82664" lon="7.07459">
        <ele>376.9</ele>
        <time>2022-01-13T07:57:29.000Z</time>
      </trkpt>
      <trkpt lat="47.82672" lon="7.07472">
        <ele>377.2</ele>
        <time>2022-01-13T07:57:39.000Z</time>
      </trkpt>
      <trkpt lat="47.82683" lon="7.07483">
        <ele>378.6</ele>
        <time>2022-01-13T07:57:49.000Z</time>
      </trkpt>
      <trkpt lat="47.82695" lon="7.0749">
        <ele>380</ele>
        <time>2022-01-13T07:57:59.000Z</time>
      </trkpt>
      <trkpt lat="47.82705" lon="7.07483">
        <ele>380.7</ele>
        <time>2022-01-13T07:58:09.000Z</time>
      </trkpt>
      <trkpt lat="47.82713" lon="7.07471">
        <ele>382.1</ele>
        <time>2022-01-13T07:58:19.000Z</time>
      </trkpt>
      <trkpt lat="47.82717" lon="7.07459">
        <ele>384.2</ele>
        <time>2022-01-13T07:58:29.000Z</time>
      </trkpt>
      <trkpt lat="47.82719" lon="7.07442">
        <ele>387</ele>
        <time>2022-01-13T07:58:39.000Z</time>
      </trkpt>
      <trkpt lat="47.82725" lon="7.07429">
        <ele>389.1</ele>
        <time>2022-01-13T07:58:49.000Z</time>
      </trkpt>
      <trkpt lat="47.82729" lon="7.07417">
        <ele>390.6</ele>
        <time>2022-01-13T07:58:58.399Z</time>
      </trkpt>
      <trkpt lat="47.82736" lon="7.07405">
        <ele>392.3</ele>
        <time>2022-01-13T07:59:08.000Z</time>
      </trkpt>
      <trkpt lat="47.82743" lon="7.07393">
        <ele>394.7</ele>
        <time>2022-01-13T07:59:18.000Z</time>
      </trkpt>
      <trkpt lat="47.82748" lon="7.07382">
        <ele>396.9</ele>
        <time>2022-01-13T07:59:28.000Z</time>
      </trkpt>
      <trkpt lat="47.82756" lon="7.07374">
        <ele>397.8</ele>
        <time>2022-01-13T07:59:38.000Z</time>
      </trkpt>
      <trkpt lat="47.82764" lon="7.07365">
        <ele>399.2</ele>
        <time>2022-01-13T07:59:48.000Z</time>
      </trkpt>
      <trkpt lat="47.82771" lon="7.07351">
        <ele>401.7</ele>
        <time>2022-01-13T07:59:58.000Z</time>
      </trkpt>
      <trkpt lat="47.8278" lon="7.07343">
        <ele>403.9</ele>
        <time>2022-01-13T08:00:08.000Z</time>
      </trkpt>
      <trkpt lat="47.82788" lon="7.07333">
        <ele>406.1</ele>
        <time>2022-01-13T08:00:18.000Z</time>
      </trkpt>
      <trkpt lat="47.82793" lon="7.07323">
        <ele>407.1</ele>
        <time>2022-01-13T08:00:28.000Z</time>
      </trkpt>
      <trkpt lat="47.828" lon="7.07315">
        <ele>408.7</ele>
        <time>2022-01-13T08:00:38.000Z</time>
      </trkpt>
      <trkpt lat="47.82807" lon="7.07305">
        <ele>411</ele>
        <time>2022-01-13T08:00:48.000Z</time>
      </trkpt>
      <trkpt lat="47.82814" lon="7.07294">
        <ele>411.9</ele>
        <time>2022-01-13T08:00:58.000Z</time>
      </trkpt>
      <trkpt lat="47.82816" lon="7.0728">
        <ele>413.5</ele>
        <time>2022-01-13T08:01:08.000Z</time>
      </trkpt>
      <trkpt lat="47.82823" lon="7.07268">
        <ele>414.6</ele>
        <time>2022-01-13T08:01:18.000Z</time>
      </trkpt>
      <trkpt lat="47.8283" lon="7.07254">
        <ele>416.1</ele>
        <time>2022-01-13T08:01:28.000Z</time>
      </trkpt>
      <trkpt lat="47.8284" lon="7.07242">
        <ele>418.1</ele>
        <time>2022-01-13T08:01:38.000Z</time>
      </trkpt>
      <trkpt lat="47.82846" lon="7.07229">
        <ele>419.9</ele>
        <time>2022-01-13T08:01:48.000Z</time>
      </trkpt>
      <trkpt lat="47.82855" lon="7.07223">
        <ele>422.3</ele>
        <time>2022-01-13T08:01:58.000Z</time>
      </trkpt>
      <trkpt lat="47.82862" lon="7.07216">
        <ele>424.5</ele>
        <time>2022-01-13T08:02:08.000Z</time>
      </trkpt>
      <trkpt lat="47.8287" lon="7.07212">
        <ele>426.5</ele>
        <time>2022-01-13T08:02:18.000Z</time>
      </trkpt>
      <trkpt lat="47.8288" lon="7.07207">
        <ele>429</ele>
        <time>2022-01-13T08:02:28.000Z</time>
      </trkpt>
      <trkpt lat="47.82887" lon="7.07201">
        <ele>431.1</ele>
        <time>2022-01-13T08:02:38.000Z</time>
      </trkpt>
      <trkpt lat="47.82895" lon="7.07193">
        <ele>433.5</ele>
        <time>2022-01-13T08:02:48.000Z</time>
      </trkpt>
      <trkpt lat="47.82899" lon="7.07182">
        <ele>434.8</ele>
        <time>2022-01-13T08:02:58.000Z</time>
      </trkpt>
      <trkpt lat="47.82904" lon="7.0717">
        <ele>436.8</ele>
        <time>2022-01-13T08:03:08.000Z</time>
      </trkpt>
      <trkpt lat="47.82907" lon="7.07159">
        <ele>437.7</ele>
        <time>2022-01-13T08:03:18.000Z</time>
      </trkpt>
      <trkpt lat="47.82913" lon="7.07148">
        <ele>439.7</ele>
        <time>2022-01-13T08:03:28.000Z</time>
      </trkpt>
      <trkpt lat="47.82919" lon="7.07133">
        <ele>441.8</ele>
        <time>2022-01-13T08:03:38.000Z</time>
      </trkpt>
      <trkpt lat="47.82923" lon="7.07121">
        <ele>443.7</ele>
        <time>2022-01-13T08:03:48.000Z</time>
      </trkpt>
      <trkpt lat="47.82927" lon="7.07108">
        <ele>445.5</ele>
        <time>2022-01-13T08:03:58.000Z</time>
      </trkpt>
      <trkpt lat="47.82934" lon="7.07095">
        <ele>447.6</ele>
        <time>2022-01-13T08:04:08.000Z</time>
      </trkpt>
      <trkpt lat="47.82937" lon="7.07082">
        <ele>448.4</ele>
        <time>2022-01-13T08:04:18.000Z</time>
      </trkpt>
      <trkpt lat="47.8294" lon="7.07065">
        <ele>449.3</ele>
        <time>2022-01-13T08:04:28.000Z</time>
      </trkpt>
      <trkpt lat="47.82944" lon="7.07048">
        <ele>449.9</ele>
        <time>2022-01-13T08:04:38.000Z</time>
      </trkpt>
      <trkpt lat="47.82949" lon="7.07033">
        <ele>450.7</ele>
        <time>2022-01-13T08:04:48.000Z</time>
      </trkpt>
      <trkpt lat="47.82954" lon="7.07016">
        <ele>451.2</ele>
        <time>2022-01-13T08:04:58.000Z</time>
      </trkpt>
      <trkpt lat="47.82961" lon="7.07001">
        <ele>452.7</ele>
        <time>2022-01-13T08:05:08.000Z</time>
      </trkpt>
      <trkpt lat="47.82968" lon="7.06988">
        <ele>454.5</ele>
        <time>2022-01-13T08:05:18.000Z</time>
      </trkpt>
      <trkpt lat="47.82976" lon="7.06975">
        <ele>455.6</ele>
        <time>2022-01-13T08:05:28.000Z</time>
      </trkpt>
      <trkpt lat="47.82982" lon="7.0696">
        <ele>455.5</ele>
        <time>2022-01-13T08:05:38.000Z</time>
      </trkpt>
      <trkpt lat="47.82992" lon="7.06944">
        <ele>456.3</ele>
        <time>2022-01-13T08:05:48.000Z</time>
      </trkpt>
      <trkpt lat="47.83" lon="7.06929">
        <ele>456.6</ele>
        <time>2022-01-13T08:05:58.000Z</time>
      </trkpt>
      <trkpt lat="47.83007" lon="7.06914">
        <ele>456.8</ele>
        <time>2022-01-13T08:06:08.000Z</time>
      </trkpt>
      <trkpt lat="47.83013" lon="7.06897">
        <ele>456.6</ele>
        <time>2022-01-13T08:06:18.000Z</time>
      </trkpt>
      <trkpt lat="47.83018" lon="7.06881">
        <ele>456.8</ele>
        <time>2022-01-13T08:06:28.000Z</time>
      </trkpt>
      <trkpt lat="47.83022" lon="7.06861">
        <ele>457</ele>
        <time>2022-01-13T08:06:38.000Z</time>
      </trkpt>
      <trkpt lat="47.83029" lon="7.0684">
        <ele>458</ele>
        <time>2022-01-13T08:06:48.000Z</time>
      </trkpt>
      <trkpt lat="47.83034" lon="7.06823">
        <ele>458.7</ele>
        <time>2022-01-13T08:06:58.000Z</time>
      </trkpt>
      <trkpt lat="47.83038" lon="7.06804">
        <ele>459.5</ele>
        <time>2022-01-13T08:07:08.000Z</time>
      </trkpt>
      <trkpt lat="47.83041" lon="7.06787">
        <ele>460.4</ele>
        <time>2022-01-13T08:07:18.000Z</time>
      </trkpt>
      <trkpt lat="47.83046" lon="7.06771">
        <ele>461.8</ele>
        <time>2022-01-13T08:07:28.000Z</time>
      </trkpt>
      <trkpt lat="47.83052" lon="7.06759">
        <ele>462.7</ele>
        <time>2022-01-13T08:07:38.000Z</time>
      </trkpt>
      <trkpt lat="47.8306" lon="7.0675">
        <ele>464.1</ele>
        <time>2022-01-13T08:07:48.000Z</time>
      </trkpt>
      <trkpt lat="47.8307" lon="7.06746">
        <ele>466.3</ele>
        <time>2022-01-13T08:07:58.000Z</time>
      </trkpt>
      <trkpt lat="47.8308" lon="7.06741">
        <ele>468.2</ele>
        <time>2022-01-13T08:08:08.000Z</time>
      </trkpt>
      <trkpt lat="47.83088" lon="7.06736">
        <ele>468.9</ele>
        <time>2022-01-13T08:08:18.000Z</time>
      </trkpt>
      <trkpt lat="47.83101" lon="7.06732">
        <ele>469.9</ele>
        <time>2022-01-13T08:08:28.000Z</time>
      </trkpt>
      <trkpt lat="47.83117" lon="7.06727">
        <ele>471.3</ele>
        <time>2022-01-13T08:08:38.000Z</time>
      </trkpt>
      <trkpt lat="47.83126" lon="7.0672">
        <ele>472.4</ele>
        <time>2022-01-13T08:08:48.000Z</time>
      </trkpt>
      <trkpt lat="47.83133" lon="7.0671">
        <ele>474.4</ele>
        <time>2022-01-13T08:08:58.000Z</time>
      </trkpt>
      <trkpt lat="47.83133" lon="7.06695">
        <ele>476.8</ele>
        <time>2022-01-13T08:09:08.000Z</time>
      </trkpt>
      <trkpt lat="47.8313" lon="7.0668">
        <ele>478.1</ele>
        <time>2022-01-13T08:09:18.000Z</time>
      </trkpt>
      <trkpt lat="47.83128" lon="7.06664">
        <ele>479.7</ele>
        <time>2022-01-13T08:09:28.000Z</time>
      </trkpt>
      <trkpt lat="47.83126" lon="7.0665">
        <ele>481</ele>
        <time>2022-01-13T08:09:38.000Z</time>
      </trkpt>
      <trkpt lat="47.83125" lon="7.06635">
        <ele>482.5</ele>
        <time>2022-01-13T08:09:48.000Z</time>
      </trkpt>
      <trkpt lat="47.83125" lon="7.06618">
        <ele>484.7</ele>
        <time>2022-01-13T08:09:58.000Z</time>
      </trkpt>
      <trkpt lat="47.83125" lon="7.06602">
        <ele>485.8</ele>
        <time>2022-01-13T08:10:08.000Z</time>
      </trkpt>
      <trkpt lat="47.83122" lon="7.06586">
        <ele>485.7</ele>
        <time>2022-01-13T08:10:18.000Z</time>
      </trkpt>
      <trkpt lat="47.83118" lon="7.06571">
        <ele>486.2</ele>
        <time>2022-01-13T08:10:28.000Z</time>
      </trkpt>
      <trkpt lat="47.83121" lon="7.06565">
        <ele>487.8</ele>
        <time>2022-01-13T08:10:38.000Z</time>
      </trkpt>
      <trkpt lat="47.83118" lon="7.06553">
        <ele>488.6</ele>
        <time>2022-01-13T08:10:48.000Z</time>
      </trkpt>
      <trkpt lat="47.83115" lon="7.06539">
        <ele>491.3</ele>
        <time>2022-01-13T08:10:58.000Z</time>
      </trkpt>
      <trkpt lat="47.83111" lon="7.06528">
        <ele>493</ele>
        <time>2022-01-13T08:11:08.000Z</time>
      </trkpt>
      <trkpt lat="47.83106" lon="7.0652">
        <ele>495.3</ele>
        <time>2022-01-13T08:11:18.000Z</time>
      </trkpt>
      <trkpt lat="47.83097" lon="7.06514">
        <ele>496.5</ele>
        <time>2022-01-13T08:11:28.000Z</time>
      </trkpt>
      <trkpt lat="47.83089" lon="7.06509">
        <ele>497.1</ele>
        <time>2022-01-13T08:11:38.000Z</time>
      </trkpt>
      <trkpt lat="47.83084" lon="7.06496">
        <ele>499.6</ele>
        <time>2022-01-13T08:11:48.000Z</time>
      </trkpt>
      <trkpt lat="47.83083" lon="7.06483">
        <ele>501.4</ele>
        <time>2022-01-13T08:11:58.000Z</time>
      </trkpt>
      <trkpt lat="47.83084" lon="7.0647">
        <ele>503.3</ele>
        <time>2022-01-13T08:12:08.000Z</time>
      </trkpt>
      <trkpt lat="47.83084" lon="7.06454">
        <ele>504.4</ele>
        <time>2022-01-13T08:12:18.000Z</time>
      </trkpt>
      <trkpt lat="47.83083" lon="7.06439">
        <ele>505.6</ele>
        <time>2022-01-13T08:12:28.000Z</time>
      </trkpt>
      <trkpt lat="47.83083" lon="7.06425">
        <ele>507.5</ele>
        <time>2022-01-13T08:12:38.000Z</time>
      </trkpt>
      <trkpt lat="47.83083" lon="7.0641">
        <ele>509.6</ele>
        <time>2022-01-13T08:12:48.000Z</time>
      </trkpt>
      <trkpt lat="47.83089" lon="7.06415">
        <ele>511.4</ele>
        <time>2022-01-13T08:12:58.000Z</time>
      </trkpt>
      <trkpt lat="47.83097" lon="7.06426">
        <ele>512.7</ele>
        <time>2022-01-13T08:13:08.000Z</time>
      </trkpt>
      <trkpt lat="47.83104" lon="7.06436">
        <ele>514</ele>
        <time>2022-01-13T08:13:18.000Z</time>
      </trkpt>
      <trkpt lat="47.83114" lon="7.06444">
        <ele>516</ele>
        <time>2022-01-13T08:13:28.000Z</time>
      </trkpt>
      <trkpt lat="47.83121" lon="7.06452">
        <ele>517</ele>
        <time>2022-01-13T08:13:38.000Z</time>
      </trkpt>
      <trkpt lat="47.83129" lon="7.06457">
        <ele>518.9</ele>
        <time>2022-01-13T08:13:48.000Z</time>
      </trkpt>
      <trkpt lat="47.83138" lon="7.06463">
        <ele>520.8</ele>
        <time>2022-01-13T08:13:58.000Z</time>
      </trkpt>
      <trkpt lat="47.83144" lon="7.06469">
        <ele>521.4</ele>
        <time>2022-01-13T08:14:08.000Z</time>
      </trkpt>
      <trkpt lat="47.83153" lon="7.06473">
        <ele>522.8</ele>
        <time>2022-01-13T08:14:18.000Z</time>
      </trkpt>
      <trkpt lat="47.83158" lon="7.06469">
        <ele>525.2</ele>
        <time>2022-01-13T08:14:28.000Z</time>
      </trkpt>
      <trkpt lat="47.83154" lon="7.06453">
        <ele>528</ele>
        <time>2022-01-13T08:14:38.000Z</time>
      </trkpt>
      <trkpt lat="47.83153" lon="7.06441">
        <ele>530.4</ele>
        <time>2022-01-13T08:14:48.000Z</time>
      </trkpt>
      <trkpt lat="47.83156" lon="7.06442">
        <ele>531.2</ele>
        <time>2022-01-13T08:14:58.000Z</time>
      </trkpt>
      <trkpt lat="47.83158" lon="7.06429">
        <ele>534.3</ele>
        <time>2022-01-13T08:15:08.000Z</time>
      </trkpt>
      <trkpt lat="47.83156" lon="7.06416">
        <ele>536.1</ele>
        <time>2022-01-13T08:15:18.000Z</time>
      </trkpt>
      <trkpt lat="47.83155" lon="7.06415">
        <ele>536.1</ele>
        <time>2022-01-13T08:15:28.000Z</time>
      </trkpt>
      <trkpt lat="47.83153" lon="7.0641">
        <ele>535.9</ele>
        <time>2022-01-13T08:16:22.000Z</time>
      </trkpt>
      <trkpt lat="47.83149" lon="7.06404">
        <ele>535.4</ele>
        <time>2022-01-13T08:16:32.000Z</time>
      </trkpt>
      <trkpt lat="47.83151" lon="7.06405">
        <ele>536.1</ele>
        <time>2022-01-13T08:17:06.000Z</time>
      </trkpt>
      <trkpt lat="47.83155" lon="7.06396">
        <ele>538.9</ele>
        <time>2022-01-13T08:17:16.000Z</time>
      </trkpt>
      <trkpt lat="47.83155" lon="7.06389">
        <ele>540.2</ele>
        <time>2022-01-13T08:17:26.000Z</time>
      </trkpt>
      <trkpt lat="47.83158" lon="7.06384">
        <ele>542.1</ele>
        <time>2022-01-13T08:17:36.000Z</time>
      </trkpt>
      <trkpt lat="47.83163" lon="7.06376">
        <ele>545.3</ele>
        <time>2022-01-13T08:17:46.000Z</time>
      </trkpt>
      <trkpt lat="47.83166" lon="7.06369">
        <ele>547.7</ele>
        <time>2022-01-13T08:17:56.000Z</time>
      </trkpt>
      <trkpt lat="47.83169" lon="7.06358">
        <ele>550.3</ele>
        <time>2022-01-13T08:18:06.000Z</time>
      </trkpt>
      <trkpt lat="47.83167" lon="7.06345">
        <ele>550.7</ele>
        <time>2022-01-13T08:18:16.000Z</time>
      </trkpt>
      <trkpt lat="47.83164" lon="7.06327">
        <ele>551.5</ele>
        <time>2022-01-13T08:18:26.000Z</time>
      </trkpt>
      <trkpt lat="47.83164" lon="7.06313">
        <ele>553.5</ele>
        <time>2022-01-13T08:18:36.000Z</time>
      </trkpt>
      <trkpt lat="47.83163" lon="7.06301">
        <ele>554.9</ele>
        <time>2022-01-13T08:18:46.000Z</time>
      </trkpt>
      <trkpt lat="47.83161" lon="7.06283">
        <ele>555.5</ele>
        <time>2022-01-13T08:18:56.000Z</time>
      </trkpt>
      <trkpt lat="47.83162" lon="7.06265">
        <ele>558.1</ele>
        <time>2022-01-13T08:19:06.000Z</time>
      </trkpt>
      <trkpt lat="47.83162" lon="7.06252">
        <ele>559.4</ele>
        <time>2022-01-13T08:19:16.000Z</time>
      </trkpt>
      <trkpt lat="47.83163" lon="7.06235">
        <ele>562.1</ele>
        <time>2022-01-13T08:19:26.000Z</time>
      </trkpt>
      <trkpt lat="47.83161" lon="7.06219">
        <ele>563.3</ele>
        <time>2022-01-13T08:19:36.000Z</time>
      </trkpt>
      <trkpt lat="47.8316" lon="7.06205">
        <ele>565.6</ele>
        <time>2022-01-13T08:19:46.000Z</time>
      </trkpt>
      <trkpt lat="47.8316" lon="7.06191">
        <ele>568.2</ele>
        <time>2022-01-13T08:19:56.000Z</time>
      </trkpt>
      <trkpt lat="47.83157" lon="7.06174">
        <ele>569.9</ele>
        <time>2022-01-13T08:20:06.000Z</time>
      </trkpt>
      <trkpt lat="47.83151" lon="7.06155">
        <ele>570.7</ele>
        <time>2022-01-13T08:20:16.000Z</time>
      </trkpt>
      <trkpt lat="47.83146" lon="7.06138">
        <ele>571.4</ele>
        <time>2022-01-13T08:20:26.000Z</time>
      </trkpt>
      <trkpt lat="47.83141" lon="7.06122">
        <ele>572.6</ele>
        <time>2022-01-13T08:20:36.000Z</time>
      </trkpt>
      <trkpt lat="47.83135" lon="7.06106">
        <ele>573.2</ele>
        <time>2022-01-13T08:20:46.000Z</time>
      </trkpt>
      <trkpt lat="47.83133" lon="7.0609">
        <ele>574.9</ele>
        <time>2022-01-13T08:20:56.000Z</time>
      </trkpt>
      <trkpt lat="47.83129" lon="7.06075">
        <ele>576.5</ele>
        <time>2022-01-13T08:21:06.000Z</time>
      </trkpt>
      <trkpt lat="47.83126" lon="7.0606">
        <ele>578.3</ele>
        <time>2022-01-13T08:21:16.000Z</time>
      </trkpt>
      <trkpt lat="47.83126" lon="7.06045">
        <ele>580.2</ele>
        <time>2022-01-13T08:21:26.000Z</time>
      </trkpt>
      <trkpt lat="47.83123" lon="7.06031">
        <ele>580.5</ele>
        <time>2022-01-13T08:21:36.000Z</time>
      </trkpt>
      <trkpt lat="47.83121" lon="7.06015">
        <ele>579.8</ele>
        <time>2022-01-13T08:21:46.000Z</time>
      </trkpt>
      <trkpt lat="47.83127" lon="7.06004">
        <ele>581.1</ele>
        <time>2022-01-13T08:21:56.000Z</time>
      </trkpt>
      <trkpt lat="47.83134" lon="7.05994">
        <ele>581.1</ele>
        <time>2022-01-13T08:22:06.000Z</time>
      </trkpt>
      <trkpt lat="47.83141" lon="7.05989">
        <ele>581.2</ele>
        <time>2022-01-13T08:22:16.000Z</time>
      </trkpt>
      <trkpt lat="47.83153" lon="7.05988">
        <ele>583</ele>
        <time>2022-01-13T08:22:26.000Z</time>
      </trkpt>
      <trkpt lat="47.83162" lon="7.05988">
        <ele>584.8</ele>
        <time>2022-01-13T08:22:36.000Z</time>
      </trkpt>
      <trkpt lat="47.83173" lon="7.05986">
        <ele>586.7</ele>
        <time>2022-01-13T08:22:46.000Z</time>
      </trkpt>
      <trkpt lat="47.8318" lon="7.05983">
        <ele>587.4</ele>
        <time>2022-01-13T08:22:56.000Z</time>
      </trkpt>
      <trkpt lat="47.83192" lon="7.0598">
        <ele>589.6</ele>
        <time>2022-01-13T08:23:06.000Z</time>
      </trkpt>
      <trkpt lat="47.83202" lon="7.05979">
        <ele>592.7</ele>
        <time>2022-01-13T08:23:16.000Z</time>
      </trkpt>
      <trkpt lat="47.83213" lon="7.05969">
        <ele>594.4</ele>
        <time>2022-01-13T08:23:26.000Z</time>
      </trkpt>
      <trkpt lat="47.83222" lon="7.05954">
        <ele>596.7</ele>
        <time>2022-01-13T08:23:36.000Z</time>
      </trkpt>
      <trkpt lat="47.83226" lon="7.05939">
        <ele>598.1</ele>
        <time>2022-01-13T08:23:46.000Z</time>
      </trkpt>
      <trkpt lat="47.83226" lon="7.05922">
        <ele>598.4</ele>
        <time>2022-01-13T08:23:56.000Z</time>
      </trkpt>
      <trkpt lat="47.83229" lon="7.05908">
        <ele>599.7</ele>
        <time>2022-01-13T08:24:06.000Z</time>
      </trkpt>
      <trkpt lat="47.83233" lon="7.05894">
        <ele>601.1</ele>
        <time>2022-01-13T08:24:16.000Z</time>
      </trkpt>
      <trkpt lat="47.83239" lon="7.0588">
        <ele>602.3</ele>
        <time>2022-01-13T08:24:26.000Z</time>
      </trkpt>
      <trkpt lat="47.83246" lon="7.05869">
        <ele>604.6</ele>
        <time>2022-01-13T08:24:36.000Z</time>
      </trkpt>
      <trkpt lat="47.83249" lon="7.05853">
        <ele>605.8</ele>
        <time>2022-01-13T08:24:46.000Z</time>
      </trkpt>
      <trkpt lat="47.83251" lon="7.05836">
        <ele>607.3</ele>
        <time>2022-01-13T08:24:56.000Z</time>
      </trkpt>
      <trkpt lat="47.83257" lon="7.05826">
        <ele>608.7</ele>
        <time>2022-01-13T08:25:06.000Z</time>
      </trkpt>
      <trkpt lat="47.83264" lon="7.05813">
        <ele>610.3</ele>
        <time>2022-01-13T08:25:16.000Z</time>
      </trkpt>
      <trkpt lat="47.83267" lon="7.05797">
        <ele>611.9</ele>
        <time>2022-01-13T08:25:26.000Z</time>
      </trkpt>
      <trkpt lat="47.83268" lon="7.05779">
        <ele>613.8</ele>
        <time>2022-01-13T08:25:36.000Z</time>
      </trkpt>
      <trkpt lat="47.83269" lon="7.05763">
        <ele>615.6</ele>
        <time>2022-01-13T08:25:46.000Z</time>
      </trkpt>
      <trkpt lat="47.8327" lon="7.05752">
        <ele>616.7</ele>
        <time>2022-01-13T08:25:56.000Z</time>
      </trkpt>
      <trkpt lat="47.83273" lon="7.05738">
        <ele>618.2</ele>
        <time>2022-01-13T08:26:06.000Z</time>
      </trkpt>
      <trkpt lat="47.83278" lon="7.05723">
        <ele>620.3</ele>
        <time>2022-01-13T08:26:16.000Z</time>
      </trkpt>
      <trkpt lat="47.83284" lon="7.05708">
        <ele>621.8</ele>
        <time>2022-01-13T08:26:26.000Z</time>
      </trkpt>
      <trkpt lat="47.83287" lon="7.05694">
        <ele>622.4</ele>
        <time>2022-01-13T08:26:36.000Z</time>
      </trkpt>
      <trkpt lat="47.83288" lon="7.05677">
        <ele>623.2</ele>
        <time>2022-01-13T08:26:46.000Z</time>
      </trkpt>
      <trkpt lat="47.83292" lon="7.0566">
        <ele>625.2</ele>
        <time>2022-01-13T08:26:56.000Z</time>
      </trkpt>
      <trkpt lat="47.83294" lon="7.05644">
        <ele>626.7</ele>
        <time>2022-01-13T08:27:06.000Z</time>
      </trkpt>
      <trkpt lat="47.83295" lon="7.0563">
        <ele>627.6</ele>
        <time>2022-01-13T08:27:16.000Z</time>
      </trkpt>
      <trkpt lat="47.83297" lon="7.05617">
        <ele>629.5</ele>
        <time>2022-01-13T08:27:26.000Z</time>
      </trkpt>
      <trkpt lat="47.83295" lon="7.056">
        <ele>630.8</ele>
        <time>2022-01-13T08:27:36.000Z</time>
      </trkpt>
      <trkpt lat="47.83292" lon="7.05583">
        <ele>632.1</ele>
        <time>2022-01-13T08:27:46.000Z</time>
      </trkpt>
      <trkpt lat="47.83282" lon="7.0557">
        <ele>632.3</ele>
        <time>2022-01-13T08:27:56.000Z</time>
      </trkpt>
      <trkpt lat="47.83275" lon="7.05559">
        <ele>633.7</ele>
        <time>2022-01-13T08:28:06.000Z</time>
      </trkpt>
      <trkpt lat="47.83268" lon="7.05549">
        <ele>633.9</ele>
        <time>2022-01-13T08:28:16.000Z</time>
      </trkpt>
      <trkpt lat="47.83264" lon="7.05536">
        <ele>635.7</ele>
        <time>2022-01-13T08:28:26.000Z</time>
      </trkpt>
      <trkpt lat="47.83261" lon="7.05521">
        <ele>637.5</ele>
        <time>2022-01-13T08:28:36.000Z</time>
      </trkpt>
      <trkpt lat="47.83258" lon="7.05506">
        <ele>638.8</ele>
        <time>2022-01-13T08:28:46.000Z</time>
      </trkpt>
      <trkpt lat="47.83257" lon="7.05492">
        <ele>640.2</ele>
        <time>2022-01-13T08:28:56.000Z</time>
      </trkpt>
      <trkpt lat="47.83257" lon="7.05476">
        <ele>641.7</ele>
        <time>2022-01-13T08:29:06.000Z</time>
      </trkpt>
      <trkpt lat="47.83254" lon="7.05461">
        <ele>641.8</ele>
        <time>2022-01-13T08:29:16.000Z</time>
      </trkpt>
      <trkpt lat="47.83256" lon="7.05447">
        <ele>644</ele>
        <time>2022-01-13T08:29:26.000Z</time>
      </trkpt>
      <trkpt lat="47.83257" lon="7.05434">
        <ele>646.4</ele>
        <time>2022-01-13T08:29:36.000Z</time>
      </trkpt>
      <trkpt lat="47.83252" lon="7.0542">
        <ele>647.9</ele>
        <time>2022-01-13T08:29:46.000Z</time>
      </trkpt>
      <trkpt lat="47.83242" lon="7.05409">
        <ele>647.5</ele>
        <time>2022-01-13T08:29:56.000Z</time>
      </trkpt>
      <trkpt lat="47.83233" lon="7.05399">
        <ele>647.9</ele>
        <time>2022-01-13T08:30:06.000Z</time>
      </trkpt>
      <trkpt lat="47.83226" lon="7.05388">
        <ele>650</ele>
        <time>2022-01-13T08:30:16.000Z</time>
      </trkpt>
      <trkpt lat="47.8322" lon="7.05372">
        <ele>651.1</ele>
        <time>2022-01-13T08:30:26.000Z</time>
      </trkpt>
      <trkpt lat="47.83216" lon="7.05355">
        <ele>652.7</ele>
        <time>2022-01-13T08:30:36.000Z</time>
      </trkpt>
      <trkpt lat="47.83212" lon="7.05339">
        <ele>653.9</ele>
        <time>2022-01-13T08:30:46.000Z</time>
      </trkpt>
      <trkpt lat="47.83212" lon="7.05326">
        <ele>655</ele>
        <time>2022-01-13T08:30:56.000Z</time>
      </trkpt>
      <trkpt lat="47.83213" lon="7.0531">
        <ele>655.8</ele>
        <time>2022-01-13T08:31:06.000Z</time>
      </trkpt>
      <trkpt lat="47.83217" lon="7.05295">
        <ele>657</ele>
        <time>2022-01-13T08:31:16.000Z</time>
      </trkpt>
      <trkpt lat="47.83223" lon="7.05281">
        <ele>657.9</ele>
        <time>2022-01-13T08:31:26.000Z</time>
      </trkpt>
      <trkpt lat="47.83226" lon="7.05265">
        <ele>657.9</ele>
        <time>2022-01-13T08:31:36.000Z</time>
      </trkpt>
      <trkpt lat="47.83225" lon="7.05245">
        <ele>658.4</ele>
        <time>2022-01-13T08:31:46.000Z</time>
      </trkpt>
      <trkpt lat="47.83223" lon="7.05227">
        <ele>658.9</ele>
        <time>2022-01-13T08:31:56.000Z</time>
      </trkpt>
      <trkpt lat="47.83221" lon="7.05209">
        <ele>658.8</ele>
        <time>2022-01-13T08:32:06.000Z</time>
      </trkpt>
      <trkpt lat="47.83218" lon="7.0519">
        <ele>658.6</ele>
        <time>2022-01-13T08:32:16.000Z</time>
      </trkpt>
      <trkpt lat="47.83216" lon="7.05174">
        <ele>658.7</ele>
        <time>2022-01-13T08:32:26.000Z</time>
      </trkpt>
      <trkpt lat="47.83214" lon="7.05157">
        <ele>659</ele>
        <time>2022-01-13T08:32:36.000Z</time>
      </trkpt>
      <trkpt lat="47.8321" lon="7.0514">
        <ele>659.8</ele>
        <time>2022-01-13T08:32:46.000Z</time>
      </trkpt>
      <trkpt lat="47.83208" lon="7.05123">
        <ele>660.9</ele>
        <time>2022-01-13T08:32:56.000Z</time>
      </trkpt>
      <trkpt lat="47.83205" lon="7.05107">
        <ele>662.6</ele>
        <time>2022-01-13T08:33:06.000Z</time>
      </trkpt>
      <trkpt lat="47.83204" lon="7.05103">
        <ele>663.3</ele>
        <time>2022-01-13T08:33:16.000Z</time>
      </trkpt>
      <trkpt lat="47.83201" lon="7.05102">
        <ele>663.9</ele>
        <time>2022-01-13T08:33:26.000Z</time>
      </trkpt>
      <trkpt lat="47.83204" lon="7.05095">
        <ele>663.9</ele>
        <time>2022-01-13T08:33:36.000Z</time>
      </trkpt>
      <trkpt lat="47.83202" lon="7.05082">
        <ele>666</ele>
        <time>2022-01-13T08:33:46.000Z</time>
      </trkpt>
      <trkpt lat="47.83199" lon="7.05073">
        <ele>668</ele>
        <time>2022-01-13T08:33:56.000Z</time>
      </trkpt>
      <trkpt lat="47.83197" lon="7.05063">
        <ele>669.9</ele>
        <time>2022-01-13T08:34:06.000Z</time>
      </trkpt>
      <trkpt lat="47.83194" lon="7.05054">
        <ele>672.1</ele>
        <time>2022-01-13T08:34:16.000Z</time>
      </trkpt>
      <trkpt lat="47.8319" lon="7.05046">
        <ele>672.1</ele>
        <time>2022-01-13T08:34:26.000Z</time>
      </trkpt>
      <trkpt lat="47.83187" lon="7.05036">
        <ele>673.1</ele>
        <time>2022-01-13T08:34:36.000Z</time>
      </trkpt>
      <trkpt lat="47.83182" lon="7.05028">
        <ele>674.5</ele>
        <time>2022-01-13T08:34:46.000Z</time>
      </trkpt>
      <trkpt lat="47.83179" lon="7.05019">
        <ele>676.1</ele>
        <time>2022-01-13T08:34:56.000Z</time>
      </trkpt>
      <trkpt lat="47.83177" lon="7.05008">
        <ele>678.5</ele>
        <time>2022-01-13T08:35:06.000Z</time>
      </trkpt>
      <trkpt lat="47.83175" lon="7.04997">
        <ele>681</ele>
        <time>2022-01-13T08:35:16.000Z</time>
      </trkpt>
      <trkpt lat="47.83174" lon="7.04989">
        <ele>682.4</ele>
        <time>2022-01-13T08:35:26.000Z</time>
      </trkpt>
      <trkpt lat="47.83173" lon="7.04978">
        <ele>684.3</ele>
        <time>2022-01-13T08:35:36.000Z</time>
      </trkpt>
      <trkpt lat="47.83172" lon="7.04967">
        <ele>686.3</ele>
        <time>2022-01-13T08:35:46.000Z</time>
      </trkpt>
      <trkpt lat="47.83169" lon="7.04956">
        <ele>689.3</ele>
        <time>2022-01-13T08:35:56.000Z</time>
      </trkpt>
      <trkpt lat="47.83166" lon="7.04944">
        <ele>692</ele>
        <time>2022-01-13T08:36:06.000Z</time>
      </trkpt>
      <trkpt lat="47.83166" lon="7.04931">
        <ele>693.6</ele>
        <time>2022-01-13T08:36:16.000Z</time>
      </trkpt>
      <trkpt lat="47.83164" lon="7.0492">
        <ele>694.9</ele>
        <time>2022-01-13T08:36:26.000Z</time>
      </trkpt>
      <trkpt lat="47.83164" lon="7.04909">
        <ele>696.3</ele>
        <time>2022-01-13T08:36:36.000Z</time>
      </trkpt>
      <trkpt lat="47.83161" lon="7.04895">
        <ele>698.5</ele>
        <time>2022-01-13T08:36:46.000Z</time>
      </trkpt>
      <trkpt lat="47.83156" lon="7.04884">
        <ele>699.9</ele>
        <time>2022-01-13T08:36:56.000Z</time>
      </trkpt>
      <trkpt lat="47.83155" lon="7.04872">
        <ele>701.2</ele>
        <time>2022-01-13T08:37:06.000Z</time>
      </trkpt>
      <trkpt lat="47.83157" lon="7.04862">
        <ele>702.2</ele>
        <time>2022-01-13T08:37:16.000Z</time>
      </trkpt>
      <trkpt lat="47.83161" lon="7.04852">
        <ele>703.3</ele>
        <time>2022-01-13T08:37:26.000Z</time>
      </trkpt>
      <trkpt lat="47.8316" lon="7.0484">
        <ele>704.7</ele>
        <time>2022-01-13T08:37:36.000Z</time>
      </trkpt>
      <trkpt lat="47.83159" lon="7.04831">
        <ele>705.9</ele>
        <time>2022-01-13T08:37:46.000Z</time>
      </trkpt>
      <trkpt lat="47.83154" lon="7.0482">
        <ele>707.4</ele>
        <time>2022-01-13T08:37:56.000Z</time>
      </trkpt>
      <trkpt lat="47.83152" lon="7.04809">
        <ele>708.7</ele>
        <time>2022-01-13T08:38:06.000Z</time>
      </trkpt>
      <trkpt lat="47.83151" lon="7.04797">
        <ele>710.2</ele>
        <time>2022-01-13T08:38:16.000Z</time>
      </trkpt>
      <trkpt lat="47.83153" lon="7.04785">
        <ele>711.6</ele>
        <time>2022-01-13T08:38:26.000Z</time>
      </trkpt>
      <trkpt lat="47.8315" lon="7.04774">
        <ele>713.1</ele>
        <time>2022-01-13T08:38:36.000Z</time>
      </trkpt>
      <trkpt lat="47.83148" lon="7.04763">
        <ele>714.3</ele>
        <time>2022-01-13T08:38:46.000Z</time>
      </trkpt>
      <trkpt lat="47.83148" lon="7.04751">
        <ele>715.2</ele>
        <time>2022-01-13T08:38:56.000Z</time>
      </trkpt>
      <trkpt lat="47.83145" lon="7.04737">
        <ele>716.5</ele>
        <time>2022-01-13T08:39:06.000Z</time>
      </trkpt>
      <trkpt lat="47.83141" lon="7.04726">
        <ele>718.1</ele>
        <time>2022-01-13T08:39:16.000Z</time>
      </trkpt>
      <trkpt lat="47.83138" lon="7.04712">
        <ele>719</ele>
        <time>2022-01-13T08:39:26.000Z</time>
      </trkpt>
      <trkpt lat="47.83135" lon="7.047">
        <ele>718.8</ele>
        <time>2022-01-13T08:39:36.000Z</time>
      </trkpt>
      <trkpt lat="47.83135" lon="7.0469">
        <ele>719.2</ele>
        <time>2022-01-13T08:39:46.000Z</time>
      </trkpt>
      <trkpt lat="47.83137" lon="7.04676">
        <ele>720.2</ele>
        <time>2022-01-13T08:39:56.000Z</time>
      </trkpt>
      <trkpt lat="47.83136" lon="7.04661">
        <ele>720.5</ele>
        <time>2022-01-13T08:40:06.000Z</time>
      </trkpt>
      <trkpt lat="47.83135" lon="7.04649">
        <ele>720.4</ele>
        <time>2022-01-13T08:40:16.000Z</time>
      </trkpt>
      <trkpt lat="47.83133" lon="7.04635">
        <ele>719.6</ele>
        <time>2022-01-13T08:40:26.000Z</time>
      </trkpt>
      <trkpt lat="47.83131" lon="7.0462">
        <ele>717.4</ele>
        <time>2022-01-13T08:40:36.000Z</time>
      </trkpt>
      <trkpt lat="47.83126" lon="7.04601">
        <ele>715.9</ele>
        <time>2022-01-13T08:40:46.000Z</time>
      </trkpt>
      <trkpt lat="47.83123" lon="7.04582">
        <ele>715.5</ele>
        <time>2022-01-13T08:40:56.000Z</time>
      </trkpt>
      <trkpt lat="47.8312" lon="7.04568">
        <ele>715.9</ele>
        <time>2022-01-13T08:41:06.000Z</time>
      </trkpt>
      <trkpt lat="47.83115" lon="7.04552">
        <ele>717.6</ele>
        <time>2022-01-13T08:41:16.000Z</time>
      </trkpt>
      <trkpt lat="47.8311" lon="7.04538">
        <ele>719.3</ele>
        <time>2022-01-13T08:41:26.000Z</time>
      </trkpt>
      <trkpt lat="47.83104" lon="7.04526">
        <ele>718.9</ele>
        <time>2022-01-13T08:41:36.000Z</time>
      </trkpt>
      <trkpt lat="47.83101" lon="7.04526">
        <ele>718.5</ele>
        <time>2022-01-13T08:41:46.000Z</time>
      </trkpt>
      <trkpt lat="47.83099" lon="7.04529">
        <ele>718.1</ele>
        <time>2022-01-13T08:41:56.000Z</time>
      </trkpt>
      <trkpt lat="47.83101" lon="7.04526">
        <ele>718.6</ele>
        <time>2022-01-13T08:42:06.000Z</time>
      </trkpt>
      <trkpt lat="47.83102" lon="7.04528">
        <ele>718.6</ele>
        <time>2022-01-13T08:42:16.000Z</time>
      </trkpt>
      <trkpt lat="47.83101" lon="7.04526">
        <ele>718.6</ele>
        <time>2022-01-13T08:42:51.000Z</time>
      </trkpt>
      <trkpt lat="47.83096" lon="7.04514">
        <ele>718.5</ele>
        <time>2022-01-13T08:43:00.856Z</time>
      </trkpt>
      <trkpt lat="47.83089" lon="7.04501">
        <ele>719.5</ele>
        <time>2022-01-13T08:43:10.693Z</time>
      </trkpt>
      <trkpt lat="47.83084" lon="7.0448">
        <ele>721.3</ele>
        <time>2022-01-13T08:43:20.093Z</time>
      </trkpt>
      <trkpt lat="47.83078" lon="7.0446">
        <ele>719.2</ele>
        <time>2022-01-13T08:43:29.837Z</time>
      </trkpt>
      <trkpt lat="47.83079" lon="7.04442">
        <ele>718</ele>
        <time>2022-01-13T08:43:40.000Z</time>
      </trkpt>
      <trkpt lat="47.83071" lon="7.04426">
        <ele>716</ele>
        <time>2022-01-13T08:43:49.416Z</time>
      </trkpt>
      <trkpt lat="47.83067" lon="7.04412">
        <ele>715.6</ele>
        <time>2022-01-13T08:43:58.554Z</time>
      </trkpt>
      <trkpt lat="47.83059" lon="7.04395">
        <ele>717</ele>
        <time>2022-01-13T08:44:09.000Z</time>
      </trkpt>
      <trkpt lat="47.83053" lon="7.04379">
        <ele>717.7</ele>
        <time>2022-01-13T08:44:18.453Z</time>
      </trkpt>
      <trkpt lat="47.83052" lon="7.04363">
        <ele>717.7</ele>
        <time>2022-01-13T08:44:27.471Z</time>
      </trkpt>
      <trkpt lat="47.8305" lon="7.04347">
        <ele>717.9</ele>
        <time>2022-01-13T08:44:36.972Z</time>
      </trkpt>
      <trkpt lat="47.83046" lon="7.0433">
        <ele>718.5</ele>
        <time>2022-01-13T08:44:46.754Z</time>
      </trkpt>
      <trkpt lat="47.83044" lon="7.04323">
        <ele>718.9</ele>
        <time>2022-01-13T08:44:56.000Z</time>
      </trkpt>
      <trkpt lat="47.83035" lon="7.04318">
        <ele>720</ele>
        <time>2022-01-13T08:45:06.000Z</time>
      </trkpt>
      <trkpt lat="47.83024" lon="7.04305">
        <ele>721.4</ele>
        <time>2022-01-13T08:45:15.537Z</time>
      </trkpt>
      <trkpt lat="47.83016" lon="7.0429">
        <ele>721.6</ele>
        <time>2022-01-13T08:45:25.000Z</time>
      </trkpt>
      <trkpt lat="47.8301" lon="7.04279">
        <ele>722.8</ele>
        <time>2022-01-13T08:45:35.000Z</time>
      </trkpt>
      <trkpt lat="47.83008" lon="7.04288">
        <ele>721.3</ele>
        <time>2022-01-13T08:45:45.000Z</time>
      </trkpt>
      <trkpt lat="47.83007" lon="7.04288">
        <ele>721.2</ele>
        <time>2022-01-13T08:45:55.000Z</time>
      </trkpt>
      <trkpt lat="47.83013" lon="7.04286">
        <ele>721.9</ele>
        <time>2022-01-13T08:46:05.000Z</time>
      </trkpt>
      <trkpt lat="47.83019" lon="7.04278">
        <ele>723</ele>
        <time>2022-01-13T08:46:15.000Z</time>
      </trkpt>
      <trkpt lat="47.83011" lon="7.04275">
        <ele>723.4</ele>
        <time>2022-01-13T08:46:25.000Z</time>
      </trkpt>
      <trkpt lat="47.83012" lon="7.04274">
        <ele>723.5</ele>
        <time>2022-01-13T08:46:35.000Z</time>
      </trkpt>
      <trkpt lat="47.83008" lon="7.04277">
        <ele>723.2</ele>
        <time>2022-01-13T08:46:45.000Z</time>
      </trkpt>
      <trkpt lat="47.83003" lon="7.04283">
        <ele>722</ele>
        <time>2022-01-13T08:46:55.000Z</time>
      </trkpt>
      <trkpt lat="47.82999" lon="7.04283">
        <ele>721.4</ele>
        <time>2022-01-13T08:47:05.000Z</time>
      </trkpt>
      <trkpt lat="47.83001" lon="7.04287">
        <ele>721.2</ele>
        <time>2022-01-13T08:47:15.000Z</time>
      </trkpt>
      <trkpt lat="47.83001" lon="7.04291">
        <ele>720.1</ele>
        <time>2022-01-13T08:47:25.000Z</time>
      </trkpt>
      <trkpt lat="47.82998" lon="7.04295">
        <ele>718.2</ele>
        <time>2022-01-13T08:47:35.000Z</time>
      </trkpt>
      <trkpt lat="47.82997" lon="7.04296">
        <ele>717.7</ele>
        <time>2022-01-13T08:47:47.000Z</time>
      </trkpt>
      <trkpt lat="47.82996" lon="7.04297">
        <ele>717</ele>
        <time>2022-01-13T08:47:57.000Z</time>
      </trkpt>
      <trkpt lat="47.82997" lon="7.04293">
        <ele>718.1</ele>
        <time>2022-01-13T08:48:07.000Z</time>
      </trkpt>
      <trkpt lat="47.82998" lon="7.04294">
        <ele>718.2</ele>
        <time>2022-01-13T08:48:17.000Z</time>
      </trkpt>
      <trkpt lat="47.82997" lon="7.04296">
        <ele>717.6</ele>
        <time>2022-01-13T08:48:27.000Z</time>
      </trkpt>
      <trkpt lat="47.82996" lon="7.04296">
        <ele>717.1</ele>
        <time>2022-01-13T08:49:03.000Z</time>
      </trkpt>
      <trkpt lat="47.82991" lon="7.04295">
        <ele>715</ele>
        <time>2022-01-13T08:49:13.000Z</time>
      </trkpt>
      <trkpt lat="47.83009" lon="7.04298">
        <ele>719.8</ele>
        <time>2022-01-13T08:49:23.000Z</time>
      </trkpt>
      <trkpt lat="47.83026" lon="7.04283">
        <ele>722.8</ele>
        <time>2022-01-13T08:49:33.000Z</time>
      </trkpt>
      <trkpt lat="47.83026" lon="7.04271">
        <ele>723.5</ele>
        <time>2022-01-13T08:49:43.000Z</time>
      </trkpt>
      <trkpt lat="47.83019" lon="7.04263">
        <ele>724.6</ele>
        <time>2022-01-13T08:49:53.000Z</time>
      </trkpt>
      <trkpt lat="47.83014" lon="7.04256">
        <ele>725.7</ele>
        <time>2022-01-13T08:50:03.000Z</time>
      </trkpt>
      <trkpt lat="47.83007" lon="7.04243">
        <ele>728.1</ele>
        <time>2022-01-13T08:50:13.000Z</time>
      </trkpt>
      <trkpt lat="47.83" lon="7.04229">
        <ele>730.9</ele>
        <time>2022-01-13T08:50:23.000Z</time>
      </trkpt>
      <trkpt lat="47.82995" lon="7.0422">
        <ele>731.7</ele>
        <time>2022-01-13T08:50:33.000Z</time>
      </trkpt>
      <trkpt lat="47.82989" lon="7.04213">
        <ele>732.1</ele>
        <time>2022-01-13T08:50:43.000Z</time>
      </trkpt>
      <trkpt lat="47.82982" lon="7.04204">
        <ele>733.5</ele>
        <time>2022-01-13T08:50:53.000Z</time>
      </trkpt>
      <trkpt lat="47.82973" lon="7.04196">
        <ele>735.5</ele>
        <time>2022-01-13T08:51:03.000Z</time>
      </trkpt>
      <trkpt lat="47.82963" lon="7.04191">
        <ele>735.1</ele>
        <time>2022-01-13T08:51:13.000Z</time>
      </trkpt>
      <trkpt lat="47.82954" lon="7.0418">
        <ele>738</ele>
        <time>2022-01-13T08:51:23.000Z</time>
      </trkpt>
      <trkpt lat="47.82945" lon="7.0417">
        <ele>742.1</ele>
        <time>2022-01-13T08:51:33.000Z</time>
      </trkpt>
      <trkpt lat="47.82936" lon="7.04164">
        <ele>745.2</ele>
        <time>2022-01-13T08:51:43.000Z</time>
      </trkpt>
      <trkpt lat="47.82927" lon="7.04161">
        <ele>746.4</ele>
        <time>2022-01-13T08:51:53.000Z</time>
      </trkpt>
      <trkpt lat="47.82917" lon="7.04161">
        <ele>746.8</ele>
        <time>2022-01-13T08:52:03.000Z</time>
      </trkpt>
      <trkpt lat="47.82908" lon="7.04159">
        <ele>748.6</ele>
        <time>2022-01-13T08:52:13.000Z</time>
      </trkpt>
      <trkpt lat="47.82898" lon="7.04156">
        <ele>751.1</ele>
        <time>2022-01-13T08:52:23.000Z</time>
      </trkpt>
      <trkpt lat="47.82889" lon="7.04156">
        <ele>751.9</ele>
        <time>2022-01-13T08:52:33.000Z</time>
      </trkpt>
      <trkpt lat="47.82878" lon="7.04159">
        <ele>753.1</ele>
        <time>2022-01-13T08:52:43.000Z</time>
      </trkpt>
      <trkpt lat="47.82869" lon="7.04166">
        <ele>752.4</ele>
        <time>2022-01-13T08:52:53.000Z</time>
      </trkpt>
      <trkpt lat="47.8286" lon="7.04172">
        <ele>752.3</ele>
        <time>2022-01-13T08:53:03.000Z</time>
      </trkpt>
      <trkpt lat="47.82853" lon="7.04177">
        <ele>754.4</ele>
        <time>2022-01-13T08:53:13.000Z</time>
      </trkpt>
      <trkpt lat="47.82846" lon="7.04185">
        <ele>754.6</ele>
        <time>2022-01-13T08:53:23.000Z</time>
      </trkpt>
      <trkpt lat="47.82839" lon="7.04195">
        <ele>754.9</ele>
        <time>2022-01-13T08:53:33.000Z</time>
      </trkpt>
      <trkpt lat="47.8283" lon="7.04201">
        <ele>757</ele>
        <time>2022-01-13T08:53:43.000Z</time>
      </trkpt>
      <trkpt lat="47.8282" lon="7.04201">
        <ele>760.2</ele>
        <time>2022-01-13T08:53:53.000Z</time>
      </trkpt>
      <trkpt lat="47.82812" lon="7.04202">
        <ele>762.1</ele>
        <time>2022-01-13T08:54:03.000Z</time>
      </trkpt>
      <trkpt lat="47.82803" lon="7.04196">
        <ele>766</ele>
        <time>2022-01-13T08:54:13.000Z</time>
      </trkpt>
      <trkpt lat="47.82796" lon="7.04188">
        <ele>768.5</ele>
        <time>2022-01-13T08:54:23.000Z</time>
      </trkpt>
      <trkpt lat="47.82799" lon="7.04182">
        <ele>770.8</ele>
        <time>2022-01-13T08:54:33.000Z</time>
      </trkpt>
      <trkpt lat="47.82808" lon="7.04179">
        <ele>771.7</ele>
        <time>2022-01-13T08:54:43.000Z</time>
      </trkpt>
      <trkpt lat="47.82817" lon="7.04177">
        <ele>769.5</ele>
        <time>2022-01-13T08:54:52.853Z</time>
      </trkpt>
      <trkpt lat="47.82826" lon="7.04165">
        <ele>770.9</ele>
        <time>2022-01-13T08:55:02.000Z</time>
      </trkpt>
      <trkpt lat="47.82837" lon="7.0415">
        <ele>771.8</ele>
        <time>2022-01-13T08:55:11.573Z</time>
      </trkpt>
      <trkpt lat="47.82843" lon="7.0414">
        <ele>772.7</ele>
        <time>2022-01-13T08:55:21.000Z</time>
      </trkpt>
      <trkpt lat="47.8285" lon="7.04128">
        <ele>775.5</ele>
        <time>2022-01-13T08:55:30.576Z</time>
      </trkpt>
      <trkpt lat="47.82866" lon="7.0412">
        <ele>773.8</ele>
        <time>2022-01-13T08:55:40.000Z</time>
      </trkpt>
      <trkpt lat="47.8288" lon="7.04116">
        <ele>772.5</ele>
        <time>2022-01-13T08:55:50.000Z</time>
      </trkpt>
      <trkpt lat="47.82897" lon="7.04109">
        <ele>772.2</ele>
        <time>2022-01-13T08:56:00.000Z</time>
      </trkpt>
      <trkpt lat="47.82907" lon="7.04099">
        <ele>772.8</ele>
        <time>2022-01-13T08:56:10.000Z</time>
      </trkpt>
      <trkpt lat="47.82915" lon="7.04084">
        <ele>774.1</ele>
        <time>2022-01-13T08:56:20.000Z</time>
      </trkpt>
      <trkpt lat="47.82912" lon="7.04075">
        <ele>775.5</ele>
        <time>2022-01-13T08:56:30.000Z</time>
      </trkpt>
      <trkpt lat="47.82911" lon="7.04073">
        <ele>776.1</ele>
        <time>2022-01-13T08:56:40.000Z</time>
      </trkpt>
      <trkpt lat="47.82908" lon="7.0407">
        <ele>777.1</ele>
        <time>2022-01-13T08:57:21.000Z</time>
      </trkpt>
      <trkpt lat="47.82914" lon="7.04061">
        <ele>776</ele>
        <time>2022-01-13T08:57:31.000Z</time>
      </trkpt>
      <trkpt lat="47.82912" lon="7.04054">
        <ele>777</ele>
        <time>2022-01-13T08:57:41.000Z</time>
      </trkpt>
      <trkpt lat="47.82911" lon="7.04056">
        <ele>777.4</ele>
        <time>2022-01-13T08:57:55.000Z</time>
      </trkpt>
      <trkpt lat="47.82914" lon="7.04063">
        <ele>775.7</ele>
        <time>2022-01-13T08:58:05.000Z</time>
      </trkpt>
      <trkpt lat="47.82914" lon="7.0406">
        <ele>776.1</ele>
        <time>2022-01-13T08:58:15.000Z</time>
      </trkpt>
      <trkpt lat="47.82908" lon="7.04038">
        <ele>780.7</ele>
        <time>2022-01-13T08:58:25.000Z</time>
      </trkpt>
      <trkpt lat="47.82914" lon="7.04027">
        <ele>779.4</ele>
        <time>2022-01-13T08:58:35.000Z</time>
      </trkpt>
      <trkpt lat="47.82916" lon="7.04013">
        <ele>779.1</ele>
        <time>2022-01-13T08:58:45.000Z</time>
      </trkpt>
      <trkpt lat="47.82914" lon="7.03999">
        <ele>780.5</ele>
        <time>2022-01-13T08:58:55.000Z</time>
      </trkpt>
      <trkpt lat="47.82914" lon="7.03987">
        <ele>781.1</ele>
        <time>2022-01-13T08:59:05.000Z</time>
      </trkpt>
      <trkpt lat="47.82914" lon="7.03977">
        <ele>781.4</ele>
        <time>2022-01-13T08:59:15.000Z</time>
      </trkpt>
      <trkpt lat="47.82911" lon="7.03965">
        <ele>783.3</ele>
        <time>2022-01-13T08:59:25.000Z</time>
      </trkpt>
      <trkpt lat="47.82911" lon="7.03948">
        <ele>784.4</ele>
        <time>2022-01-13T08:59:35.000Z</time>
      </trkpt>
      <trkpt lat="47.82909" lon="7.03937">
        <ele>786</ele>
        <time>2022-01-13T08:59:45.000Z</time>
      </trkpt>
      <trkpt lat="47.82909" lon="7.03926">
        <ele>786.7</ele>
        <time>2022-01-13T08:59:55.000Z</time>
      </trkpt>
      <trkpt lat="47.82909" lon="7.03912">
        <ele>788</ele>
        <time>2022-01-13T09:00:05.000Z</time>
      </trkpt>
      <trkpt lat="47.82909" lon="7.03897">
        <ele>788.6</ele>
        <time>2022-01-13T09:00:15.000Z</time>
      </trkpt>
      <trkpt lat="47.82909" lon="7.03885">
        <ele>789.2</ele>
        <time>2022-01-13T09:00:25.000Z</time>
      </trkpt>
      <trkpt lat="47.82908" lon="7.03872">
        <ele>790.3</ele>
        <time>2022-01-13T09:00:35.000Z</time>
      </trkpt>
      <trkpt lat="47.82908" lon="7.0386">
        <ele>790.9</ele>
        <time>2022-01-13T09:00:45.000Z</time>
      </trkpt>
      <trkpt lat="47.82904" lon="7.03849">
        <ele>793.8</ele>
        <time>2022-01-13T09:00:55.000Z</time>
      </trkpt>
      <trkpt lat="47.82902" lon="7.03837">
        <ele>795.3</ele>
        <time>2022-01-13T09:01:05.000Z</time>
      </trkpt>
      <trkpt lat="47.82902" lon="7.03827">
        <ele>795.8</ele>
        <time>2022-01-13T09:01:15.000Z</time>
      </trkpt>
      <trkpt lat="47.82901" lon="7.03817">
        <ele>796.2</ele>
        <time>2022-01-13T09:01:25.000Z</time>
      </trkpt>
      <trkpt lat="47.82898" lon="7.03805">
        <ele>798.3</ele>
        <time>2022-01-13T09:01:35.000Z</time>
      </trkpt>
      <trkpt lat="47.82896" lon="7.03794">
        <ele>798.5</ele>
        <time>2022-01-13T09:01:45.000Z</time>
      </trkpt>
      <trkpt lat="47.82893" lon="7.03783">
        <ele>799.7</ele>
        <time>2022-01-13T09:01:55.000Z</time>
      </trkpt>
      <trkpt lat="47.82892" lon="7.03771">
        <ele>800.3</ele>
        <time>2022-01-13T09:02:05.000Z</time>
      </trkpt>
      <trkpt lat="47.82889" lon="7.03757">
        <ele>802.2</ele>
        <time>2022-01-13T09:02:15.000Z</time>
      </trkpt>
      <trkpt lat="47.82884" lon="7.03747">
        <ele>804.5</ele>
        <time>2022-01-13T09:02:25.000Z</time>
      </trkpt>
      <trkpt lat="47.82881" lon="7.03733">
        <ele>806.7</ele>
        <time>2022-01-13T09:02:35.000Z</time>
      </trkpt>
      <trkpt lat="47.82879" lon="7.03721">
        <ele>807.9</ele>
        <time>2022-01-13T09:02:45.000Z</time>
      </trkpt>
      <trkpt lat="47.8288" lon="7.03713">
        <ele>807.6</ele>
        <time>2022-01-13T09:02:55.000Z</time>
      </trkpt>
      <trkpt lat="47.82877" lon="7.03706">
        <ele>809.7</ele>
        <time>2022-01-13T09:03:05.000Z</time>
      </trkpt>
      <trkpt lat="47.82876" lon="7.03692">
        <ele>810.2</ele>
        <time>2022-01-13T09:03:15.000Z</time>
      </trkpt>
      <trkpt lat="47.82875" lon="7.03672">
        <ele>811.5</ele>
        <time>2022-01-13T09:03:25.000Z</time>
      </trkpt>
      <trkpt lat="47.82874" lon="7.03656">
        <ele>811.8</ele>
        <time>2022-01-13T09:03:36.000Z</time>
      </trkpt>
      <trkpt lat="47.82872" lon="7.03645">
        <ele>812.2</ele>
        <time>2022-01-13T09:03:46.000Z</time>
      </trkpt>
      <trkpt lat="47.82869" lon="7.03635">
        <ele>813.4</ele>
        <time>2022-01-13T09:03:56.000Z</time>
      </trkpt>
      <trkpt lat="47.82865" lon="7.03622">
        <ele>814.8</ele>
        <time>2022-01-13T09:04:06.000Z</time>
      </trkpt>
      <trkpt lat="47.82862" lon="7.03614">
        <ele>815.9</ele>
        <time>2022-01-13T09:04:16.000Z</time>
      </trkpt>
      <trkpt lat="47.82858" lon="7.03602">
        <ele>817.1</ele>
        <time>2022-01-13T09:04:26.000Z</time>
      </trkpt>
      <trkpt lat="47.82854" lon="7.03592">
        <ele>819</ele>
        <time>2022-01-13T09:04:36.000Z</time>
      </trkpt>
      <trkpt lat="47.8285" lon="7.03581">
        <ele>820.8</ele>
        <time>2022-01-13T09:04:46.000Z</time>
      </trkpt>
      <trkpt lat="47.82847" lon="7.0357">
        <ele>821.6</ele>
        <time>2022-01-13T09:04:56.000Z</time>
      </trkpt>
      <trkpt lat="47.82845" lon="7.03562">
        <ele>822</ele>
        <time>2022-01-13T09:05:06.000Z</time>
      </trkpt>
      <trkpt lat="47.82839" lon="7.03552">
        <ele>824.8</ele>
        <time>2022-01-13T09:05:16.000Z</time>
      </trkpt>
      <trkpt lat="47.82834" lon="7.03543">
        <ele>826.4</ele>
        <time>2022-01-13T09:05:26.000Z</time>
      </trkpt>
      <trkpt lat="47.82829" lon="7.03532">
        <ele>828.5</ele>
        <time>2022-01-13T09:05:36.000Z</time>
      </trkpt>
      <trkpt lat="47.82827" lon="7.03518">
        <ele>828.4</ele>
        <time>2022-01-13T09:05:46.000Z</time>
      </trkpt>
      <trkpt lat="47.82824" lon="7.03512">
        <ele>830.1</ele>
        <time>2022-01-13T09:05:56.000Z</time>
      </trkpt>
      <trkpt lat="47.82821" lon="7.03503">
        <ele>831.8</ele>
        <time>2022-01-13T09:06:06.000Z</time>
      </trkpt>
      <trkpt lat="47.82818" lon="7.03495">
        <ele>832.6</ele>
        <time>2022-01-13T09:06:16.000Z</time>
      </trkpt>
      <trkpt lat="47.82815" lon="7.03482">
        <ele>832.8</ele>
        <time>2022-01-13T09:06:25.773Z</time>
      </trkpt>
      <trkpt lat="47.82816" lon="7.03469">
        <ele>831</ele>
        <time>2022-01-13T09:06:36.000Z</time>
      </trkpt>
      <trkpt lat="47.82812" lon="7.03455">
        <ele>833.6</ele>
        <time>2022-01-13T09:06:46.000Z</time>
      </trkpt>
      <trkpt lat="47.8281" lon="7.03442">
        <ele>835.8</ele>
        <time>2022-01-13T09:06:55.656Z</time>
      </trkpt>
      <trkpt lat="47.82809" lon="7.03434">
        <ele>836.8</ele>
        <time>2022-01-13T09:07:05.000Z</time>
      </trkpt>
      <trkpt lat="47.82811" lon="7.03421">
        <ele>837.1</ele>
        <time>2022-01-13T09:07:15.000Z</time>
      </trkpt>
      <trkpt lat="47.82811" lon="7.0341">
        <ele>838.3</ele>
        <time>2022-01-13T09:07:25.000Z</time>
      </trkpt>
      <trkpt lat="47.82813" lon="7.03398">
        <ele>837.6</ele>
        <time>2022-01-13T09:07:35.000Z</time>
      </trkpt>
      <trkpt lat="47.82812" lon="7.03387">
        <ele>839.6</ele>
        <time>2022-01-13T09:07:45.000Z</time>
      </trkpt>
      <trkpt lat="47.82816" lon="7.03376">
        <ele>840.2</ele>
        <time>2022-01-13T09:07:55.000Z</time>
      </trkpt>
      <trkpt lat="47.82821" lon="7.03365">
        <ele>839.7</ele>
        <time>2022-01-13T09:08:05.000Z</time>
      </trkpt>
      <trkpt lat="47.82825" lon="7.03355">
        <ele>839.5</ele>
        <time>2022-01-13T09:08:15.000Z</time>
      </trkpt>
      <trkpt lat="47.82827" lon="7.03344">
        <ele>840.4</ele>
        <time>2022-01-13T09:08:25.000Z</time>
      </trkpt>
      <trkpt lat="47.82824" lon="7.03328">
        <ele>845.3</ele>
        <time>2022-01-13T09:08:35.000Z</time>
      </trkpt>
      <trkpt lat="47.82826" lon="7.03319">
        <ele>844.8</ele>
        <time>2022-01-13T09:08:44.254Z</time>
      </trkpt>
      <trkpt lat="47.82821" lon="7.03303">
        <ele>849.4</ele>
        <time>2022-01-13T09:08:54.000Z</time>
      </trkpt>
      <trkpt lat="47.82821" lon="7.03294">
        <ele>850</ele>
        <time>2022-01-13T09:09:04.000Z</time>
      </trkpt>
      <trkpt lat="47.82825" lon="7.03281">
        <ele>849.7</ele>
        <time>2022-01-13T09:09:14.000Z</time>
      </trkpt>
      <trkpt lat="47.8283" lon="7.03274">
        <ele>848.5</ele>
        <time>2022-01-13T09:09:24.000Z</time>
      </trkpt>
      <trkpt lat="47.82837" lon="7.03261">
        <ele>848.4</ele>
        <time>2022-01-13T09:09:33.475Z</time>
      </trkpt>
      <trkpt lat="47.82843" lon="7.03248">
        <ele>849.3</ele>
        <time>2022-01-13T09:09:43.000Z</time>
      </trkpt>
      <trkpt lat="47.82843" lon="7.03231">
        <ele>853.8</ele>
        <time>2022-01-13T09:09:53.000Z</time>
      </trkpt>
      <trkpt lat="47.82847" lon="7.03224">
        <ele>855</ele>
        <time>2022-01-13T09:10:03.000Z</time>
      </trkpt>
      <trkpt lat="47.82849" lon="7.03214">
        <ele>857.9</ele>
        <time>2022-01-13T09:10:13.000Z</time>
      </trkpt>
      <trkpt lat="47.82855" lon="7.03208">
        <ele>858.8</ele>
        <time>2022-01-13T09:10:23.000Z</time>
      </trkpt>
      <trkpt lat="47.82857" lon="7.03205">
        <ele>859.8</ele>
        <time>2022-01-13T09:10:33.000Z</time>
      </trkpt>
      <trkpt lat="47.82864" lon="7.03208">
        <ele>858.6</ele>
        <time>2022-01-13T09:10:42.578Z</time>
      </trkpt>
      <trkpt lat="47.82872" lon="7.03209">
        <ele>859.7</ele>
        <time>2022-01-13T09:10:52.000Z</time>
      </trkpt>
      <trkpt lat="47.82882" lon="7.0321">
        <ele>861.4</ele>
        <time>2022-01-13T09:11:02.000Z</time>
      </trkpt>
      <trkpt lat="47.82887" lon="7.03209">
        <ele>862.5</ele>
        <time>2022-01-13T09:11:12.000Z</time>
      </trkpt>
      <trkpt lat="47.82893" lon="7.03203">
        <ele>862.6</ele>
        <time>2022-01-13T09:11:22.000Z</time>
      </trkpt>
      <trkpt lat="47.82897" lon="7.0319">
        <ele>863.4</ele>
        <time>2022-01-13T09:11:32.000Z</time>
      </trkpt>
      <trkpt lat="47.82894" lon="7.03177">
        <ele>865.6</ele>
        <time>2022-01-13T09:11:42.000Z</time>
      </trkpt>
      <trkpt lat="47.82895" lon="7.03163">
        <ele>867.4</ele>
        <time>2022-01-13T09:11:52.000Z</time>
      </trkpt>
      <trkpt lat="47.829" lon="7.03153">
        <ele>868.1</ele>
        <time>2022-01-13T09:12:02.000Z</time>
      </trkpt>
      <trkpt lat="47.82907" lon="7.03148">
        <ele>867.9</ele>
        <time>2022-01-13T09:12:12.000Z</time>
      </trkpt>
      <trkpt lat="47.82914" lon="7.03141">
        <ele>868.1</ele>
        <time>2022-01-13T09:12:22.000Z</time>
      </trkpt>
      <trkpt lat="47.82922" lon="7.03137">
        <ele>869.1</ele>
        <time>2022-01-13T09:12:32.000Z</time>
      </trkpt>
      <trkpt lat="47.82931" lon="7.03135">
        <ele>870.8</ele>
        <time>2022-01-13T09:12:41.079Z</time>
      </trkpt>
      <trkpt lat="47.82939" lon="7.03137">
        <ele>870.9</ele>
        <time>2022-01-13T09:12:51.000Z</time>
      </trkpt>
      <trkpt lat="47.82947" lon="7.03141">
        <ele>870.7</ele>
        <time>2022-01-13T09:13:01.000Z</time>
      </trkpt>
      <trkpt lat="47.82955" lon="7.03145">
        <ele>870.1</ele>
        <time>2022-01-13T09:13:11.000Z</time>
      </trkpt>
      <trkpt lat="47.82958" lon="7.03143">
        <ele>870.3</ele>
        <time>2022-01-13T09:13:21.000Z</time>
      </trkpt>
      <trkpt lat="47.82959" lon="7.03141">
        <ele>870.7</ele>
        <time>2022-01-13T09:13:30.817Z</time>
      </trkpt>
      <trkpt lat="47.8296" lon="7.03136">
        <ele>871.9</ele>
        <time>2022-01-13T09:13:40.000Z</time>
      </trkpt>
      <trkpt lat="47.82962" lon="7.03126">
        <ele>875</ele>
        <time>2022-01-13T09:13:50.000Z</time>
      </trkpt>
      <trkpt lat="47.8296" lon="7.0312">
        <ele>876.6</ele>
        <time>2022-01-13T09:13:59.614Z</time>
      </trkpt>
      <trkpt lat="47.82952" lon="7.03116">
        <ele>876.9</ele>
        <time>2022-01-13T09:14:09.000Z</time>
      </trkpt>
      <trkpt lat="47.82949" lon="7.03112">
        <ele>877.4</ele>
        <time>2022-01-13T09:14:19.000Z</time>
      </trkpt>
      <trkpt lat="47.82942" lon="7.03103">
        <ele>880.2</ele>
        <time>2022-01-13T09:14:28.395Z</time>
      </trkpt>
      <trkpt lat="47.82936" lon="7.03098">
        <ele>882.1</ele>
        <time>2022-01-13T09:14:38.000Z</time>
      </trkpt>
      <trkpt lat="47.82935" lon="7.03099">
        <ele>881.7</ele>
        <time>2022-01-13T09:14:48.000Z</time>
      </trkpt>
      <trkpt lat="47.8294" lon="7.03098">
        <ele>882.1</ele>
        <time>2022-01-13T09:14:58.000Z</time>
      </trkpt>
      <trkpt lat="47.8295" lon="7.03099">
        <ele>882.9</ele>
        <time>2022-01-13T09:15:07.656Z</time>
      </trkpt>
      <trkpt lat="47.82954" lon="7.031">
        <ele>882.9</ele>
        <time>2022-01-13T09:15:17.000Z</time>
      </trkpt>
      <trkpt lat="47.82963" lon="7.03095">
        <ele>886.7</ele>
        <time>2022-01-13T09:15:27.000Z</time>
      </trkpt>
      <trkpt lat="47.82971" lon="7.03096">
        <ele>887.6</ele>
        <time>2022-01-13T09:15:36.841Z</time>
      </trkpt>
      <trkpt lat="47.82968" lon="7.03093">
        <ele>888.9</ele>
        <time>2022-01-13T09:15:46.000Z</time>
      </trkpt>
      <trkpt lat="47.82966" lon="7.0309">
        <ele>889.7</ele>
        <time>2022-01-13T09:15:56.000Z</time>
      </trkpt>
      <trkpt lat="47.82959" lon="7.03092">
        <ele>887.4</ele>
        <time>2022-01-13T09:16:05.456Z</time>
      </trkpt>
      <trkpt lat="47.8295" lon="7.03083">
        <ele>889.4</ele>
        <time>2022-01-13T09:16:15.000Z</time>
      </trkpt>
      <trkpt lat="47.82945" lon="7.03075">
        <ele>892.1</ele>
        <time>2022-01-13T09:16:25.000Z</time>
      </trkpt>
      <trkpt lat="47.82946" lon="7.0307">
        <ele>894.5</ele>
        <time>2022-01-13T09:16:35.000Z</time>
      </trkpt>
      <trkpt lat="47.82954" lon="7.03067">
        <ele>897.7</ele>
        <time>2022-01-13T09:16:45.000Z</time>
      </trkpt>
      <trkpt lat="47.82964" lon="7.03068">
        <ele>899.9</ele>
        <time>2022-01-13T09:16:55.000Z</time>
      </trkpt>
      <trkpt lat="47.82968" lon="7.03068">
        <ele>900.5</ele>
        <time>2022-01-13T09:17:05.000Z</time>
      </trkpt>
      <trkpt lat="47.82971" lon="7.03061">
        <ele>904.7</ele>
        <time>2022-01-13T09:17:15.000Z</time>
      </trkpt>
      <trkpt lat="47.82961" lon="7.03057">
        <ele>904.4</ele>
        <time>2022-01-13T09:17:25.000Z</time>
      </trkpt>
      <trkpt lat="47.82951" lon="7.03054">
        <ele>903.4</ele>
        <time>2022-01-13T09:17:34.754Z</time>
      </trkpt>
      <trkpt lat="47.82948" lon="7.03054">
        <ele>902.9</ele>
        <time>2022-01-13T09:17:45.000Z</time>
      </trkpt>
      <trkpt lat="47.8295" lon="7.03051">
        <ele>904.5</ele>
        <time>2022-01-13T09:18:10.000Z</time>
      </trkpt>
      <trkpt lat="47.82956" lon="7.03042">
        <ele>911</ele>
        <time>2022-01-13T09:18:20.000Z</time>
      </trkpt>
      <trkpt lat="47.82966" lon="7.03042">
        <ele>913.8</ele>
        <time>2022-01-13T09:18:29.577Z</time>
      </trkpt>
      <trkpt lat="47.82964" lon="7.0304">
        <ele>914.1</ele>
        <time>2022-01-13T09:18:43.000Z</time>
      </trkpt>
      <trkpt lat="47.82958" lon="7.03036">
        <ele>914.6</ele>
        <time>2022-01-13T09:18:52.454Z</time>
      </trkpt>
      <trkpt lat="47.82965" lon="7.03042">
        <ele>913.4</ele>
        <time>2022-01-13T09:19:02.000Z</time>
      </trkpt>
      <trkpt lat="47.82973" lon="7.03044">
        <ele>915.1</ele>
        <time>2022-01-13T09:19:12.000Z</time>
      </trkpt>
      <trkpt lat="47.82975" lon="7.03042">
        <ele>916.7</ele>
        <time>2022-01-13T09:19:22.000Z</time>
      </trkpt>
      <trkpt lat="47.82979" lon="7.03045">
        <ele>916.7</ele>
        <time>2022-01-13T09:19:32.000Z</time>
      </trkpt>
      <trkpt lat="47.82986" lon="7.03047">
        <ele>918.9</ele>
        <time>2022-01-13T09:19:42.000Z</time>
      </trkpt>
      <trkpt lat="47.82993" lon="7.0305">
        <ele>920</ele>
        <time>2022-01-13T09:19:51.738Z</time>
      </trkpt>
      <trkpt lat="47.82995" lon="7.03052">
        <ele>920.2</ele>
        <time>2022-01-13T09:20:02.000Z</time>
      </trkpt>
      <trkpt lat="47.83002" lon="7.03056">
        <ele>920.7</ele>
        <time>2022-01-13T09:20:12.000Z</time>
      </trkpt>
      <trkpt lat="47.83008" lon="7.03052">
        <ele>920.7</ele>
        <time>2022-01-13T09:20:22.000Z</time>
      </trkpt>
      <trkpt lat="47.83014" lon="7.03051">
        <ele>920.3</ele>
        <time>2022-01-13T09:20:32.000Z</time>
      </trkpt>
      <trkpt lat="47.83014" lon="7.03049">
        <ele>920.8</ele>
        <time>2022-01-13T09:20:42.000Z</time>
      </trkpt>
      <trkpt lat="47.83016" lon="7.0304">
        <ele>923.8</ele>
        <time>2022-01-13T09:20:52.000Z</time>
      </trkpt>
      <trkpt lat="47.83021" lon="7.03028">
        <ele>926.8</ele>
        <time>2022-01-13T09:21:02.000Z</time>
      </trkpt>
      <trkpt lat="47.83023" lon="7.03023">
        <ele>927.8</ele>
        <time>2022-01-13T09:21:12.000Z</time>
      </trkpt>
      <trkpt lat="47.83024" lon="7.03016">
        <ele>929.5</ele>
        <time>2022-01-13T09:21:22.000Z</time>
      </trkpt>
      <trkpt lat="47.83026" lon="7.0301">
        <ele>930.5</ele>
        <time>2022-01-13T09:21:37.000Z</time>
      </trkpt>
      <trkpt lat="47.83029" lon="7.02999">
        <ele>932.9</ele>
        <time>2022-01-13T09:21:46.433Z</time>
      </trkpt>
      <trkpt lat="47.83027" lon="7.02988">
        <ele>937.1</ele>
        <time>2022-01-13T09:21:55.754Z</time>
      </trkpt>
      <trkpt lat="47.83028" lon="7.02982">
        <ele>939</ele>
        <time>2022-01-13T09:22:05.000Z</time>
      </trkpt>
      <trkpt lat="47.83033" lon="7.02972">
        <ele>939.9</ele>
        <time>2022-01-13T09:22:15.000Z</time>
      </trkpt>
      <trkpt lat="47.83041" lon="7.02961">
        <ele>939.5</ele>
        <time>2022-01-13T09:22:25.000Z</time>
      </trkpt>
      <trkpt lat="47.83043" lon="7.02958">
        <ele>939.8</ele>
        <time>2022-01-13T09:22:35.000Z</time>
      </trkpt>
      <trkpt lat="47.83047" lon="7.02947">
        <ele>940.7</ele>
        <time>2022-01-13T09:22:46.000Z</time>
      </trkpt>
      <trkpt lat="47.83048" lon="7.02945">
        <ele>941.1</ele>
        <time>2022-01-13T09:22:56.000Z</time>
      </trkpt>
      <trkpt lat="47.83045" lon="7.02943">
        <ele>942.8</ele>
        <time>2022-01-13T09:23:06.000Z</time>
      </trkpt>
      <trkpt lat="47.83046" lon="7.02945">
        <ele>941.9</ele>
        <time>2022-01-13T09:23:16.000Z</time>
      </trkpt>
      <trkpt lat="47.83039" lon="7.02958">
        <ele>941.1</ele>
        <time>2022-01-13T09:23:25.114Z</time>
      </trkpt>
      <trkpt lat="47.83032" lon="7.02965">
        <ele>942.5</ele>
        <time>2022-01-13T09:23:36.000Z</time>
      </trkpt>
      <trkpt lat="47.83026" lon="7.02965">
        <ele>944.6</ele>
        <time>2022-01-13T09:23:46.000Z</time>
      </trkpt>
      <trkpt lat="47.83019" lon="7.02965">
        <ele>947</ele>
        <time>2022-01-13T09:23:55.839Z</time>
      </trkpt>
      <trkpt lat="47.83014" lon="7.02967">
        <ele>948</ele>
        <time>2022-01-13T09:24:06.000Z</time>
      </trkpt>
      <trkpt lat="47.83008" lon="7.02972">
        <ele>948.4</ele>
        <time>2022-01-13T09:24:16.000Z</time>
      </trkpt>
      <trkpt lat="47.83001" lon="7.02972">
        <ele>950.7</ele>
        <time>2022-01-13T09:24:26.000Z</time>
      </trkpt>
      <trkpt lat="47.82999" lon="7.02973">
        <ele>950.6</ele>
        <time>2022-01-13T09:24:36.000Z</time>
      </trkpt>
      <trkpt lat="47.83001" lon="7.02968">
        <ele>952.2</ele>
        <time>2022-01-13T09:24:46.000Z</time>
      </trkpt>
      <trkpt lat="47.83003" lon="7.02962">
        <ele>953.2</ele>
        <time>2022-01-13T09:24:55.153Z</time>
      </trkpt>
      <trkpt lat="47.83011" lon="7.02951">
        <ele>954.1</ele>
        <time>2022-01-13T09:25:05.000Z</time>
      </trkpt>
      <trkpt lat="47.83016" lon="7.02942">
        <ele>955.1</ele>
        <time>2022-01-13T09:25:15.000Z</time>
      </trkpt>
      <trkpt lat="47.83017" lon="7.02934">
        <ele>956.3</ele>
        <time>2022-01-13T09:25:25.000Z</time>
      </trkpt>
      <trkpt lat="47.8302" lon="7.02922">
        <ele>957.9</ele>
        <time>2022-01-13T09:25:35.000Z</time>
      </trkpt>
      <trkpt lat="47.83023" lon="7.02912">
        <ele>958.9</ele>
        <time>2022-01-13T09:25:45.000Z</time>
      </trkpt>
      <trkpt lat="47.83024" lon="7.02903">
        <ele>960.4</ele>
        <time>2022-01-13T09:25:54.537Z</time>
      </trkpt>
      <trkpt lat="47.83024" lon="7.02899">
        <ele>961.2</ele>
        <time>2022-01-13T09:26:04.000Z</time>
      </trkpt>
      <trkpt lat="47.83028" lon="7.02888">
        <ele>961.9</ele>
        <time>2022-01-13T09:26:13.478Z</time>
      </trkpt>
      <trkpt lat="47.8303" lon="7.02876">
        <ele>962.5</ele>
        <time>2022-01-13T09:26:23.000Z</time>
      </trkpt>
      <trkpt lat="47.8303" lon="7.02867">
        <ele>963.4</ele>
        <time>2022-01-13T09:26:33.000Z</time>
      </trkpt>
      <trkpt lat="47.83026" lon="7.02862">
        <ele>965.4</ele>
        <time>2022-01-13T09:26:43.000Z</time>
      </trkpt>
      <trkpt lat="47.8302" lon="7.02858">
        <ele>968.5</ele>
        <time>2022-01-13T09:26:53.000Z</time>
      </trkpt>
      <trkpt lat="47.83019" lon="7.02858">
        <ele>968.8</ele>
        <time>2022-01-13T09:27:03.000Z</time>
      </trkpt>
      <trkpt lat="47.83016" lon="7.02871">
        <ele>968.5</ele>
        <time>2022-01-13T09:27:13.000Z</time>
      </trkpt>
      <trkpt lat="47.83014" lon="7.02883">
        <ele>967.7</ele>
        <time>2022-01-13T09:27:23.000Z</time>
      </trkpt>
      <trkpt lat="47.83009" lon="7.02891">
        <ele>968.6</ele>
        <time>2022-01-13T09:27:33.000Z</time>
      </trkpt>
      <trkpt lat="47.83001" lon="7.02897">
        <ele>970.6</ele>
        <time>2022-01-13T09:27:43.000Z</time>
      </trkpt>
      <trkpt lat="47.82996" lon="7.02902">
        <ele>971.6</ele>
        <time>2022-01-13T09:27:53.000Z</time>
      </trkpt>
      <trkpt lat="47.82992" lon="7.02904">
        <ele>972.8</ele>
        <time>2022-01-13T09:28:03.000Z</time>
      </trkpt>
      <trkpt lat="47.82985" lon="7.0291">
        <ele>974.3</ele>
        <time>2022-01-13T09:28:13.000Z</time>
      </trkpt>
      <trkpt lat="47.8298" lon="7.02909">
        <ele>976.2</ele>
        <time>2022-01-13T09:28:22.578Z</time>
      </trkpt>
      <trkpt lat="47.8298" lon="7.029">
        <ele>977.5</ele>
        <time>2022-01-13T09:28:31.596Z</time>
      </trkpt>
      <trkpt lat="47.82982" lon="7.0289">
        <ele>978.4</ele>
        <time>2022-01-13T09:28:41.000Z</time>
      </trkpt>
      <trkpt lat="47.82985" lon="7.02878">
        <ele>978.6</ele>
        <time>2022-01-13T09:28:50.877Z</time>
      </trkpt>
      <trkpt lat="47.82986" lon="7.02869">
        <ele>979.4</ele>
        <time>2022-01-13T09:29:00.000Z</time>
      </trkpt>
      <trkpt lat="47.82989" lon="7.0286">
        <ele>979.8</ele>
        <time>2022-01-13T09:29:10.000Z</time>
      </trkpt>
      <trkpt lat="47.82987" lon="7.02857">
        <ele>980.5</ele>
        <time>2022-01-13T09:29:19.653Z</time>
      </trkpt>
      <trkpt lat="47.82984" lon="7.02847">
        <ele>982.6</ele>
        <time>2022-01-13T09:29:30.000Z</time>
      </trkpt>
      <trkpt lat="47.82984" lon="7.02833">
        <ele>983.8</ele>
        <time>2022-01-13T09:29:40.000Z</time>
      </trkpt>
      <trkpt lat="47.82978" lon="7.02836">
        <ele>985.7</ele>
        <time>2022-01-13T09:29:50.000Z</time>
      </trkpt>
      <trkpt lat="47.82973" lon="7.02846">
        <ele>986.5</ele>
        <time>2022-01-13T09:29:59.556Z</time>
      </trkpt>
      <trkpt lat="47.82968" lon="7.02857">
        <ele>986.4</ele>
        <time>2022-01-13T09:30:09.116Z</time>
      </trkpt>
      <trkpt lat="47.82964" lon="7.02861">
        <ele>986.7</ele>
        <time>2022-01-13T09:30:19.000Z</time>
      </trkpt>
      <trkpt lat="47.82965" lon="7.02856">
        <ele>987.2</ele>
        <time>2022-01-13T09:30:29.000Z</time>
      </trkpt>
      <trkpt lat="47.82961" lon="7.02839">
        <ele>990.2</ele>
        <time>2022-01-13T09:30:39.000Z</time>
      </trkpt>
      <trkpt lat="47.82958" lon="7.02829">
        <ele>991.8</ele>
        <time>2022-01-13T09:30:48.613Z</time>
      </trkpt>
      <trkpt lat="47.82958" lon="7.02819">
        <ele>992.9</ele>
        <time>2022-01-13T09:30:58.000Z</time>
      </trkpt>
      <trkpt lat="47.82955" lon="7.02821">
        <ele>993.6</ele>
        <time>2022-01-13T09:31:08.000Z</time>
      </trkpt>
      <trkpt lat="47.82949" lon="7.02823">
        <ele>995</ele>
        <time>2022-01-13T09:31:18.000Z</time>
      </trkpt>
      <trkpt lat="47.82945" lon="7.02821">
        <ele>996</ele>
        <time>2022-01-13T09:31:27.832Z</time>
      </trkpt>
      <trkpt lat="47.82947" lon="7.02811">
        <ele>996.7</ele>
        <time>2022-01-13T09:31:37.000Z</time>
      </trkpt>
      <trkpt lat="47.82953" lon="7.028">
        <ele>995.9</ele>
        <time>2022-01-13T09:31:46.195Z</time>
      </trkpt>
      <trkpt lat="47.82958" lon="7.02789">
        <ele>995.2</ele>
        <time>2022-01-13T09:31:55.354Z</time>
      </trkpt>
      <trkpt lat="47.82962" lon="7.02781">
        <ele>994.4</ele>
        <time>2022-01-13T09:32:04.556Z</time>
      </trkpt>
      <trkpt lat="47.82965" lon="7.02769">
        <ele>994.3</ele>
        <time>2022-01-13T09:32:13.634Z</time>
      </trkpt>
      <trkpt lat="47.8297" lon="7.02756">
        <ele>993.4</ele>
        <time>2022-01-13T09:32:23.554Z</time>
      </trkpt>
      <trkpt lat="47.82969" lon="7.02745">
        <ele>994.4</ele>
        <time>2022-01-13T09:32:34.000Z</time>
      </trkpt>
      <trkpt lat="47.8297" lon="7.02731">
        <ele>995.1</ele>
        <time>2022-01-13T09:32:43.592Z</time>
      </trkpt>
      <trkpt lat="47.82971" lon="7.02726">
        <ele>995.2</ele>
        <time>2022-01-13T09:32:52.738Z</time>
      </trkpt>
      <trkpt lat="47.82978" lon="7.02714">
        <ele>993.3</ele>
        <time>2022-01-13T09:33:02.000Z</time>
      </trkpt>
      <trkpt lat="47.82988" lon="7.02701">
        <ele>989.4</ele>
        <time>2022-01-13T09:33:12.000Z</time>
      </trkpt>
      <trkpt lat="47.82992" lon="7.02685">
        <ele>988.9</ele>
        <time>2022-01-13T09:33:21.942Z</time>
      </trkpt>
      <trkpt lat="47.82994" lon="7.02671">
        <ele>989.3</ele>
        <time>2022-01-13T09:33:31.000Z</time>
      </trkpt>
      <trkpt lat="47.82997" lon="7.0266">
        <ele>989.2</ele>
        <time>2022-01-13T09:33:41.000Z</time>
      </trkpt>
      <trkpt lat="47.82997" lon="7.02656">
        <ele>989.4</ele>
        <time>2022-01-13T09:33:51.000Z</time>
      </trkpt>
      <trkpt lat="47.83" lon="7.02641">
        <ele>989.8</ele>
        <time>2022-01-13T09:34:01.000Z</time>
      </trkpt>
      <trkpt lat="47.83002" lon="7.02629">
        <ele>990</ele>
        <time>2022-01-13T09:34:11.000Z</time>
      </trkpt>
      <trkpt lat="47.83004" lon="7.02617">
        <ele>990</ele>
        <time>2022-01-13T09:34:21.000Z</time>
      </trkpt>
      <trkpt lat="47.83007" lon="7.02605">
        <ele>990.3</ele>
        <time>2022-01-13T09:34:31.000Z</time>
      </trkpt>
      <trkpt lat="47.83007" lon="7.02595">
        <ele>991.2</ele>
        <time>2022-01-13T09:34:41.000Z</time>
      </trkpt>
      <trkpt lat="47.83008" lon="7.02593">
        <ele>991.1</ele>
        <time>2022-01-13T09:34:51.000Z</time>
      </trkpt>
      <trkpt lat="47.83012" lon="7.02586">
        <ele>990.2</ele>
        <time>2022-01-13T09:35:01.000Z</time>
      </trkpt>
      <trkpt lat="47.83018" lon="7.02579">
        <ele>988</ele>
        <time>2022-01-13T09:35:11.000Z</time>
      </trkpt>
      <trkpt lat="47.83021" lon="7.02567">
        <ele>988.4</ele>
        <time>2022-01-13T09:35:21.000Z</time>
      </trkpt>
      <trkpt lat="47.8302" lon="7.02557">
        <ele>990</ele>
        <time>2022-01-13T09:35:31.000Z</time>
      </trkpt>
      <trkpt lat="47.8302" lon="7.02545">
        <ele>991.5</ele>
        <time>2022-01-13T09:35:40.716Z</time>
      </trkpt>
      <trkpt lat="47.83019" lon="7.02536">
        <ele>992.5</ele>
        <time>2022-01-13T09:35:50.000Z</time>
      </trkpt>
      <trkpt lat="47.83021" lon="7.02527">
        <ele>992.7</ele>
        <time>2022-01-13T09:36:00.000Z</time>
      </trkpt>
      <trkpt lat="47.83021" lon="7.02524">
        <ele>993.1</ele>
        <time>2022-01-13T09:36:09.835Z</time>
      </trkpt>
      <trkpt lat="47.83019" lon="7.02524">
        <ele>994.1</ele>
        <time>2022-01-13T09:36:19.000Z</time>
      </trkpt>
      <trkpt lat="47.83017" lon="7.02524">
        <ele>994.7</ele>
        <time>2022-01-13T09:36:28.655Z</time>
      </trkpt>
      <trkpt lat="47.83016" lon="7.02524">
        <ele>995</ele>
        <time>2022-01-13T09:37:06.212Z</time>
      </trkpt>
      <trkpt lat="47.83011" lon="7.02527">
        <ele>996.8</ele>
        <time>2022-01-13T09:37:15.458Z</time>
      </trkpt>
      <trkpt lat="47.83007" lon="7.02526">
        <ele>998.3</ele>
        <time>2022-01-13T09:37:25.000Z</time>
      </trkpt>
      <trkpt lat="47.83004" lon="7.0252">
        <ele>1000</ele>
        <time>2022-01-13T09:37:35.000Z</time>
      </trkpt>
      <trkpt lat="47.83001" lon="7.02514">
        <ele>1001.7</ele>
        <time>2022-01-13T09:37:44.514Z</time>
      </trkpt>
      <trkpt lat="47.82998" lon="7.02517">
        <ele>1002.6</ele>
        <time>2022-01-13T09:37:53.558Z</time>
      </trkpt>
      <trkpt lat="47.82994" lon="7.02517">
        <ele>1004.1</ele>
        <time>2022-01-13T09:38:03.000Z</time>
      </trkpt>
      <trkpt lat="47.82992" lon="7.02509">
        <ele>1005.7</ele>
        <time>2022-01-13T09:38:13.000Z</time>
      </trkpt>
      <trkpt lat="47.8299" lon="7.02509">
        <ele>1006.4</ele>
        <time>2022-01-13T09:38:23.000Z</time>
      </trkpt>
      <trkpt lat="47.82986" lon="7.02508">
        <ele>1008.2</ele>
        <time>2022-01-13T09:38:38.000Z</time>
      </trkpt>
      <trkpt lat="47.82979" lon="7.02509">
        <ele>1011.1</ele>
        <time>2022-01-13T09:38:48.000Z</time>
      </trkpt>
      <trkpt lat="47.82975" lon="7.02512">
        <ele>1012.4</ele>
        <time>2022-01-13T09:38:59.000Z</time>
      </trkpt>
      <trkpt lat="47.82969" lon="7.02517">
        <ele>1014.4</ele>
        <time>2022-01-13T09:39:09.000Z</time>
      </trkpt>
      <trkpt lat="47.82965" lon="7.02521">
        <ele>1015.5</ele>
        <time>2022-01-13T09:39:19.000Z</time>
      </trkpt>
      <trkpt lat="47.82961" lon="7.02521">
        <ele>1016.8</ele>
        <time>2022-01-13T09:39:29.000Z</time>
      </trkpt>
      <trkpt lat="47.82959" lon="7.02517">
        <ele>1017.8</ele>
        <time>2022-01-13T09:39:39.000Z</time>
      </trkpt>
      <trkpt lat="47.82955" lon="7.02516">
        <ele>1019.3</ele>
        <time>2022-01-13T09:39:48.693Z</time>
      </trkpt>
      <trkpt lat="47.8295" lon="7.02521">
        <ele>1020.5</ele>
        <time>2022-01-13T09:39:58.000Z</time>
      </trkpt>
      <trkpt lat="47.82947" lon="7.02522">
        <ele>1021.6</ele>
        <time>2022-01-13T09:40:08.000Z</time>
      </trkpt>
      <trkpt lat="47.82948" lon="7.02521">
        <ele>1021.4</ele>
        <time>2022-01-13T09:40:21.000Z</time>
      </trkpt>
      <trkpt lat="47.8295" lon="7.0252">
        <ele>1020.7</ele>
        <time>2022-01-13T09:40:31.000Z</time>
      </trkpt>
      <trkpt lat="47.8295" lon="7.02503">
        <ele>1021.7</ele>
        <time>2022-01-13T09:40:41.000Z</time>
      </trkpt>
      <trkpt lat="47.82954" lon="7.02483">
        <ele>1021.7</ele>
        <time>2022-01-13T09:40:50.052Z</time>
      </trkpt>
      <trkpt lat="47.82958" lon="7.02466">
        <ele>1020.8</ele>
        <time>2022-01-13T09:40:59.693Z</time>
      </trkpt>
      <trkpt lat="47.82961" lon="7.02454">
        <ele>1020</ele>
        <time>2022-01-13T09:41:08.876Z</time>
      </trkpt>
      <trkpt lat="47.82965" lon="7.02446">
        <ele>1018.9</ele>
        <time>2022-01-13T09:41:18.378Z</time>
      </trkpt>
      <trkpt lat="47.8297" lon="7.02437">
        <ele>1017.5</ele>
        <time>2022-01-13T09:41:28.000Z</time>
      </trkpt>
      <trkpt lat="47.82973" lon="7.02428">
        <ele>1017</ele>
        <time>2022-01-13T09:41:37.612Z</time>
      </trkpt>
      <trkpt lat="47.82974" lon="7.02419">
        <ele>1017.2</ele>
        <time>2022-01-13T09:41:47.000Z</time>
      </trkpt>
      <trkpt lat="47.82974" lon="7.02418">
        <ele>1017.4</ele>
        <time>2022-01-13T09:41:57.000Z</time>
      </trkpt>
      <trkpt lat="47.82979" lon="7.02403">
        <ele>1018.1</ele>
        <time>2022-01-13T09:42:07.000Z</time>
      </trkpt>
      <trkpt lat="47.8298" lon="7.02388">
        <ele>1020.1</ele>
        <time>2022-01-13T09:42:17.000Z</time>
      </trkpt>
      <trkpt lat="47.82981" lon="7.02379">
        <ele>1019.8</ele>
        <time>2022-01-13T09:42:27.000Z</time>
      </trkpt>
      <trkpt lat="47.82982" lon="7.02376">
        <ele>1019.6</ele>
        <time>2022-01-13T09:42:37.000Z</time>
      </trkpt>
      <trkpt lat="47.82982" lon="7.02372">
        <ele>1020</ele>
        <time>2022-01-13T09:42:47.000Z</time>
      </trkpt>
      <trkpt lat="47.82987" lon="7.02358">
        <ele>1018.4</ele>
        <time>2022-01-13T09:42:56.801Z</time>
      </trkpt>
      <trkpt lat="47.82992" lon="7.02348">
        <ele>1016.5</ele>
        <time>2022-01-13T09:43:06.000Z</time>
      </trkpt>
      <trkpt lat="47.82992" lon="7.02338">
        <ele>1016.4</ele>
        <time>2022-01-13T09:43:16.000Z</time>
      </trkpt>
      <trkpt lat="47.82993" lon="7.02326">
        <ele>1015.6</ele>
        <time>2022-01-13T09:43:25.315Z</time>
      </trkpt>
      <trkpt lat="47.82985" lon="7.02321">
        <ele>1015.9</ele>
        <time>2022-01-13T09:43:35.000Z</time>
      </trkpt>
      <trkpt lat="47.82983" lon="7.02319">
        <ele>1016</ele>
        <time>2022-01-13T09:43:45.000Z</time>
      </trkpt>
      <trkpt lat="47.8299" lon="7.02319">
        <ele>1015.4</ele>
        <time>2022-01-13T09:43:55.000Z</time>
      </trkpt>
      <trkpt lat="47.82998" lon="7.02314">
        <ele>1014.4</ele>
        <time>2022-01-13T09:44:04.533Z</time>
      </trkpt>
      <trkpt lat="47.83007" lon="7.02311">
        <ele>1011.9</ele>
        <time>2022-01-13T09:44:13.736Z</time>
      </trkpt>
      <trkpt lat="47.83008" lon="7.02302">
        <ele>1011</ele>
        <time>2022-01-13T09:44:24.000Z</time>
      </trkpt>
      <trkpt lat="47.83008" lon="7.02296">
        <ele>1010</ele>
        <time>2022-01-13T09:44:33.696Z</time>
      </trkpt>
      <trkpt lat="47.83008" lon="7.02285">
        <ele>1008.4</ele>
        <time>2022-01-13T09:44:43.000Z</time>
      </trkpt>
      <trkpt lat="47.83008" lon="7.02275">
        <ele>1007</ele>
        <time>2022-01-13T09:44:53.000Z</time>
      </trkpt>
      <trkpt lat="47.83006" lon="7.02272">
        <ele>1007.1</ele>
        <time>2022-01-13T09:45:03.000Z</time>
      </trkpt>
      <trkpt lat="47.83003" lon="7.02265">
        <ele>1006.7</ele>
        <time>2022-01-13T09:45:13.000Z</time>
      </trkpt>
      <trkpt lat="47.83002" lon="7.02262">
        <ele>1006.4</ele>
        <time>2022-01-13T09:45:23.000Z</time>
      </trkpt>
      <trkpt lat="47.83001" lon="7.02262">
        <ele>1006.8</ele>
        <time>2022-01-13T09:45:38.597Z</time>
      </trkpt>
      <trkpt lat="47.82998" lon="7.0226">
        <ele>1006.7</ele>
        <time>2022-01-13T09:45:48.000Z</time>
      </trkpt>
      <trkpt lat="47.82992" lon="7.02251">
        <ele>1003.9</ele>
        <time>2022-01-13T09:45:58.000Z</time>
      </trkpt>
      <trkpt lat="47.82989" lon="7.02248">
        <ele>1002.6</ele>
        <time>2022-01-13T09:46:08.000Z</time>
      </trkpt>
      <trkpt lat="47.8299" lon="7.02251">
        <ele>1003.8</ele>
        <time>2022-01-13T09:46:26.000Z</time>
      </trkpt>
      <trkpt lat="47.82992" lon="7.02258">
        <ele>1005.5</ele>
        <time>2022-01-13T09:46:36.000Z</time>
      </trkpt>
      <trkpt lat="47.82994" lon="7.02262">
        <ele>1006.5</ele>
        <time>2022-01-13T09:46:46.000Z</time>
      </trkpt>
      <trkpt lat="47.82996" lon="7.02248">
        <ele>1003.4</ele>
        <time>2022-01-13T09:46:55.838Z</time>
      </trkpt>
      <trkpt lat="47.83002" lon="7.02249">
        <ele>1003.8</ele>
        <time>2022-01-13T09:47:05.000Z</time>
      </trkpt>
      <trkpt lat="47.83002" lon="7.02253">
        <ele>1004.7</ele>
        <time>2022-01-13T09:47:15.000Z</time>
      </trkpt>
      <trkpt lat="47.83002" lon="7.02247">
        <ele>1003.1</ele>
        <time>2022-01-13T09:48:14.000Z</time>
      </trkpt>
      <trkpt lat="47.83001" lon="7.02241">
        <ele>1000.5</ele>
        <time>2022-01-13T09:48:24.000Z</time>
      </trkpt>
      <trkpt lat="47.83001" lon="7.02239">
        <ele>999.8</ele>
        <time>2022-01-13T09:48:39.000Z</time>
      </trkpt>
      <trkpt lat="47.82998" lon="7.02234">
        <ele>997.5</ele>
        <time>2022-01-13T09:48:49.000Z</time>
      </trkpt>
      <trkpt lat="47.83003" lon="7.0224">
        <ele>999.4</ele>
        <time>2022-01-13T09:48:59.000Z</time>
      </trkpt>
      <trkpt lat="47.83004" lon="7.0224">
        <ele>999.4</ele>
        <time>2022-01-13T09:49:09.000Z</time>
      </trkpt>
      <trkpt lat="47.83005" lon="7.02238">
        <ele>998.4</ele>
        <time>2022-01-13T09:50:44.000Z</time>
      </trkpt>
      <trkpt lat="47.83011" lon="7.02231">
        <ele>993.9</ele>
        <time>2022-01-13T09:50:54.000Z</time>
      </trkpt>
      <trkpt lat="47.83009" lon="7.02246">
        <ele>1000</ele>
        <time>2022-01-13T09:51:04.000Z</time>
      </trkpt>
      <trkpt lat="47.83005" lon="7.02244">
        <ele>1000.5</ele>
        <time>2022-01-13T09:51:26.000Z</time>
      </trkpt>
      <trkpt lat="47.83" lon="7.02242">
        <ele>1001.3</ele>
        <time>2022-01-13T09:51:36.000Z</time>
      </trkpt>
      <trkpt lat="47.82999" lon="7.02245">
        <ele>1002.5</ele>
        <time>2022-01-13T09:52:34.000Z</time>
      </trkpt>
      <trkpt lat="47.82999" lon="7.02249">
        <ele>1004.3</ele>
        <time>2022-01-13T09:52:44.000Z</time>
      </trkpt>
      <trkpt lat="47.82999" lon="7.02249">
        <ele>1004.4</ele>
        <time>2022-01-13T09:54:55.000Z</time>
      </trkpt>
      <trkpt lat="47.83" lon="7.02246">
        <ele>1002.9</ele>
        <time>2022-01-13T09:55:05.000Z</time>
      </trkpt>
      <trkpt lat="47.83002" lon="7.02246">
        <ele>1002.3</ele>
        <time>2022-01-13T09:56:00.000Z</time>
      </trkpt>
      <trkpt lat="47.83004" lon="7.02245">
        <ele>1001.3</ele>
        <time>2022-01-13T09:56:10.000Z</time>
      </trkpt>
      <trkpt lat="47.83003" lon="7.02246">
        <ele>1002.3</ele>
        <time>2022-01-13T09:57:10.000Z</time>
      </trkpt>
      <trkpt lat="47.83001" lon="7.02247">
        <ele>1003</ele>
        <time>2022-01-13T09:57:20.000Z</time>
      </trkpt>
      <trkpt lat="47.83002" lon="7.02247">
        <ele>1003</ele>
        <time>2022-01-13T09:57:43.000Z</time>
      </trkpt>
      <trkpt lat="47.83004" lon="7.02247">
        <ele>1002.1</ele>
        <time>2022-01-13T09:57:53.000Z</time>
      </trkpt>
      <trkpt lat="47.83006" lon="7.02254">
        <ele>1003.5</ele>
        <time>2022-01-13T09:58:03.000Z</time>
      </trkpt>
      <trkpt lat="47.83002" lon="7.02258">
        <ele>1005.6</ele>
        <time>2022-01-13T09:58:13.000Z</time>
      </trkpt>
      <trkpt lat="47.83001" lon="7.02259">
        <ele>1006.4</ele>
        <time>2022-01-13T09:58:31.000Z</time>
      </trkpt>
      <trkpt lat="47.82995" lon="7.02259">
        <ele>1006.1</ele>
        <time>2022-01-13T09:58:41.000Z</time>
      </trkpt>
      <trkpt lat="47.82996" lon="7.02261">
        <ele>1006.6</ele>
        <time>2022-01-13T09:58:50.757Z</time>
      </trkpt>
      <trkpt lat="47.82993" lon="7.02257">
        <ele>1005.5</ele>
        <time>2022-01-13T09:59:00.000Z</time>
      </trkpt>
      <trkpt lat="47.82983" lon="7.0224">
        <ele>998.9</ele>
        <time>2022-01-13T09:59:09.475Z</time>
      </trkpt>
      <trkpt lat="47.82978" lon="7.02229">
        <ele>995.1</ele>
        <time>2022-01-13T09:59:18.937Z</time>
      </trkpt>
      <trkpt lat="47.82977" lon="7.02218">
        <ele>991.7</ele>
        <time>2022-01-13T09:59:29.477Z</time>
      </trkpt>
      <trkpt lat="47.82972" lon="7.02212">
        <ele>990.4</ele>
        <time>2022-01-13T09:59:38.600Z</time>
      </trkpt>
      <trkpt lat="47.82959" lon="7.02211">
        <ele>990</ele>
        <time>2022-01-13T09:59:48.037Z</time>
      </trkpt>
      <trkpt lat="47.82947" lon="7.02213">
        <ele>990.1</ele>
        <time>2022-01-13T09:59:58.000Z</time>
      </trkpt>
      <trkpt lat="47.82945" lon="7.02214">
        <ele>990.2</ele>
        <time>2022-01-13T10:00:08.000Z</time>
      </trkpt>
      <trkpt lat="47.82943" lon="7.02212">
        <ele>989.9</ele>
        <time>2022-01-13T10:00:29.675Z</time>
      </trkpt>
      <trkpt lat="47.82922" lon="7.02206">
        <ele>988.2</ele>
        <time>2022-01-13T10:00:39.296Z</time>
      </trkpt>
      <trkpt lat="47.82909" lon="7.02201">
        <ele>987.6</ele>
        <time>2022-01-13T10:00:48.877Z</time>
      </trkpt>
      <trkpt lat="47.82901" lon="7.02199">
        <ele>987.9</ele>
        <time>2022-01-13T10:00:58.000Z</time>
      </trkpt>
      <trkpt lat="47.82893" lon="7.02189">
        <ele>986</ele>
        <time>2022-01-13T10:01:07.316Z</time>
      </trkpt>
      <trkpt lat="47.82884" lon="7.02187">
        <ele>986.2</ele>
        <time>2022-01-13T10:01:16.395Z</time>
      </trkpt>
      <trkpt lat="47.82876" lon="7.02184">
        <ele>986.3</ele>
        <time>2022-01-13T10:01:26.000Z</time>
      </trkpt>
      <trkpt lat="47.82869" lon="7.02185">
        <ele>987.7</ele>
        <time>2022-01-13T10:01:35.837Z</time>
      </trkpt>
      <trkpt lat="47.82859" lon="7.02181">
        <ele>988.4</ele>
        <time>2022-01-13T10:01:45.000Z</time>
      </trkpt>
      <trkpt lat="47.82846" lon="7.0217">
        <ele>988.3</ele>
        <time>2022-01-13T10:01:55.000Z</time>
      </trkpt>
      <trkpt lat="47.8284" lon="7.0216">
        <ele>987.4</ele>
        <time>2022-01-13T10:02:04.092Z</time>
      </trkpt>
      <trkpt lat="47.82836" lon="7.0214">
        <ele>984.3</ele>
        <time>2022-01-13T10:02:13.277Z</time>
      </trkpt>
      <trkpt lat="47.82832" lon="7.02131">
        <ele>985.2</ele>
        <time>2022-01-13T10:02:23.000Z</time>
      </trkpt>
      <trkpt lat="47.82828" lon="7.02121">
        <ele>985.9</ele>
        <time>2022-01-13T10:02:32.252Z</time>
      </trkpt>
      <trkpt lat="47.82828" lon="7.02107">
        <ele>984.9</ele>
        <time>2022-01-13T10:02:41.517Z</time>
      </trkpt>
      <trkpt lat="47.82828" lon="7.02095">
        <ele>984.7</ele>
        <time>2022-01-13T10:02:52.000Z</time>
      </trkpt>
      <trkpt lat="47.82828" lon="7.02088">
        <ele>984.6</ele>
        <time>2022-01-13T10:03:01.397Z</time>
      </trkpt>
      <trkpt lat="47.82824" lon="7.02079">
        <ele>986.2</ele>
        <time>2022-01-13T10:03:11.000Z</time>
      </trkpt>
      <trkpt lat="47.82822" lon="7.02073">
        <ele>987.1</ele>
        <time>2022-01-13T10:03:20.874Z</time>
      </trkpt>
      <trkpt lat="47.82821" lon="7.02064">
        <ele>987.3</ele>
        <time>2022-01-13T10:03:30.000Z</time>
      </trkpt>
      <trkpt lat="47.82816" lon="7.02064">
        <ele>989.3</ele>
        <time>2022-01-13T10:03:41.000Z</time>
      </trkpt>
      <trkpt lat="47.82815" lon="7.02064">
        <ele>989.7</ele>
        <time>2022-01-13T10:03:50.857Z</time>
      </trkpt>
      <trkpt lat="47.82813" lon="7.02061">
        <ele>990.4</ele>
        <time>2022-01-13T10:04:02.000Z</time>
      </trkpt>
      <trkpt lat="47.82811" lon="7.02057">
        <ele>991.1</ele>
        <time>2022-01-13T10:04:12.000Z</time>
      </trkpt>
      <trkpt lat="47.82814" lon="7.0205">
        <ele>989.1</ele>
        <time>2022-01-13T10:04:22.000Z</time>
      </trkpt>
      <trkpt lat="47.82819" lon="7.02047">
        <ele>986.9</ele>
        <time>2022-01-13T10:04:32.000Z</time>
      </trkpt>
      <trkpt lat="47.82824" lon="7.02038">
        <ele>984.5</ele>
        <time>2022-01-13T10:04:42.000Z</time>
      </trkpt>
      <trkpt lat="47.82824" lon="7.02031">
        <ele>983.8</ele>
        <time>2022-01-13T10:04:52.000Z</time>
      </trkpt>
      <trkpt lat="47.82823" lon="7.02025">
        <ele>983.9</ele>
        <time>2022-01-13T10:05:02.000Z</time>
      </trkpt>
      <trkpt lat="47.82823" lon="7.02022">
        <ele>983.5</ele>
        <time>2022-01-13T10:05:12.000Z</time>
      </trkpt>
      <trkpt lat="47.82824" lon="7.02009">
        <ele>982.3</ele>
        <time>2022-01-13T10:05:22.000Z</time>
      </trkpt>
      <trkpt lat="47.82824" lon="7.02001">
        <ele>981.4</ele>
        <time>2022-01-13T10:05:31.456Z</time>
      </trkpt>
      <trkpt lat="47.82825" lon="7.01998">
        <ele>980.7</ele>
        <time>2022-01-13T10:05:41.000Z</time>
      </trkpt>
      <trkpt lat="47.82824" lon="7.01993">
        <ele>980.8</ele>
        <time>2022-01-13T10:05:50.616Z</time>
      </trkpt>
      <trkpt lat="47.82822" lon="7.01987">
        <ele>981.2</ele>
        <time>2022-01-13T10:06:00.000Z</time>
      </trkpt>
      <trkpt lat="47.82826" lon="7.01975">
        <ele>978.8</ele>
        <time>2022-01-13T10:06:10.000Z</time>
      </trkpt>
      <trkpt lat="47.8283" lon="7.01971">
        <ele>977.2</ele>
        <time>2022-01-13T10:06:20.000Z</time>
      </trkpt>
      <trkpt lat="47.82829" lon="7.01959">
        <ele>976.6</ele>
        <time>2022-01-13T10:06:30.000Z</time>
      </trkpt>
      <trkpt lat="47.82827" lon="7.01953">
        <ele>976.5</ele>
        <time>2022-01-13T10:06:40.000Z</time>
      </trkpt>
      <trkpt lat="47.82829" lon="7.01946">
        <ele>975.3</ele>
        <time>2022-01-13T10:06:49.294Z</time>
      </trkpt>
      <trkpt lat="47.82829" lon="7.01931">
        <ele>974.2</ele>
        <time>2022-01-13T10:06:59.000Z</time>
      </trkpt>
      <trkpt lat="47.82831" lon="7.01921">
        <ele>972.9</ele>
        <time>2022-01-13T10:07:09.000Z</time>
      </trkpt>
      <trkpt lat="47.82831" lon="7.01913">
        <ele>972.6</ele>
        <time>2022-01-13T10:07:19.000Z</time>
      </trkpt>
      <trkpt lat="47.82827" lon="7.01903">
        <ele>973.2</ele>
        <time>2022-01-13T10:07:29.000Z</time>
      </trkpt>
      <trkpt lat="47.82824" lon="7.01886">
        <ele>973.2</ele>
        <time>2022-01-13T10:07:39.000Z</time>
      </trkpt>
      <trkpt lat="47.82824" lon="7.01868">
        <ele>972.6</ele>
        <time>2022-01-13T10:07:48.355Z</time>
      </trkpt>
      <trkpt lat="47.82826" lon="7.01859">
        <ele>971.8</ele>
        <time>2022-01-13T10:07:58.000Z</time>
      </trkpt>
      <trkpt lat="47.82826" lon="7.01856">
        <ele>971.8</ele>
        <time>2022-01-13T10:08:07.695Z</time>
      </trkpt>
      <trkpt lat="47.82827" lon="7.01846">
        <ele>971.5</ele>
        <time>2022-01-13T10:08:17.000Z</time>
      </trkpt>
      <trkpt lat="47.82827" lon="7.01836">
        <ele>971.6</ele>
        <time>2022-01-13T10:08:26.155Z</time>
      </trkpt>
      <trkpt lat="47.82824" lon="7.0182">
        <ele>970.9</ele>
        <time>2022-01-13T10:08:35.674Z</time>
      </trkpt>
      <trkpt lat="47.82822" lon="7.01816">
        <ele>970.9</ele>
        <time>2022-01-13T10:08:45.000Z</time>
      </trkpt>
      <trkpt lat="47.82823" lon="7.01818">
        <ele>971.1</ele>
        <time>2022-01-13T10:08:54.840Z</time>
      </trkpt>
      <trkpt lat="47.82824" lon="7.01849">
        <ele>972.4</ele>
        <time>2022-01-13T10:09:04.000Z</time>
      </trkpt>
      <trkpt lat="47.82815" lon="7.01812">
        <ele>972.3</ele>
        <time>2022-01-13T10:09:14.000Z</time>
      </trkpt>
      <trkpt lat="47.82817" lon="7.0181">
        <ele>971.5</ele>
        <time>2022-01-13T10:09:24.000Z</time>
      </trkpt>
      <trkpt lat="47.82821" lon="7.01803">
        <ele>970.4</ele>
        <time>2022-01-13T10:09:57.000Z</time>
      </trkpt>
      <trkpt lat="47.82825" lon="7.01796">
        <ele>970.5</ele>
        <time>2022-01-13T10:10:07.000Z</time>
      </trkpt>
      <trkpt lat="47.82825" lon="7.01794">
        <ele>970.6</ele>
        <time>2022-01-13T10:10:22.000Z</time>
      </trkpt>
      <trkpt lat="47.82831" lon="7.01784">
        <ele>970.6</ele>
        <time>2022-01-13T10:10:32.000Z</time>
      </trkpt>
      <trkpt lat="47.8284" lon="7.01774">
        <ele>969.3</ele>
        <time>2022-01-13T10:10:42.000Z</time>
      </trkpt>
      <trkpt lat="47.82843" lon="7.01772">
        <ele>968.8</ele>
        <time>2022-01-13T10:10:51.793Z</time>
      </trkpt>
      <trkpt lat="47.82849" lon="7.01762">
        <ele>967.3</ele>
        <time>2022-01-13T10:11:01.000Z</time>
      </trkpt>
      <trkpt lat="47.8285" lon="7.01761">
        <ele>967.1</ele>
        <time>2022-01-13T10:11:25.000Z</time>
      </trkpt>
      <trkpt lat="47.82851" lon="7.01755">
        <ele>966.8</ele>
        <time>2022-01-13T10:11:35.000Z</time>
      </trkpt>
      <trkpt lat="47.82852" lon="7.01753">
        <ele>966.5</ele>
        <time>2022-01-13T10:11:45.000Z</time>
      </trkpt>
      <trkpt lat="47.82856" lon="7.01747">
        <ele>965.4</ele>
        <time>2022-01-13T10:11:54.495Z</time>
      </trkpt>
      <trkpt lat="47.82856" lon="7.01745">
        <ele>965.2</ele>
        <time>2022-01-13T10:12:03.554Z</time>
      </trkpt>
      <trkpt lat="47.82861" lon="7.01729">
        <ele>963.4</ele>
        <time>2022-01-13T10:12:13.496Z</time>
      </trkpt>
      <trkpt lat="47.82864" lon="7.01711">
        <ele>961.6</ele>
        <time>2022-01-13T10:12:22.575Z</time>
      </trkpt>
      <trkpt lat="47.82864" lon="7.01694">
        <ele>960.8</ele>
        <time>2022-01-13T10:12:32.000Z</time>
      </trkpt>
      <trkpt lat="47.82864" lon="7.0168">
        <ele>959.5</ele>
        <time>2022-01-13T10:12:41.391Z</time>
      </trkpt>
      <trkpt lat="47.82862" lon="7.01665">
        <ele>958.6</ele>
        <time>2022-01-13T10:12:50.831Z</time>
      </trkpt>
      <trkpt lat="47.82861" lon="7.01657">
        <ele>957.6</ele>
        <time>2022-01-13T10:13:00.000Z</time>
      </trkpt>
      <trkpt lat="47.82859" lon="7.01641">
        <ele>955.7</ele>
        <time>2022-01-13T10:13:10.000Z</time>
      </trkpt>
      <trkpt lat="47.82858" lon="7.01623">
        <ele>954.6</ele>
        <time>2022-01-13T10:13:19.752Z</time>
      </trkpt>
      <trkpt lat="47.82858" lon="7.01615">
        <ele>954</ele>
        <time>2022-01-13T10:13:29.000Z</time>
      </trkpt>
      <trkpt lat="47.82859" lon="7.01604">
        <ele>954.1</ele>
        <time>2022-01-13T10:13:39.000Z</time>
      </trkpt>
      <trkpt lat="47.8286" lon="7.01601">
        <ele>954.1</ele>
        <time>2022-01-13T10:13:53.000Z</time>
      </trkpt>
      <trkpt lat="47.82862" lon="7.01589">
        <ele>954.5</ele>
        <time>2022-01-13T10:14:02.752Z</time>
      </trkpt>
      <trkpt lat="47.82874" lon="7.01586">
        <ele>952.4</ele>
        <time>2022-01-13T10:14:11.934Z</time>
      </trkpt>
      <trkpt lat="47.82875" lon="7.01585">
        <ele>952.3</ele>
        <time>2022-01-13T10:14:21.000Z</time>
      </trkpt>
      <trkpt lat="47.82881" lon="7.01578">
        <ele>951.9</ele>
        <time>2022-01-13T10:14:30.793Z</time>
      </trkpt>
      <trkpt lat="47.82882" lon="7.01593">
        <ele>950.1</ele>
        <time>2022-01-13T10:14:40.000Z</time>
      </trkpt>
      <trkpt lat="47.82885" lon="7.01596">
        <ele>949</ele>
        <time>2022-01-13T10:14:49.452Z</time>
      </trkpt>
      <trkpt lat="47.82895" lon="7.01583">
        <ele>948.2</ele>
        <time>2022-01-13T10:14:58.836Z</time>
      </trkpt>
      <trkpt lat="47.829" lon="7.0157">
        <ele>947.8</ele>
        <time>2022-01-13T10:15:08.094Z</time>
      </trkpt>
      <trkpt lat="47.82902" lon="7.0156">
        <ele>948.2</ele>
        <time>2022-01-13T10:15:18.512Z</time>
      </trkpt>
      <trkpt lat="47.8291" lon="7.01541">
        <ele>946.8</ele>
        <time>2022-01-13T10:15:28.637Z</time>
      </trkpt>
      <trkpt lat="47.82917" lon="7.01529">
        <ele>944.8</ele>
        <time>2022-01-13T10:15:37.773Z</time>
      </trkpt>
      <trkpt lat="47.82926" lon="7.01518">
        <ele>943.6</ele>
        <time>2022-01-13T10:15:47.000Z</time>
      </trkpt>
      <trkpt lat="47.82927" lon="7.01514">
        <ele>943.7</ele>
        <time>2022-01-13T10:15:57.811Z</time>
      </trkpt>
      <trkpt lat="47.8293" lon="7.01498">
        <ele>944.6</ele>
        <time>2022-01-13T10:16:07.512Z</time>
      </trkpt>
      <trkpt lat="47.82926" lon="7.01493">
        <ele>946.2</ele>
        <time>2022-01-13T10:16:17.000Z</time>
      </trkpt>
      <trkpt lat="47.82931" lon="7.01494">
        <ele>944.6</ele>
        <time>2022-01-13T10:16:26.472Z</time>
      </trkpt>
      <trkpt lat="47.82932" lon="7.01491">
        <ele>944.8</ele>
        <time>2022-01-13T10:16:37.694Z</time>
      </trkpt>
      <trkpt lat="47.82936" lon="7.01476">
        <ele>945.7</ele>
        <time>2022-01-13T10:16:48.000Z</time>
      </trkpt>
      <trkpt lat="47.8294" lon="7.01468">
        <ele>945.6</ele>
        <time>2022-01-13T10:16:57.376Z</time>
      </trkpt>
      <trkpt lat="47.82947" lon="7.0146">
        <ele>944.8</ele>
        <time>2022-01-13T10:17:06.814Z</time>
      </trkpt>
      <trkpt lat="47.82948" lon="7.01459">
        <ele>944.8</ele>
        <time>2022-01-13T10:17:16.000Z</time>
      </trkpt>
      <trkpt lat="47.8295" lon="7.01447">
        <ele>946</ele>
        <time>2022-01-13T10:17:26.000Z</time>
      </trkpt>
      <trkpt lat="47.8295" lon="7.0143">
        <ele>948.4</ele>
        <time>2022-01-13T10:17:36.000Z</time>
      </trkpt>
      <trkpt lat="47.82951" lon="7.01427">
        <ele>948.8</ele>
        <time>2022-01-13T10:17:45.671Z</time>
      </trkpt>
      <trkpt lat="47.82951" lon="7.01426">
        <ele>949</ele>
        <time>2022-01-13T10:17:57.534Z</time>
      </trkpt>
      <trkpt lat="47.82952" lon="7.01415">
        <ele>950.7</ele>
        <time>2022-01-13T10:18:07.000Z</time>
      </trkpt>
      <trkpt lat="47.82955" lon="7.01402">
        <ele>952.6</ele>
        <time>2022-01-13T10:18:17.000Z</time>
      </trkpt>
      <trkpt lat="47.82956" lon="7.01401">
        <ele>952.7</ele>
        <time>2022-01-13T10:18:28.796Z</time>
      </trkpt>
      <trkpt lat="47.82967" lon="7.01402">
        <ele>951.9</ele>
        <time>2022-01-13T10:18:38.254Z</time>
      </trkpt>
      <trkpt lat="47.82973" lon="7.0139">
        <ele>953.6</ele>
        <time>2022-01-13T10:18:47.694Z</time>
      </trkpt>
      <trkpt lat="47.82973" lon="7.01387">
        <ele>954</ele>
        <time>2022-01-13T10:18:57.000Z</time>
      </trkpt>
      <trkpt lat="47.82966" lon="7.01377">
        <ele>956.4</ele>
        <time>2022-01-13T10:19:06.735Z</time>
      </trkpt>
      <trkpt lat="47.82957" lon="7.01379">
        <ele>956.4</ele>
        <time>2022-01-13T10:19:16.000Z</time>
      </trkpt>
      <trkpt lat="47.82955" lon="7.01377">
        <ele>956.7</ele>
        <time>2022-01-13T10:19:26.000Z</time>
      </trkpt>
      <trkpt lat="47.82951" lon="7.0137">
        <ele>958.2</ele>
        <time>2022-01-13T10:19:36.000Z</time>
      </trkpt>
      <trkpt lat="47.82948" lon="7.01363">
        <ele>959.5</ele>
        <time>2022-01-13T10:19:46.000Z</time>
      </trkpt>
      <trkpt lat="47.82947" lon="7.01361">
        <ele>960</ele>
        <time>2022-01-13T10:19:56.000Z</time>
      </trkpt>
      <trkpt lat="47.8294" lon="7.01352">
        <ele>962.8</ele>
        <time>2022-01-13T10:20:05.655Z</time>
      </trkpt>
      <trkpt lat="47.82936" lon="7.01338">
        <ele>966.2</ele>
        <time>2022-01-13T10:20:15.000Z</time>
      </trkpt>
      <trkpt lat="47.82936" lon="7.01337">
        <ele>966.4</ele>
        <time>2022-01-13T10:20:25.000Z</time>
      </trkpt>
      <trkpt lat="47.82943" lon="7.01325">
        <ele>967.8</ele>
        <time>2022-01-13T10:20:35.000Z</time>
      </trkpt>
      <trkpt lat="47.82953" lon="7.01323">
        <ele>967.6</ele>
        <time>2022-01-13T10:20:46.000Z</time>
      </trkpt>
      <trkpt lat="47.82956" lon="7.01323">
        <ele>967.5</ele>
        <time>2022-01-13T10:20:56.000Z</time>
      </trkpt>
      <trkpt lat="47.82959" lon="7.01322">
        <ele>967.5</ele>
        <time>2022-01-13T10:21:09.000Z</time>
      </trkpt>
      <trkpt lat="47.82967" lon="7.01321">
        <ele>967.4</ele>
        <time>2022-01-13T10:21:19.000Z</time>
      </trkpt>
      <trkpt lat="47.82969" lon="7.01318">
        <ele>967.9</ele>
        <time>2022-01-13T10:21:48.000Z</time>
      </trkpt>
      <trkpt lat="47.82984" lon="7.01308">
        <ele>969.4</ele>
        <time>2022-01-13T10:21:58.000Z</time>
      </trkpt>
      <trkpt lat="47.82994" lon="7.01297">
        <ele>971.9</ele>
        <time>2022-01-13T10:22:07.615Z</time>
      </trkpt>
      <trkpt lat="47.83001" lon="7.01293">
        <ele>973</ele>
        <time>2022-01-13T10:22:17.000Z</time>
      </trkpt>
      <trkpt lat="47.83002" lon="7.01294">
        <ele>973</ele>
        <time>2022-01-13T10:22:27.000Z</time>
      </trkpt>
      <trkpt lat="47.83011" lon="7.01304">
        <ele>973.2</ele>
        <time>2022-01-13T10:22:36.655Z</time>
      </trkpt>
      <trkpt lat="47.83026" lon="7.01313">
        <ele>974.7</ele>
        <time>2022-01-13T10:22:46.000Z</time>
      </trkpt>
      <trkpt lat="47.83031" lon="7.01315">
        <ele>975.3</ele>
        <time>2022-01-13T10:22:56.000Z</time>
      </trkpt>
      <trkpt lat="47.8304" lon="7.01317">
        <ele>976.3</ele>
        <time>2022-01-13T10:23:06.000Z</time>
      </trkpt>
      <trkpt lat="47.83052" lon="7.01316">
        <ele>978.7</ele>
        <time>2022-01-13T10:23:15.691Z</time>
      </trkpt>
      <trkpt lat="47.83067" lon="7.01303">
        <ele>982</ele>
        <time>2022-01-13T10:23:25.000Z</time>
      </trkpt>
      <trkpt lat="47.83075" lon="7.01298">
        <ele>983.4</ele>
        <time>2022-01-13T10:23:36.000Z</time>
      </trkpt>
      <trkpt lat="47.83088" lon="7.01298">
        <ele>984.8</ele>
        <time>2022-01-13T10:23:45.633Z</time>
      </trkpt>
      <trkpt lat="47.8309" lon="7.01298">
        <ele>985.2</ele>
        <time>2022-01-13T10:23:55.000Z</time>
      </trkpt>
      <trkpt lat="47.83101" lon="7.01298">
        <ele>987.2</ele>
        <time>2022-01-13T10:24:05.000Z</time>
      </trkpt>
      <trkpt lat="47.83113" lon="7.01302">
        <ele>988.4</ele>
        <time>2022-01-13T10:24:14.474Z</time>
      </trkpt>
      <trkpt lat="47.83123" lon="7.01308">
        <ele>989.5</ele>
        <time>2022-01-13T10:24:23.771Z</time>
      </trkpt>
      <trkpt lat="47.83133" lon="7.01312">
        <ele>990.8</ele>
        <time>2022-01-13T10:24:32.815Z</time>
      </trkpt>
      <trkpt lat="47.83138" lon="7.01314">
        <ele>991.5</ele>
        <time>2022-01-13T10:24:42.000Z</time>
      </trkpt>
      <trkpt lat="47.83151" lon="7.01317">
        <ele>993.3</ele>
        <time>2022-01-13T10:24:52.000Z</time>
      </trkpt>
      <trkpt lat="47.83162" lon="7.01318">
        <ele>995</ele>
        <time>2022-01-13T10:25:02.000Z</time>
      </trkpt>
      <trkpt lat="47.8317" lon="7.01317">
        <ele>996.2</ele>
        <time>2022-01-13T10:25:12.000Z</time>
      </trkpt>
      <trkpt lat="47.83182" lon="7.01315">
        <ele>998</ele>
        <time>2022-01-13T10:25:21.891Z</time>
      </trkpt>
      <trkpt lat="47.83193" lon="7.01312">
        <ele>999.6</ele>
        <time>2022-01-13T10:25:31.000Z</time>
      </trkpt>
      <trkpt lat="47.83202" lon="7.0131">
        <ele>1001</ele>
        <time>2022-01-13T10:25:41.000Z</time>
      </trkpt>
      <trkpt lat="47.83212" lon="7.01303">
        <ele>1003.3</ele>
        <time>2022-01-13T10:25:51.000Z</time>
      </trkpt>
      <trkpt lat="47.8322" lon="7.01299">
        <ele>1004.8</ele>
        <time>2022-01-13T10:26:01.000Z</time>
      </trkpt>
      <trkpt lat="47.83224" lon="7.01297">
        <ele>1005.4</ele>
        <time>2022-01-13T10:26:10.695Z</time>
      </trkpt>
      <trkpt lat="47.83236" lon="7.01292">
        <ele>1006.9</ele>
        <time>2022-01-13T10:26:20.000Z</time>
      </trkpt>
      <trkpt lat="47.83245" lon="7.0129">
        <ele>1007.8</ele>
        <time>2022-01-13T10:26:30.000Z</time>
      </trkpt>
      <trkpt lat="47.83247" lon="7.01288">
        <ele>1008.2</ele>
        <time>2022-01-13T10:27:39.374Z</time>
      </trkpt>
      <trkpt lat="47.83252" lon="7.01276">
        <ele>1010.5</ele>
        <time>2022-01-13T10:27:49.000Z</time>
      </trkpt>
      <trkpt lat="47.83253" lon="7.01273">
        <ele>1011.1</ele>
        <time>2022-01-13T10:28:05.414Z</time>
      </trkpt>
      <trkpt lat="47.83254" lon="7.0126">
        <ele>1013</ele>
        <time>2022-01-13T10:28:15.000Z</time>
      </trkpt>
      <trkpt lat="47.83256" lon="7.0125">
        <ele>1014.7</ele>
        <time>2022-01-13T10:28:24.395Z</time>
      </trkpt>
      <trkpt lat="47.83257" lon="7.01245">
        <ele>1015.5</ele>
        <time>2022-01-13T10:28:34.000Z</time>
      </trkpt>
      <trkpt lat="47.83256" lon="7.01239">
        <ele>1016.2</ele>
        <time>2022-01-13T10:29:25.000Z</time>
      </trkpt>
      <trkpt lat="47.83255" lon="7.01228">
        <ele>1017.7</ele>
        <time>2022-01-13T10:29:35.000Z</time>
      </trkpt>
      <trkpt lat="47.83255" lon="7.01225">
        <ele>1018.1</ele>
        <time>2022-01-13T10:29:47.000Z</time>
      </trkpt>
      <trkpt lat="47.83251" lon="7.01213">
        <ele>1019.1</ele>
        <time>2022-01-13T10:29:56.873Z</time>
      </trkpt>
      <trkpt lat="47.83246" lon="7.01202">
        <ele>1019.9</ele>
        <time>2022-01-13T10:30:06.000Z</time>
      </trkpt>
      <trkpt lat="47.83245" lon="7.012">
        <ele>1020.1</ele>
        <time>2022-01-13T10:30:16.000Z</time>
      </trkpt>
      <trkpt lat="47.83246" lon="7.01196">
        <ele>1020.5</ele>
        <time>2022-01-13T10:30:29.000Z</time>
      </trkpt>
      <trkpt lat="47.83244" lon="7.01184">
        <ele>1022.9</ele>
        <time>2022-01-13T10:30:39.000Z</time>
      </trkpt>
      <trkpt lat="47.83244" lon="7.01181">
        <ele>1023.6</ele>
        <time>2022-01-13T10:30:54.774Z</time>
      </trkpt>
      <trkpt lat="47.83243" lon="7.01169">
        <ele>1026.1</ele>
        <time>2022-01-13T10:31:04.000Z</time>
      </trkpt>
      <trkpt lat="47.83242" lon="7.01166">
        <ele>1026.6</ele>
        <time>2022-01-13T10:31:41.593Z</time>
      </trkpt>
      <trkpt lat="47.83238" lon="7.01154">
        <ele>1028.6</ele>
        <time>2022-01-13T10:31:51.000Z</time>
      </trkpt>
      <trkpt lat="47.83237" lon="7.01152">
        <ele>1029</ele>
        <time>2022-01-13T10:32:04.000Z</time>
      </trkpt>
      <trkpt lat="47.83233" lon="7.01145">
        <ele>1030</ele>
        <time>2022-01-13T10:32:14.000Z</time>
      </trkpt>
      <trkpt lat="47.83233" lon="7.01143">
        <ele>1030.3</ele>
        <time>2022-01-13T10:34:07.000Z</time>
      </trkpt>
      <trkpt lat="47.83229" lon="7.01131">
        <ele>1032.5</ele>
        <time>2022-01-13T10:34:16.631Z</time>
      </trkpt>
      <trkpt lat="47.83228" lon="7.0113">
        <ele>1032.6</ele>
        <time>2022-01-13T10:34:28.000Z</time>
      </trkpt>
      <trkpt lat="47.83222" lon="7.01118">
        <ele>1034.4</ele>
        <time>2022-01-13T10:34:38.000Z</time>
      </trkpt>
      <trkpt lat="47.83222" lon="7.01117">
        <ele>1034.8</ele>
        <time>2022-01-13T10:35:04.000Z</time>
      </trkpt>
      <trkpt lat="47.83219" lon="7.01104">
        <ele>1038.1</ele>
        <time>2022-01-13T10:35:14.000Z</time>
      </trkpt>
      <trkpt lat="47.83218" lon="7.01101">
        <ele>1038.9</ele>
        <time>2022-01-13T10:35:41.000Z</time>
      </trkpt>
      <trkpt lat="47.83217" lon="7.01089">
        <ele>1042.5</ele>
        <time>2022-01-13T10:35:50.792Z</time>
      </trkpt>
      <trkpt lat="47.83218" lon="7.01086">
        <ele>1043.5</ele>
        <time>2022-01-13T10:36:12.000Z</time>
      </trkpt>
      <trkpt lat="47.83219" lon="7.01075">
        <ele>1046.6</ele>
        <time>2022-01-13T10:36:22.000Z</time>
      </trkpt>
      <trkpt lat="47.83218" lon="7.01073">
        <ele>1047.1</ele>
        <time>2022-01-13T10:36:42.000Z</time>
      </trkpt>
      <trkpt lat="47.83214" lon="7.01062">
        <ele>1049.4</ele>
        <time>2022-01-13T10:36:51.395Z</time>
      </trkpt>
      <trkpt lat="47.83213" lon="7.0106">
        <ele>1049.8</ele>
        <time>2022-01-13T10:37:11.000Z</time>
      </trkpt>
      <trkpt lat="47.83208" lon="7.01051">
        <ele>1051.6</ele>
        <time>2022-01-13T10:37:21.000Z</time>
      </trkpt>
      <trkpt lat="47.83208" lon="7.01048">
        <ele>1052.1</ele>
        <time>2022-01-13T10:37:34.711Z</time>
      </trkpt>
      <trkpt lat="47.83204" lon="7.01035">
        <ele>1054.8</ele>
        <time>2022-01-13T10:37:44.000Z</time>
      </trkpt>
      <trkpt lat="47.83204" lon="7.01033">
        <ele>1055.3</ele>
        <time>2022-01-13T10:37:55.000Z</time>
      </trkpt>
      <trkpt lat="47.83203" lon="7.0102">
        <ele>1058.4</ele>
        <time>2022-01-13T10:38:04.812Z</time>
      </trkpt>
      <trkpt lat="47.83204" lon="7.01018">
        <ele>1058.9</ele>
        <time>2022-01-13T10:38:14.000Z</time>
      </trkpt>
      <trkpt lat="47.83204" lon="7.0101">
        <ele>1061.1</ele>
        <time>2022-01-13T10:38:24.000Z</time>
      </trkpt>
      <trkpt lat="47.83205" lon="7.01003">
        <ele>1063</ele>
        <time>2022-01-13T10:38:34.000Z</time>
      </trkpt>
      <trkpt lat="47.83206" lon="7.00998">
        <ele>1064.7</ele>
        <time>2022-01-13T10:38:46.000Z</time>
      </trkpt>
      <trkpt lat="47.83209" lon="7.00988">
        <ele>1067.6</ele>
        <time>2022-01-13T10:38:56.000Z</time>
      </trkpt>
      <trkpt lat="47.8321" lon="7.00985">
        <ele>1068.5</ele>
        <time>2022-01-13T10:39:18.734Z</time>
      </trkpt>
      <trkpt lat="47.83212" lon="7.00972">
        <ele>1072.1</ele>
        <time>2022-01-13T10:39:28.000Z</time>
      </trkpt>
      <trkpt lat="47.83213" lon="7.0097">
        <ele>1072.9</ele>
        <time>2022-01-13T10:39:59.000Z</time>
      </trkpt>
      <trkpt lat="47.83218" lon="7.00956">
        <ele>1077.2</ele>
        <time>2022-01-13T10:40:09.000Z</time>
      </trkpt>
      <trkpt lat="47.8322" lon="7.00955">
        <ele>1077.9</ele>
        <time>2022-01-13T10:40:19.000Z</time>
      </trkpt>
      <trkpt lat="47.83227" lon="7.00946">
        <ele>1081.4</ele>
        <time>2022-01-13T10:40:29.000Z</time>
      </trkpt>
      <trkpt lat="47.83227" lon="7.00945">
        <ele>1081.9</ele>
        <time>2022-01-13T10:40:46.000Z</time>
      </trkpt>
      <trkpt lat="47.8323" lon="7.00932">
        <ele>1084.7</ele>
        <time>2022-01-13T10:40:56.000Z</time>
      </trkpt>
      <trkpt lat="47.83231" lon="7.00928">
        <ele>1085.4</ele>
        <time>2022-01-13T10:41:08.195Z</time>
      </trkpt>
      <trkpt lat="47.83232" lon="7.00915">
        <ele>1087.7</ele>
        <time>2022-01-13T10:41:18.000Z</time>
      </trkpt>
      <trkpt lat="47.83232" lon="7.00913">
        <ele>1087.8</ele>
        <time>2022-01-13T10:41:32.000Z</time>
      </trkpt>
      <trkpt lat="47.83232" lon="7.00901">
        <ele>1089.3</ele>
        <time>2022-01-13T10:41:42.000Z</time>
      </trkpt>
      <trkpt lat="47.83231" lon="7.00898">
        <ele>1089.5</ele>
        <time>2022-01-13T10:42:16.791Z</time>
      </trkpt>
      <trkpt lat="47.83225" lon="7.00888">
        <ele>1090.4</ele>
        <time>2022-01-13T10:42:26.333Z</time>
      </trkpt>
      <trkpt lat="47.83224" lon="7.00886">
        <ele>1090.5</ele>
        <time>2022-01-13T10:42:39.000Z</time>
      </trkpt>
      <trkpt lat="47.83217" lon="7.00877">
        <ele>1091.2</ele>
        <time>2022-01-13T10:42:48.434Z</time>
      </trkpt>
      <trkpt lat="47.83217" lon="7.00875">
        <ele>1091.5</ele>
        <time>2022-01-13T10:43:05.872Z</time>
      </trkpt>
      <trkpt lat="47.83215" lon="7.00865">
        <ele>1092.9</ele>
        <time>2022-01-13T10:43:15.000Z</time>
      </trkpt>
      <trkpt lat="47.83215" lon="7.00862">
        <ele>1093.4</ele>
        <time>2022-01-13T10:43:24.612Z</time>
      </trkpt>
      <trkpt lat="47.83211" lon="7.00849">
        <ele>1095.1</ele>
        <time>2022-01-13T10:43:34.000Z</time>
      </trkpt>
      <trkpt lat="47.83212" lon="7.00847">
        <ele>1095.4</ele>
        <time>2022-01-13T10:43:48.000Z</time>
      </trkpt>
      <trkpt lat="47.83212" lon="7.00834">
        <ele>1097.4</ele>
        <time>2022-01-13T10:43:58.000Z</time>
      </trkpt>
      <trkpt lat="47.83213" lon="7.00829">
        <ele>1098.1</ele>
        <time>2022-01-13T10:44:41.000Z</time>
      </trkpt>
      <trkpt lat="47.83215" lon="7.00817">
        <ele>1099.8</ele>
        <time>2022-01-13T10:44:51.000Z</time>
      </trkpt>
      <trkpt lat="47.83211" lon="7.00803">
        <ele>1101.1</ele>
        <time>2022-01-13T10:45:00.795Z</time>
      </trkpt>
      <trkpt lat="47.83211" lon="7.008">
        <ele>1101.4</ele>
        <time>2022-01-13T10:45:11.000Z</time>
      </trkpt>
      <trkpt lat="47.83209" lon="7.00785">
        <ele>1103.1</ele>
        <time>2022-01-13T10:45:21.000Z</time>
      </trkpt>
      <trkpt lat="47.83208" lon="7.00782">
        <ele>1103.5</ele>
        <time>2022-01-13T10:45:33.000Z</time>
      </trkpt>
      <trkpt lat="47.83203" lon="7.0077">
        <ele>1104.3</ele>
        <time>2022-01-13T10:45:43.000Z</time>
      </trkpt>
      <trkpt lat="47.83201" lon="7.00759">
        <ele>1104.9</ele>
        <time>2022-01-13T10:45:53.000Z</time>
      </trkpt>
      <trkpt lat="47.832" lon="7.00754">
        <ele>1105.2</ele>
        <time>2022-01-13T10:46:02.273Z</time>
      </trkpt>
      <trkpt lat="47.83195" lon="7.00743">
        <ele>1105.9</ele>
        <time>2022-01-13T10:46:12.000Z</time>
      </trkpt>
      <trkpt lat="47.83193" lon="7.0074">
        <ele>1106.1</ele>
        <time>2022-01-13T10:46:22.000Z</time>
      </trkpt>
      <trkpt lat="47.83185" lon="7.00729">
        <ele>1107.1</ele>
        <time>2022-01-13T10:46:31.693Z</time>
      </trkpt>
      <trkpt lat="47.83184" lon="7.00728">
        <ele>1107.2</ele>
        <time>2022-01-13T10:46:42.000Z</time>
      </trkpt>
      <trkpt lat="47.83177" lon="7.00716">
        <ele>1108.5</ele>
        <time>2022-01-13T10:46:51.895Z</time>
      </trkpt>
      <trkpt lat="47.83175" lon="7.00711">
        <ele>1108.9</ele>
        <time>2022-01-13T10:47:10.000Z</time>
      </trkpt>
      <trkpt lat="47.8317" lon="7.00704">
        <ele>1110.6</ele>
        <time>2022-01-13T10:47:20.000Z</time>
      </trkpt>
      <trkpt lat="47.83168" lon="7.00701">
        <ele>1111.3</ele>
        <time>2022-01-13T10:47:30.000Z</time>
      </trkpt>
      <trkpt lat="47.83161" lon="7.00696">
        <ele>1113.2</ele>
        <time>2022-01-13T10:47:40.000Z</time>
      </trkpt>
      <trkpt lat="47.83159" lon="7.00696">
        <ele>1113.9</ele>
        <time>2022-01-13T10:47:55.000Z</time>
      </trkpt>
      <trkpt lat="47.8315" lon="7.00693">
        <ele>1116.1</ele>
        <time>2022-01-13T10:48:05.000Z</time>
      </trkpt>
      <trkpt lat="47.83146" lon="7.00692">
        <ele>1117.1</ele>
        <time>2022-01-13T10:48:16.000Z</time>
      </trkpt>
      <trkpt lat="47.83139" lon="7.00689">
        <ele>1118.8</ele>
        <time>2022-01-13T10:48:26.000Z</time>
      </trkpt>
      <trkpt lat="47.83138" lon="7.00688">
        <ele>1119</ele>
        <time>2022-01-13T10:48:44.000Z</time>
      </trkpt>
      <trkpt lat="47.8313" lon="7.00683">
        <ele>1119.7</ele>
        <time>2022-01-13T10:48:54.000Z</time>
      </trkpt>
      <trkpt lat="47.83126" lon="7.00681">
        <ele>1120.1</ele>
        <time>2022-01-13T10:49:23.000Z</time>
      </trkpt>
      <trkpt lat="47.83117" lon="7.00688">
        <ele>1119.9</ele>
        <time>2022-01-13T10:49:33.000Z</time>
      </trkpt>
      <trkpt lat="47.83116" lon="7.00681">
        <ele>1120.9</ele>
        <time>2022-01-13T10:49:43.000Z</time>
      </trkpt>
      <trkpt lat="47.83116" lon="7.00679">
        <ele>1121.3</ele>
        <time>2022-01-13T10:50:23.040Z</time>
      </trkpt>
      <trkpt lat="47.8311" lon="7.00668">
        <ele>1123.9</ele>
        <time>2022-01-13T10:50:33.000Z</time>
      </trkpt>
      <trkpt lat="47.83104" lon="7.00662">
        <ele>1124.5</ele>
        <time>2022-01-13T10:50:45.000Z</time>
      </trkpt>
      <trkpt lat="47.83102" lon="7.00659">
        <ele>1124.6</ele>
        <time>2022-01-13T10:50:55.000Z</time>
      </trkpt>
      <trkpt lat="47.83099" lon="7.00653">
        <ele>1125</ele>
        <time>2022-01-13T10:51:05.000Z</time>
      </trkpt>
      <trkpt lat="47.83095" lon="7.00646">
        <ele>1125.7</ele>
        <time>2022-01-13T10:51:15.000Z</time>
      </trkpt>
      <trkpt lat="47.83088" lon="7.00636">
        <ele>1127.3</ele>
        <time>2022-01-13T10:51:25.000Z</time>
      </trkpt>
      <trkpt lat="47.83079" lon="7.00637">
        <ele>1128.6</ele>
        <time>2022-01-13T10:51:45.000Z</time>
      </trkpt>
      <trkpt lat="47.83077" lon="7.00641">
        <ele>1128.6</ele>
        <time>2022-01-13T10:51:55.000Z</time>
      </trkpt>
      <trkpt lat="47.83076" lon="7.0063">
        <ele>1129.3</ele>
        <time>2022-01-13T10:52:05.000Z</time>
      </trkpt>
      <trkpt lat="47.83073" lon="7.00626">
        <ele>1130</ele>
        <time>2022-01-13T10:52:23.000Z</time>
      </trkpt>
      <trkpt lat="47.83069" lon="7.00621">
        <ele>1130.9</ele>
        <time>2022-01-13T10:52:33.000Z</time>
      </trkpt>
      <trkpt lat="47.83065" lon="7.00617">
        <ele>1131.7</ele>
        <time>2022-01-13T10:52:44.000Z</time>
      </trkpt>
      <trkpt lat="47.8306" lon="7.00612">
        <ele>1133.2</ele>
        <time>2022-01-13T10:52:54.000Z</time>
      </trkpt>
      <trkpt lat="47.83056" lon="7.0061">
        <ele>1134.1</ele>
        <time>2022-01-13T10:53:04.000Z</time>
      </trkpt>
      <trkpt lat="47.83052" lon="7.00604">
        <ele>1134.9</ele>
        <time>2022-01-13T10:53:14.000Z</time>
      </trkpt>
      <trkpt lat="47.83052" lon="7.00601">
        <ele>1135.2</ele>
        <time>2022-01-13T10:54:16.000Z</time>
      </trkpt>
      <trkpt lat="47.83047" lon="7.0059">
        <ele>1136.9</ele>
        <time>2022-01-13T10:54:26.000Z</time>
      </trkpt>
      <trkpt lat="47.83045" lon="7.00587">
        <ele>1137.6</ele>
        <time>2022-01-13T10:54:36.000Z</time>
      </trkpt>
      <trkpt lat="47.8304" lon="7.0058">
        <ele>1139</ele>
        <time>2022-01-13T10:54:46.000Z</time>
      </trkpt>
      <trkpt lat="47.83034" lon="7.00574">
        <ele>1140.5</ele>
        <time>2022-01-13T10:54:56.000Z</time>
      </trkpt>
      <trkpt lat="47.83031" lon="7.00571">
        <ele>1141.3</ele>
        <time>2022-01-13T10:55:06.000Z</time>
      </trkpt>
      <trkpt lat="47.83023" lon="7.00564">
        <ele>1143.6</ele>
        <time>2022-01-13T10:55:16.000Z</time>
      </trkpt>
      <trkpt lat="47.83019" lon="7.0056">
        <ele>1144.8</ele>
        <time>2022-01-13T10:55:38.000Z</time>
      </trkpt>
      <trkpt lat="47.83014" lon="7.00554">
        <ele>1146.7</ele>
        <time>2022-01-13T10:55:48.000Z</time>
      </trkpt>
      <trkpt lat="47.83012" lon="7.00548">
        <ele>1147.3</ele>
        <time>2022-01-13T10:56:47.000Z</time>
      </trkpt>
      <trkpt lat="47.8301" lon="7.00539">
        <ele>1148.6</ele>
        <time>2022-01-13T10:56:57.000Z</time>
      </trkpt>
      <trkpt lat="47.83006" lon="7.00531">
        <ele>1150.1</ele>
        <time>2022-01-13T10:57:07.000Z</time>
      </trkpt>
      <trkpt lat="47.83003" lon="7.00526">
        <ele>1151.1</ele>
        <time>2022-01-13T10:57:17.000Z</time>
      </trkpt>
      <trkpt lat="47.83002" lon="7.00521">
        <ele>1151.4</ele>
        <time>2022-01-13T10:57:58.000Z</time>
      </trkpt>
      <trkpt lat="47.82999" lon="7.00511">
        <ele>1152.2</ele>
        <time>2022-01-13T10:58:08.000Z</time>
      </trkpt>
      <trkpt lat="47.82996" lon="7.00507">
        <ele>1153.2</ele>
        <time>2022-01-13T10:58:19.000Z</time>
      </trkpt>
      <trkpt lat="47.82992" lon="7.005">
        <ele>1154.9</ele>
        <time>2022-01-13T10:58:29.000Z</time>
      </trkpt>
      <trkpt lat="47.82989" lon="7.00496">
        <ele>1156.1</ele>
        <time>2022-01-13T10:58:49.000Z</time>
      </trkpt>
      <trkpt lat="47.82984" lon="7.00491">
        <ele>1157.9</ele>
        <time>2022-01-13T10:58:59.000Z</time>
      </trkpt>
      <trkpt lat="47.8298" lon="7.00492">
        <ele>1159.1</ele>
        <time>2022-01-13T11:00:03.000Z</time>
      </trkpt>
      <trkpt lat="47.82974" lon="7.00492">
        <ele>1161.5</ele>
        <time>2022-01-13T11:00:13.000Z</time>
      </trkpt>
      <trkpt lat="47.82971" lon="7.00487">
        <ele>1162.3</ele>
        <time>2022-01-13T11:00:33.000Z</time>
      </trkpt>
      <trkpt lat="47.82968" lon="7.00478">
        <ele>1163.5</ele>
        <time>2022-01-13T11:00:43.000Z</time>
      </trkpt>
      <trkpt lat="47.82966" lon="7.00476">
        <ele>1164</ele>
        <time>2022-01-13T11:01:00.000Z</time>
      </trkpt>
      <trkpt lat="47.82959" lon="7.00469">
        <ele>1166.1</ele>
        <time>2022-01-13T11:01:10.000Z</time>
      </trkpt>
      <trkpt lat="47.82958" lon="7.00465">
        <ele>1166.1</ele>
        <time>2022-01-13T11:01:36.000Z</time>
      </trkpt>
      <trkpt lat="47.82953" lon="7.00454">
        <ele>1167.1</ele>
        <time>2022-01-13T11:01:46.000Z</time>
      </trkpt>
      <trkpt lat="47.82948" lon="7.00449">
        <ele>1168.4</ele>
        <time>2022-01-13T11:01:58.000Z</time>
      </trkpt>
      <trkpt lat="47.82944" lon="7.00445">
        <ele>1169.1</ele>
        <time>2022-01-13T11:02:07.736Z</time>
      </trkpt>
      <trkpt lat="47.82936" lon="7.00439">
        <ele>1170.3</ele>
        <time>2022-01-13T11:02:17.000Z</time>
      </trkpt>
      <trkpt lat="47.82934" lon="7.00438">
        <ele>1170.6</ele>
        <time>2022-01-13T11:02:27.000Z</time>
      </trkpt>
      <trkpt lat="47.82924" lon="7.00438">
        <ele>1172.3</ele>
        <time>2022-01-13T11:02:37.000Z</time>
      </trkpt>
      <trkpt lat="47.82923" lon="7.00438">
        <ele>1172.5</ele>
        <time>2022-01-13T11:02:47.000Z</time>
      </trkpt>
      <trkpt lat="47.82914" lon="7.00439">
        <ele>1173.9</ele>
        <time>2022-01-13T11:02:56.554Z</time>
      </trkpt>
      <trkpt lat="47.82911" lon="7.0044">
        <ele>1174.4</ele>
        <time>2022-01-13T11:03:06.000Z</time>
      </trkpt>
      <trkpt lat="47.82911" lon="7.00441">
        <ele>1174.6</ele>
        <time>2022-01-13T11:03:21.000Z</time>
      </trkpt>
      <trkpt lat="47.82906" lon="7.00452">
        <ele>1176.2</ele>
        <time>2022-01-13T11:03:30.195Z</time>
      </trkpt>
      <trkpt lat="47.82899" lon="7.00464">
        <ele>1177.7</ele>
        <time>2022-01-13T11:03:40.000Z</time>
      </trkpt>
      <trkpt lat="47.82898" lon="7.00464">
        <ele>1177.8</ele>
        <time>2022-01-13T11:03:49.714Z</time>
      </trkpt>
      <trkpt lat="47.82889" lon="7.00472">
        <ele>1179</ele>
        <time>2022-01-13T11:03:59.000Z</time>
      </trkpt>
      <trkpt lat="47.82881" lon="7.00473">
        <ele>1178.3</ele>
        <time>2022-01-13T11:04:09.000Z</time>
      </trkpt>
      <trkpt lat="47.82873" lon="7.00475">
        <ele>1177.7</ele>
        <time>2022-01-13T11:04:19.000Z</time>
      </trkpt>
      <trkpt lat="47.82862" lon="7.00479">
        <ele>1176.5</ele>
        <time>2022-01-13T11:04:28.751Z</time>
      </trkpt>
      <trkpt lat="47.82852" lon="7.00482">
        <ele>1175.6</ele>
        <time>2022-01-13T11:04:39.000Z</time>
      </trkpt>
      <trkpt lat="47.82847" lon="7.00485">
        <ele>1175.1</ele>
        <time>2022-01-13T11:04:49.000Z</time>
      </trkpt>
      <trkpt lat="47.82835" lon="7.00494">
        <ele>1173.6</ele>
        <time>2022-01-13T11:04:58.415Z</time>
      </trkpt>
      <trkpt lat="47.82827" lon="7.005">
        <ele>1173</ele>
        <time>2022-01-13T11:05:07.597Z</time>
      </trkpt>
      <trkpt lat="47.8282" lon="7.00505">
        <ele>1172.5</ele>
        <time>2022-01-13T11:05:17.000Z</time>
      </trkpt>
      <trkpt lat="47.82812" lon="7.00514">
        <ele>1171.6</ele>
        <time>2022-01-13T11:05:26.612Z</time>
      </trkpt>
      <trkpt lat="47.82805" lon="7.0052">
        <ele>1170.9</ele>
        <time>2022-01-13T11:05:35.715Z</time>
      </trkpt>
      <trkpt lat="47.82804" lon="7.00522">
        <ele>1170.7</ele>
        <time>2022-01-13T11:05:45.000Z</time>
      </trkpt>
      <trkpt lat="47.82789" lon="7.00536">
        <ele>1169.9</ele>
        <time>2022-01-13T11:05:55.000Z</time>
      </trkpt>
      <trkpt lat="47.82786" lon="7.00539">
        <ele>1169.8</ele>
        <time>2022-01-13T11:06:04.653Z</time>
      </trkpt>
      <trkpt lat="47.82776" lon="7.00549">
        <ele>1169.6</ele>
        <time>2022-01-13T11:06:14.000Z</time>
      </trkpt>
      <trkpt lat="47.82767" lon="7.00558">
        <ele>1169.2</ele>
        <time>2022-01-13T11:06:24.000Z</time>
      </trkpt>
      <trkpt lat="47.82766" lon="7.00559">
        <ele>1169.2</ele>
        <time>2022-01-13T11:06:34.000Z</time>
      </trkpt>
      <trkpt lat="47.82757" lon="7.00569">
        <ele>1169</ele>
        <time>2022-01-13T11:06:44.811Z</time>
      </trkpt>
      <trkpt lat="47.82756" lon="7.0057">
        <ele>1169.1</ele>
        <time>2022-01-13T11:06:56.000Z</time>
      </trkpt>
      <trkpt lat="47.82748" lon="7.0058">
        <ele>1169.1</ele>
        <time>2022-01-13T11:07:06.000Z</time>
      </trkpt>
      <trkpt lat="47.82741" lon="7.00587">
        <ele>1168.7</ele>
        <time>2022-01-13T11:07:16.000Z</time>
      </trkpt>
      <trkpt lat="47.82738" lon="7.0059">
        <ele>1168.4</ele>
        <time>2022-01-13T11:07:25.716Z</time>
      </trkpt>
      <trkpt lat="47.8273" lon="7.006">
        <ele>1167.7</ele>
        <time>2022-01-13T11:07:35.000Z</time>
      </trkpt>
      <trkpt lat="47.82729" lon="7.00601">
        <ele>1167.6</ele>
        <time>2022-01-13T11:07:46.000Z</time>
      </trkpt>
      <trkpt lat="47.82718" lon="7.00607">
        <ele>1167.1</ele>
        <time>2022-01-13T11:07:56.000Z</time>
      </trkpt>
      <trkpt lat="47.82708" lon="7.00611">
        <ele>1166.5</ele>
        <time>2022-01-13T11:08:06.000Z</time>
      </trkpt>
      <trkpt lat="47.82699" lon="7.00611">
        <ele>1166.1</ele>
        <time>2022-01-13T11:08:16.000Z</time>
      </trkpt>
      <trkpt lat="47.82692" lon="7.00614">
        <ele>1165.5</ele>
        <time>2022-01-13T11:08:25.793Z</time>
      </trkpt>
      <trkpt lat="47.82689" lon="7.00615">
        <ele>1165.1</ele>
        <time>2022-01-13T11:08:35.000Z</time>
      </trkpt>
      <trkpt lat="47.82686" lon="7.00616">
        <ele>1164.8</ele>
        <time>2022-01-13T11:08:45.000Z</time>
      </trkpt>
      <trkpt lat="47.82678" lon="7.00617">
        <ele>1164.2</ele>
        <time>2022-01-13T11:08:55.000Z</time>
      </trkpt>
      <trkpt lat="47.82678" lon="7.00614">
        <ele>1164.6</ele>
        <time>2022-01-13T11:09:06.891Z</time>
      </trkpt>
      <trkpt lat="47.82678" lon="7.00601">
        <ele>1165.5</ele>
        <time>2022-01-13T11:09:16.000Z</time>
      </trkpt>
      <trkpt lat="47.82679" lon="7.00595">
        <ele>1166.1</ele>
        <time>2022-01-13T11:09:28.000Z</time>
      </trkpt>
      <trkpt lat="47.8268" lon="7.00586">
        <ele>1166.7</ele>
        <time>2022-01-13T11:09:38.000Z</time>
      </trkpt>
      <trkpt lat="47.8268" lon="7.0058">
        <ele>1167.2</ele>
        <time>2022-01-13T11:09:58.000Z</time>
      </trkpt>
      <trkpt lat="47.82681" lon="7.00571">
        <ele>1167.9</ele>
        <time>2022-01-13T11:10:08.000Z</time>
      </trkpt>
      <trkpt lat="47.82681" lon="7.00567">
        <ele>1168.2</ele>
        <time>2022-01-13T11:10:18.000Z</time>
      </trkpt>
      <trkpt lat="47.8268" lon="7.00555">
        <ele>1168.9</ele>
        <time>2022-01-13T11:10:28.000Z</time>
      </trkpt>
      <trkpt lat="47.82676" lon="7.00552">
        <ele>1168.7</ele>
        <time>2022-01-13T11:10:41.000Z</time>
      </trkpt>
      <trkpt lat="47.8267" lon="7.00552">
        <ele>1168.2</ele>
        <time>2022-01-13T11:10:51.000Z</time>
      </trkpt>
      <trkpt lat="47.82667" lon="7.0055">
        <ele>1168</ele>
        <time>2022-01-13T11:11:09.000Z</time>
      </trkpt>
      <trkpt lat="47.82667" lon="7.00555">
        <ele>1168</ele>
        <time>2022-01-13T11:11:19.000Z</time>
      </trkpt>
      <trkpt lat="47.82666" lon="7.00552">
        <ele>1167.9</ele>
        <time>2022-01-13T11:11:29.000Z</time>
      </trkpt>
      <trkpt lat="47.82667" lon="7.00553">
        <ele>1168.1</ele>
        <time>2022-01-13T11:11:39.000Z</time>
      </trkpt>
      <trkpt lat="47.82666" lon="7.00554">
        <ele>1168</ele>
        <time>2022-01-13T11:12:16.000Z</time>
      </trkpt>
      <trkpt lat="47.82669" lon="7.0056">
        <ele>1167.9</ele>
        <time>2022-01-13T11:12:26.000Z</time>
      </trkpt>
      <trkpt lat="47.82669" lon="7.00556">
        <ele>1168.2</ele>
        <time>2022-01-13T11:13:14.000Z</time>
      </trkpt>
      <trkpt lat="47.82671" lon="7.00552">
        <ele>1168.3</ele>
        <time>2022-01-13T11:13:24.000Z</time>
      </trkpt>
      <trkpt lat="47.82647" lon="7.00557">
        <ele>1166.6</ele>
        <time>2022-01-13T11:13:34.000Z</time>
      </trkpt>
      <trkpt lat="47.82651" lon="7.00555">
        <ele>1166.9</ele>
        <time>2022-01-13T11:13:43.437Z</time>
      </trkpt>
      <trkpt lat="47.8265" lon="7.00558">
        <ele>1166.8</ele>
        <time>2022-01-13T11:13:59.000Z</time>
      </trkpt>
      <trkpt lat="47.8264" lon="7.00571">
        <ele>1166.6</ele>
        <time>2022-01-13T11:14:09.000Z</time>
      </trkpt>
      <trkpt lat="47.82632" lon="7.00576">
        <ele>1167.2</ele>
        <time>2022-01-13T11:14:19.000Z</time>
      </trkpt>
      <trkpt lat="47.82629" lon="7.0058">
        <ele>1167.8</ele>
        <time>2022-01-13T11:14:29.000Z</time>
      </trkpt>
      <trkpt lat="47.82623" lon="7.00586">
        <ele>1168.6</ele>
        <time>2022-01-13T11:14:39.000Z</time>
      </trkpt>
      <trkpt lat="47.82619" lon="7.00588">
        <ele>1168.8</ele>
        <time>2022-01-13T11:14:49.000Z</time>
      </trkpt>
      <trkpt lat="47.82613" lon="7.00591">
        <ele>1169.3</ele>
        <time>2022-01-13T11:14:59.000Z</time>
      </trkpt>
      <trkpt lat="47.82609" lon="7.00593">
        <ele>1169.1</ele>
        <time>2022-01-13T11:15:08.478Z</time>
      </trkpt>
      <trkpt lat="47.82598" lon="7.00606">
        <ele>1168.4</ele>
        <time>2022-01-13T11:15:18.000Z</time>
      </trkpt>
      <trkpt lat="47.82588" lon="7.00617">
        <ele>1168.7</ele>
        <time>2022-01-13T11:15:28.000Z</time>
      </trkpt>
      <trkpt lat="47.82582" lon="7.00626">
        <ele>1168.9</ele>
        <time>2022-01-13T11:15:38.000Z</time>
      </trkpt>
      <trkpt lat="47.82575" lon="7.00634">
        <ele>1168.6</ele>
        <time>2022-01-13T11:15:48.000Z</time>
      </trkpt>
      <trkpt lat="47.82569" lon="7.00642">
        <ele>1168.4</ele>
        <time>2022-01-13T11:15:58.000Z</time>
      </trkpt>
      <trkpt lat="47.82556" lon="7.00656">
        <ele>1167.4</ele>
        <time>2022-01-13T11:16:07.399Z</time>
      </trkpt>
      <trkpt lat="47.82551" lon="7.0066">
        <ele>1166.4</ele>
        <time>2022-01-13T11:16:17.399Z</time>
      </trkpt>
      <trkpt lat="47.82544" lon="7.00671">
        <ele>1164.5</ele>
        <time>2022-01-13T11:16:26.537Z</time>
      </trkpt>
      <trkpt lat="47.82541" lon="7.00674">
        <ele>1163.9</ele>
        <time>2022-01-13T11:16:36.000Z</time>
      </trkpt>
      <trkpt lat="47.82535" lon="7.00681">
        <ele>1162.5</ele>
        <time>2022-01-13T11:16:46.000Z</time>
      </trkpt>
      <trkpt lat="47.82525" lon="7.00691">
        <ele>1160.9</ele>
        <time>2022-01-13T11:16:55.697Z</time>
      </trkpt>
      <trkpt lat="47.82517" lon="7.00697">
        <ele>1160</ele>
        <time>2022-01-13T11:17:05.000Z</time>
      </trkpt>
      <trkpt lat="47.82514" lon="7.00699">
        <ele>1159.6</ele>
        <time>2022-01-13T11:17:14.582Z</time>
      </trkpt>
      <trkpt lat="47.82505" lon="7.00707">
        <ele>1158.7</ele>
        <time>2022-01-13T11:17:24.000Z</time>
      </trkpt>
      <trkpt lat="47.82504" lon="7.00708">
        <ele>1158.7</ele>
        <time>2022-01-13T11:17:34.000Z</time>
      </trkpt>
      <trkpt lat="47.8249" lon="7.00719">
        <ele>1156.6</ele>
        <time>2022-01-13T11:17:43.359Z</time>
      </trkpt>
      <trkpt lat="47.82479" lon="7.00728">
        <ele>1154.6</ele>
        <time>2022-01-13T11:17:53.000Z</time>
      </trkpt>
      <trkpt lat="47.82471" lon="7.00734">
        <ele>1153.5</ele>
        <time>2022-01-13T11:18:03.000Z</time>
      </trkpt>
      <trkpt lat="47.82467" lon="7.00737">
        <ele>1152.9</ele>
        <time>2022-01-13T11:18:12.601Z</time>
      </trkpt>
      <trkpt lat="47.82456" lon="7.00744">
        <ele>1151.8</ele>
        <time>2022-01-13T11:18:21.780Z</time>
      </trkpt>
      <trkpt lat="47.82452" lon="7.00746">
        <ele>1151.5</ele>
        <time>2022-01-13T11:18:31.000Z</time>
      </trkpt>
      <trkpt lat="47.82439" lon="7.00757">
        <ele>1150.7</ele>
        <time>2022-01-13T11:18:41.000Z</time>
      </trkpt>
      <trkpt lat="47.82431" lon="7.00764">
        <ele>1150.5</ele>
        <time>2022-01-13T11:18:50.580Z</time>
      </trkpt>
      <trkpt lat="47.82426" lon="7.00766">
        <ele>1150.4</ele>
        <time>2022-01-13T11:18:59.940Z</time>
      </trkpt>
      <trkpt lat="47.82416" lon="7.00772">
        <ele>1150.6</ele>
        <time>2022-01-13T11:19:10.000Z</time>
      </trkpt>
      <trkpt lat="47.82413" lon="7.00773">
        <ele>1150.7</ele>
        <time>2022-01-13T11:19:29.758Z</time>
      </trkpt>
      <trkpt lat="47.82404" lon="7.00775">
        <ele>1150.8</ele>
        <time>2022-01-13T11:19:39.000Z</time>
      </trkpt>
      <trkpt lat="47.82395" lon="7.00785">
        <ele>1151.2</ele>
        <time>2022-01-13T11:19:48.417Z</time>
      </trkpt>
      <trkpt lat="47.82387" lon="7.00789">
        <ele>1151.5</ele>
        <time>2022-01-13T11:19:58.000Z</time>
      </trkpt>
      <trkpt lat="47.82385" lon="7.00791">
        <ele>1151.7</ele>
        <time>2022-01-13T11:20:07.861Z</time>
      </trkpt>
      <trkpt lat="47.82375" lon="7.00796">
        <ele>1152.7</ele>
        <time>2022-01-13T11:20:17.000Z</time>
      </trkpt>
      <trkpt lat="47.82365" lon="7.00803">
        <ele>1153.7</ele>
        <time>2022-01-13T11:20:26.120Z</time>
      </trkpt>
      <trkpt lat="47.82362" lon="7.00806">
        <ele>1153.9</ele>
        <time>2022-01-13T11:20:39.000Z</time>
      </trkpt>
      <trkpt lat="47.82354" lon="7.0081">
        <ele>1153.9</ele>
        <time>2022-01-13T11:20:48.681Z</time>
      </trkpt>
      <trkpt lat="47.82345" lon="7.00812">
        <ele>1153.9</ele>
        <time>2022-01-13T11:20:57.859Z</time>
      </trkpt>
      <trkpt lat="47.82339" lon="7.00812">
        <ele>1154</ele>
        <time>2022-01-13T11:21:07.281Z</time>
      </trkpt>
      <trkpt lat="47.82333" lon="7.00811">
        <ele>1154</ele>
        <time>2022-01-13T11:21:16.602Z</time>
      </trkpt>
      <trkpt lat="47.82331" lon="7.00814">
        <ele>1154.2</ele>
        <time>2022-01-13T11:21:26.000Z</time>
      </trkpt>
      <trkpt lat="47.82324" lon="7.00823">
        <ele>1155</ele>
        <time>2022-01-13T11:21:36.000Z</time>
      </trkpt>
      <trkpt lat="47.82317" lon="7.00829">
        <ele>1156.1</ele>
        <time>2022-01-13T11:21:46.000Z</time>
      </trkpt>
      <trkpt lat="47.82311" lon="7.00832">
        <ele>1157.1</ele>
        <time>2022-01-13T11:21:56.000Z</time>
      </trkpt>
      <trkpt lat="47.82304" lon="7.00836">
        <ele>1158.5</ele>
        <time>2022-01-13T11:22:06.000Z</time>
      </trkpt>
      <trkpt lat="47.823" lon="7.00839">
        <ele>1159.3</ele>
        <time>2022-01-13T11:22:15.660Z</time>
      </trkpt>
      <trkpt lat="47.82292" lon="7.00842">
        <ele>1160.8</ele>
        <time>2022-01-13T11:22:25.000Z</time>
      </trkpt>
      <trkpt lat="47.82289" lon="7.00844">
        <ele>1161.5</ele>
        <time>2022-01-13T11:22:34.541Z</time>
      </trkpt>
      <trkpt lat="47.82285" lon="7.00847">
        <ele>1162.4</ele>
        <time>2022-01-13T11:22:44.000Z</time>
      </trkpt>
      <trkpt lat="47.82279" lon="7.0085">
        <ele>1164</ele>
        <time>2022-01-13T11:22:54.000Z</time>
      </trkpt>
      <trkpt lat="47.8227" lon="7.00854">
        <ele>1165.7</ele>
        <time>2022-01-13T11:23:04.000Z</time>
      </trkpt>
      <trkpt lat="47.82268" lon="7.00855">
        <ele>1166.1</ele>
        <time>2022-01-13T11:23:14.000Z</time>
      </trkpt>
      <trkpt lat="47.82265" lon="7.00855">
        <ele>1166.6</ele>
        <time>2022-01-13T11:23:26.000Z</time>
      </trkpt>
      <trkpt lat="47.82257" lon="7.00859">
        <ele>1167.8</ele>
        <time>2022-01-13T11:23:35.603Z</time>
      </trkpt>
      <trkpt lat="47.82254" lon="7.00861">
        <ele>1168.4</ele>
        <time>2022-01-13T11:23:45.000Z</time>
      </trkpt>
      <trkpt lat="47.82247" lon="7.00866">
        <ele>1169.6</ele>
        <time>2022-01-13T11:23:55.000Z</time>
      </trkpt>
      <trkpt lat="47.82243" lon="7.00866">
        <ele>1170.4</ele>
        <time>2022-01-13T11:24:25.000Z</time>
      </trkpt>
      <trkpt lat="47.82236" lon="7.00869">
        <ele>1171.7</ele>
        <time>2022-01-13T11:24:35.000Z</time>
      </trkpt>
      <trkpt lat="47.82233" lon="7.00871">
        <ele>1172.1</ele>
        <time>2022-01-13T11:24:46.000Z</time>
      </trkpt>
      <trkpt lat="47.82226" lon="7.00877">
        <ele>1173.5</ele>
        <time>2022-01-13T11:24:56.000Z</time>
      </trkpt>
      <trkpt lat="47.82215" lon="7.00881">
        <ele>1175.3</ele>
        <time>2022-01-13T11:25:06.000Z</time>
      </trkpt>
      <trkpt lat="47.82212" lon="7.00884">
        <ele>1176.1</ele>
        <time>2022-01-13T11:25:20.000Z</time>
      </trkpt>
      <trkpt lat="47.82205" lon="7.00888">
        <ele>1177.7</ele>
        <time>2022-01-13T11:25:30.000Z</time>
      </trkpt>
      <trkpt lat="47.82195" lon="7.00893">
        <ele>1180</ele>
        <time>2022-01-13T11:25:40.000Z</time>
      </trkpt>
      <trkpt lat="47.82191" lon="7.00895">
        <ele>1180.8</ele>
        <time>2022-01-13T11:26:00.000Z</time>
      </trkpt>
      <trkpt lat="47.82185" lon="7.00899">
        <ele>1181.8</ele>
        <time>2022-01-13T11:26:10.000Z</time>
      </trkpt>
      <trkpt lat="47.82173" lon="7.00906">
        <ele>1183.8</ele>
        <time>2022-01-13T11:26:20.000Z</time>
      </trkpt>
      <trkpt lat="47.82169" lon="7.00908">
        <ele>1184.3</ele>
        <time>2022-01-13T11:26:33.000Z</time>
      </trkpt>
      <trkpt lat="47.82161" lon="7.0091">
        <ele>1185.3</ele>
        <time>2022-01-13T11:26:43.000Z</time>
      </trkpt>
      <trkpt lat="47.82149" lon="7.00916">
        <ele>1186.9</ele>
        <time>2022-01-13T11:26:53.000Z</time>
      </trkpt>
      <trkpt lat="47.82142" lon="7.00918">
        <ele>1187.7</ele>
        <time>2022-01-13T11:27:02.875Z</time>
      </trkpt>
      <trkpt lat="47.82138" lon="7.00919">
        <ele>1188.1</ele>
        <time>2022-01-13T11:27:12.000Z</time>
      </trkpt>
      <trkpt lat="47.82128" lon="7.00924">
        <ele>1189</ele>
        <time>2022-01-13T11:27:22.000Z</time>
      </trkpt>
      <trkpt lat="47.82127" lon="7.00924">
        <ele>1189.1</ele>
        <time>2022-01-13T11:27:31.297Z</time>
      </trkpt>
      <trkpt lat="47.82116" lon="7.00926">
        <ele>1190</ele>
        <time>2022-01-13T11:27:41.000Z</time>
      </trkpt>
      <trkpt lat="47.82106" lon="7.00929">
        <ele>1190.4</ele>
        <time>2022-01-13T11:27:51.000Z</time>
      </trkpt>
      <trkpt lat="47.82103" lon="7.00931">
        <ele>1190.4</ele>
        <time>2022-01-13T11:28:00.641Z</time>
      </trkpt>
      <trkpt lat="47.82094" lon="7.00934">
        <ele>1190.2</ele>
        <time>2022-01-13T11:28:10.000Z</time>
      </trkpt>
      <trkpt lat="47.8208" lon="7.00928">
        <ele>1189.8</ele>
        <time>2022-01-13T11:28:19.581Z</time>
      </trkpt>
      <trkpt lat="47.82073" lon="7.00922">
        <ele>1189.6</ele>
        <time>2022-01-13T11:28:29.169Z</time>
      </trkpt>
      <trkpt lat="47.82067" lon="7.00916">
        <ele>1189.4</ele>
        <time>2022-01-13T11:28:38.598Z</time>
      </trkpt>
      <trkpt lat="47.82058" lon="7.00907">
        <ele>1189.3</ele>
        <time>2022-01-13T11:28:47.841Z</time>
      </trkpt>
      <trkpt lat="47.82046" lon="7.00897">
        <ele>1189.1</ele>
        <time>2022-01-13T11:28:57.000Z</time>
      </trkpt>
      <trkpt lat="47.82035" lon="7.00893">
        <ele>1188.8</ele>
        <time>2022-01-13T11:29:06.740Z</time>
      </trkpt>
      <trkpt lat="47.82029" lon="7.00893">
        <ele>1188.5</ele>
        <time>2022-01-13T11:29:16.000Z</time>
      </trkpt>
      <trkpt lat="47.82029" lon="7.00895">
        <ele>1188.2</ele>
        <time>2022-01-13T11:30:00.000Z</time>
      </trkpt>
      <trkpt lat="47.82029" lon="7.00898">
        <ele>1187.7</ele>
        <time>2022-01-13T11:30:10.000Z</time>
      </trkpt>
      <trkpt lat="47.82031" lon="7.009">
        <ele>1187.7</ele>
        <time>2022-01-13T11:30:20.000Z</time>
      </trkpt>
      <trkpt lat="47.82034" lon="7.00898">
        <ele>1188.1</ele>
        <time>2022-01-13T11:30:49.000Z</time>
      </trkpt>
      <trkpt lat="47.82046" lon="7.00887">
        <ele>1189.4</ele>
        <time>2022-01-13T11:30:59.000Z</time>
      </trkpt>
      <trkpt lat="47.82054" lon="7.00893">
        <ele>1189.8</ele>
        <time>2022-01-13T11:31:09.000Z</time>
      </trkpt>
      <trkpt lat="47.82064" lon="7.00905">
        <ele>1189.3</ele>
        <time>2022-01-13T11:31:18.473Z</time>
      </trkpt>
      <trkpt lat="47.82073" lon="7.0091">
        <ele>1189.4</ele>
        <time>2022-01-13T11:31:27.590Z</time>
      </trkpt>
      <trkpt lat="47.82079" lon="7.00918">
        <ele>1189.8</ele>
        <time>2022-01-13T11:31:36.593Z</time>
      </trkpt>
      <trkpt lat="47.82082" lon="7.00923">
        <ele>1189.9</ele>
        <time>2022-01-13T11:31:46.000Z</time>
      </trkpt>
      <trkpt lat="47.8209" lon="7.00927">
        <ele>1190.1</ele>
        <time>2022-01-13T11:31:56.000Z</time>
      </trkpt>
      <trkpt lat="47.82096" lon="7.00946">
        <ele>1190.3</ele>
        <time>2022-01-13T11:32:06.000Z</time>
      </trkpt>
      <trkpt lat="47.82097" lon="7.00963">
        <ele>1189.2</ele>
        <time>2022-01-13T11:32:15.432Z</time>
      </trkpt>
      <trkpt lat="47.82103" lon="7.00972">
        <ele>1188.7</ele>
        <time>2022-01-13T11:32:25.000Z</time>
      </trkpt>
      <trkpt lat="47.82109" lon="7.00982">
        <ele>1188.2</ele>
        <time>2022-01-13T11:32:34.392Z</time>
      </trkpt>
      <trkpt lat="47.82111" lon="7.00998">
        <ele>1187.2</ele>
        <time>2022-01-13T11:32:44.000Z</time>
      </trkpt>
      <trkpt lat="47.82113" lon="7.01004">
        <ele>1186.7</ele>
        <time>2022-01-13T11:32:53.231Z</time>
      </trkpt>
      <trkpt lat="47.82117" lon="7.0102">
        <ele>1185.3</ele>
        <time>2022-01-13T11:33:02.732Z</time>
      </trkpt>
      <trkpt lat="47.82118" lon="7.0104">
        <ele>1183.5</ele>
        <time>2022-01-13T11:33:12.614Z</time>
      </trkpt>
      <trkpt lat="47.8212" lon="7.01055">
        <ele>1182</ele>
        <time>2022-01-13T11:33:22.000Z</time>
      </trkpt>
      <trkpt lat="47.8212" lon="7.01062">
        <ele>1181.2</ele>
        <time>2022-01-13T11:33:32.000Z</time>
      </trkpt>
      <trkpt lat="47.82123" lon="7.01077">
        <ele>1179.3</ele>
        <time>2022-01-13T11:33:42.000Z</time>
      </trkpt>
      <trkpt lat="47.82124" lon="7.01081">
        <ele>1178.7</ele>
        <time>2022-01-13T11:33:51.816Z</time>
      </trkpt>
      <trkpt lat="47.82125" lon="7.01098">
        <ele>1176.9</ele>
        <time>2022-01-13T11:34:00.853Z</time>
      </trkpt>
      <trkpt lat="47.82125" lon="7.011">
        <ele>1176.7</ele>
        <time>2022-01-13T11:34:10.000Z</time>
      </trkpt>
      <trkpt lat="47.82133" lon="7.01123">
        <ele>1174.3</ele>
        <time>2022-01-13T11:34:19.733Z</time>
      </trkpt>
      <trkpt lat="47.82135" lon="7.01137">
        <ele>1173</ele>
        <time>2022-01-13T11:34:29.092Z</time>
      </trkpt>
      <trkpt lat="47.82138" lon="7.01144">
        <ele>1172</ele>
        <time>2022-01-13T11:34:38.652Z</time>
      </trkpt>
      <trkpt lat="47.82145" lon="7.01163">
        <ele>1168.4</ele>
        <time>2022-01-13T11:34:48.110Z</time>
      </trkpt>
      <trkpt lat="47.82149" lon="7.01172">
        <ele>1166.8</ele>
        <time>2022-01-13T11:34:57.332Z</time>
      </trkpt>
      <trkpt lat="47.82155" lon="7.01186">
        <ele>1164.3</ele>
        <time>2022-01-13T11:35:06.827Z</time>
      </trkpt>
      <trkpt lat="47.82162" lon="7.01199">
        <ele>1162</ele>
        <time>2022-01-13T11:35:16.790Z</time>
      </trkpt>
      <trkpt lat="47.82168" lon="7.01212">
        <ele>1159</ele>
        <time>2022-01-13T11:35:26.000Z</time>
      </trkpt>
      <trkpt lat="47.82172" lon="7.01222">
        <ele>1156.8</ele>
        <time>2022-01-13T11:35:35.532Z</time>
      </trkpt>
      <trkpt lat="47.8218" lon="7.01234">
        <ele>1154.6</ele>
        <time>2022-01-13T11:35:44.713Z</time>
      </trkpt>
      <trkpt lat="47.8218" lon="7.01237">
        <ele>1154.1</ele>
        <time>2022-01-13T11:35:55.000Z</time>
      </trkpt>
      <trkpt lat="47.82189" lon="7.01249">
        <ele>1152.2</ele>
        <time>2022-01-13T11:36:05.000Z</time>
      </trkpt>
      <trkpt lat="47.82189" lon="7.01251">
        <ele>1151.9</ele>
        <time>2022-01-13T11:36:21.471Z</time>
      </trkpt>
      <trkpt lat="47.822" lon="7.01275">
        <ele>1146.8</ele>
        <time>2022-01-13T11:36:30.832Z</time>
      </trkpt>
      <trkpt lat="47.82206" lon="7.01286">
        <ele>1144.4</ele>
        <time>2022-01-13T11:36:40.000Z</time>
      </trkpt>
      <trkpt lat="47.82209" lon="7.01297">
        <ele>1142.3</ele>
        <time>2022-01-13T11:36:50.000Z</time>
      </trkpt>
      <trkpt lat="47.82213" lon="7.01308">
        <ele>1140.1</ele>
        <time>2022-01-13T11:37:00.000Z</time>
      </trkpt>
      <trkpt lat="47.82218" lon="7.01328">
        <ele>1136.1</ele>
        <time>2022-01-13T11:37:10.000Z</time>
      </trkpt>
      <trkpt lat="47.82221" lon="7.01339">
        <ele>1134.3</ele>
        <time>2022-01-13T11:37:19.712Z</time>
      </trkpt>
      <trkpt lat="47.82223" lon="7.01355">
        <ele>1131.8</ele>
        <time>2022-01-13T11:37:29.354Z</time>
      </trkpt>
      <trkpt lat="47.82225" lon="7.0137">
        <ele>1129</ele>
        <time>2022-01-13T11:37:38.893Z</time>
      </trkpt>
      <trkpt lat="47.82226" lon="7.01379">
        <ele>1127.5</ele>
        <time>2022-01-13T11:37:48.000Z</time>
      </trkpt>
      <trkpt lat="47.82228" lon="7.01394">
        <ele>1124.8</ele>
        <time>2022-01-13T11:37:57.195Z</time>
      </trkpt>
      <trkpt lat="47.82229" lon="7.0141">
        <ele>1122.7</ele>
        <time>2022-01-13T11:38:06.870Z</time>
      </trkpt>
      <trkpt lat="47.8223" lon="7.01421">
        <ele>1121.1</ele>
        <time>2022-01-13T11:38:16.431Z</time>
      </trkpt>
      <trkpt lat="47.82231" lon="7.01433">
        <ele>1119.3</ele>
        <time>2022-01-13T11:38:26.000Z</time>
      </trkpt>
      <trkpt lat="47.82232" lon="7.01444">
        <ele>1117.8</ele>
        <time>2022-01-13T11:38:36.000Z</time>
      </trkpt>
      <trkpt lat="47.82232" lon="7.01451">
        <ele>1116.9</ele>
        <time>2022-01-13T11:38:46.000Z</time>
      </trkpt>
      <trkpt lat="47.82233" lon="7.01464">
        <ele>1115.5</ele>
        <time>2022-01-13T11:38:56.000Z</time>
      </trkpt>
      <trkpt lat="47.82235" lon="7.01469">
        <ele>1114.9</ele>
        <time>2022-01-13T11:39:06.000Z</time>
      </trkpt>
      <trkpt lat="47.82239" lon="7.01484">
        <ele>1113.5</ele>
        <time>2022-01-13T11:39:15.576Z</time>
      </trkpt>
      <trkpt lat="47.8224" lon="7.01497">
        <ele>1112.5</ele>
        <time>2022-01-13T11:39:25.000Z</time>
      </trkpt>
      <trkpt lat="47.82241" lon="7.01516">
        <ele>1111.2</ele>
        <time>2022-01-13T11:39:34.552Z</time>
      </trkpt>
      <trkpt lat="47.82241" lon="7.0152">
        <ele>1110.9</ele>
        <time>2022-01-13T11:39:43.692Z</time>
      </trkpt>
      <trkpt lat="47.82241" lon="7.01534">
        <ele>1110</ele>
        <time>2022-01-13T11:39:53.000Z</time>
      </trkpt>
      <trkpt lat="47.82242" lon="7.01545">
        <ele>1109.5</ele>
        <time>2022-01-13T11:40:03.000Z</time>
      </trkpt>
      <trkpt lat="47.82241" lon="7.01552">
        <ele>1109.2</ele>
        <time>2022-01-13T11:40:13.000Z</time>
      </trkpt>
      <trkpt lat="47.8224" lon="7.01569">
        <ele>1108.7</ele>
        <time>2022-01-13T11:40:22.747Z</time>
      </trkpt>
      <trkpt lat="47.82239" lon="7.01584">
        <ele>1108.4</ele>
        <time>2022-01-13T11:40:32.193Z</time>
      </trkpt>
      <trkpt lat="47.82239" lon="7.01588">
        <ele>1108.3</ele>
        <time>2022-01-13T11:40:41.849Z</time>
      </trkpt>
      <trkpt lat="47.8224" lon="7.01604">
        <ele>1108.1</ele>
        <time>2022-01-13T11:40:51.000Z</time>
      </trkpt>
      <trkpt lat="47.8224" lon="7.01608">
        <ele>1108</ele>
        <time>2022-01-13T11:41:01.000Z</time>
      </trkpt>
      <trkpt lat="47.82239" lon="7.01624">
        <ele>1107.7</ele>
        <time>2022-01-13T11:41:10.433Z</time>
      </trkpt>
      <trkpt lat="47.82239" lon="7.01641">
        <ele>1107.4</ele>
        <time>2022-01-13T11:41:19.712Z</time>
      </trkpt>
      <trkpt lat="47.82239" lon="7.0165">
        <ele>1107.8</ele>
        <time>2022-01-13T11:41:29.000Z</time>
      </trkpt>
      <trkpt lat="47.82239" lon="7.01654">
        <ele>1108</ele>
        <time>2022-01-13T11:41:39.000Z</time>
      </trkpt>
      <trkpt lat="47.82238" lon="7.01672">
        <ele>1108.4</ele>
        <time>2022-01-13T11:41:48.849Z</time>
      </trkpt>
      <trkpt lat="47.82238" lon="7.01683">
        <ele>1108.2</ele>
        <time>2022-01-13T11:41:59.000Z</time>
      </trkpt>
      <trkpt lat="47.82239" lon="7.01701">
        <ele>1108</ele>
        <time>2022-01-13T11:42:09.000Z</time>
      </trkpt>
      <trkpt lat="47.82241" lon="7.01714">
        <ele>1108</ele>
        <time>2022-01-13T11:42:19.000Z</time>
      </trkpt>
      <trkpt lat="47.82242" lon="7.01724">
        <ele>1108</ele>
        <time>2022-01-13T11:42:29.000Z</time>
      </trkpt>
      <trkpt lat="47.82244" lon="7.01736">
        <ele>1108.1</ele>
        <time>2022-01-13T11:42:38.232Z</time>
      </trkpt>
      <trkpt lat="47.82245" lon="7.01743">
        <ele>1108.1</ele>
        <time>2022-01-13T11:42:47.611Z</time>
      </trkpt>
      <trkpt lat="47.82248" lon="7.01761">
        <ele>1108.4</ele>
        <time>2022-01-13T11:42:57.000Z</time>
      </trkpt>
      <trkpt lat="47.82251" lon="7.01777">
        <ele>1108.9</ele>
        <time>2022-01-13T11:43:06.671Z</time>
      </trkpt>
      <trkpt lat="47.82254" lon="7.01786">
        <ele>1108.3</ele>
        <time>2022-01-13T11:43:17.000Z</time>
      </trkpt>
      <trkpt lat="47.82255" lon="7.01788">
        <ele>1108.2</ele>
        <time>2022-01-13T11:43:28.000Z</time>
      </trkpt>
      <trkpt lat="47.82257" lon="7.01812">
        <ele>1107.3</ele>
        <time>2022-01-13T11:43:38.000Z</time>
      </trkpt>
      <trkpt lat="47.82259" lon="7.01824">
        <ele>1106.9</ele>
        <time>2022-01-13T11:43:47.230Z</time>
      </trkpt>
      <trkpt lat="47.82261" lon="7.01836">
        <ele>1106.5</ele>
        <time>2022-01-13T11:43:57.000Z</time>
      </trkpt>
      <trkpt lat="47.82262" lon="7.0185">
        <ele>1106.2</ele>
        <time>2022-01-13T11:44:06.792Z</time>
      </trkpt>
      <trkpt lat="47.82264" lon="7.01867">
        <ele>1105.9</ele>
        <time>2022-01-13T11:44:16.000Z</time>
      </trkpt>
      <trkpt lat="47.82266" lon="7.01874">
        <ele>1105.7</ele>
        <time>2022-01-13T11:44:26.000Z</time>
      </trkpt>
      <trkpt lat="47.82269" lon="7.01895">
        <ele>1105.2</ele>
        <time>2022-01-13T11:44:35.893Z</time>
      </trkpt>
      <trkpt lat="47.82269" lon="7.01903">
        <ele>1105.2</ele>
        <time>2022-01-13T11:44:45.000Z</time>
      </trkpt>
      <trkpt lat="47.8227" lon="7.0191">
        <ele>1105.1</ele>
        <time>2022-01-13T11:44:55.000Z</time>
      </trkpt>
      <trkpt lat="47.82272" lon="7.01924">
        <ele>1104.7</ele>
        <time>2022-01-13T11:45:04.555Z</time>
      </trkpt>
      <trkpt lat="47.82271" lon="7.01927">
        <ele>1104.6</ele>
        <time>2022-01-13T11:45:15.000Z</time>
      </trkpt>
      <trkpt lat="47.82266" lon="7.01943">
        <ele>1104</ele>
        <time>2022-01-13T11:45:24.189Z</time>
      </trkpt>
      <trkpt lat="47.82264" lon="7.01949">
        <ele>1103.9</ele>
        <time>2022-01-13T11:45:34.000Z</time>
      </trkpt>
      <trkpt lat="47.82257" lon="7.01962">
        <ele>1103.5</ele>
        <time>2022-01-13T11:45:44.000Z</time>
      </trkpt>
      <trkpt lat="47.82256" lon="7.01964">
        <ele>1103.5</ele>
        <time>2022-01-13T11:45:53.393Z</time>
      </trkpt>
      <trkpt lat="47.8225" lon="7.0197">
        <ele>1103</ele>
        <time>2022-01-13T11:46:02.669Z</time>
      </trkpt>
      <trkpt lat="47.82244" lon="7.01976">
        <ele>1102.3</ele>
        <time>2022-01-13T11:46:12.000Z</time>
      </trkpt>
      <trkpt lat="47.82244" lon="7.01977">
        <ele>1102.1</ele>
        <time>2022-01-13T11:46:26.000Z</time>
      </trkpt>
      <trkpt lat="47.82239" lon="7.01986">
        <ele>1101.3</ele>
        <time>2022-01-13T11:46:36.000Z</time>
      </trkpt>
      <trkpt lat="47.82238" lon="7.01986">
        <ele>1101.2</ele>
        <time>2022-01-13T11:47:53.000Z</time>
      </trkpt>
      <trkpt lat="47.82237" lon="7.01987">
        <ele>1101.1</ele>
        <time>2022-01-13T11:48:03.000Z</time>
      </trkpt>
      <trkpt lat="47.82235" lon="7.01988">
        <ele>1100.8</ele>
        <time>2022-01-13T11:48:13.000Z</time>
      </trkpt>
      <trkpt lat="47.82236" lon="7.01988">
        <ele>1100.9</ele>
        <time>2022-01-13T11:48:23.000Z</time>
      </trkpt>
      <trkpt lat="47.82238" lon="7.01989">
        <ele>1101.1</ele>
        <time>2022-01-13T11:48:43.000Z</time>
      </trkpt>
      <trkpt lat="47.82236" lon="7.0199">
        <ele>1100.9</ele>
        <time>2022-01-13T11:49:30.000Z</time>
      </trkpt>
      <trkpt lat="47.82238" lon="7.01985">
        <ele>1101.2</ele>
        <time>2022-01-13T11:49:40.000Z</time>
      </trkpt>
      <trkpt lat="47.82237" lon="7.0199">
        <ele>1100.9</ele>
        <time>2022-01-13T11:49:50.000Z</time>
      </trkpt>
      <trkpt lat="47.82234" lon="7.01992">
        <ele>1100.6</ele>
        <time>2022-01-13T11:50:20.000Z</time>
      </trkpt>
      <trkpt lat="47.82233" lon="7.01992">
        <ele>1100.4</ele>
        <time>2022-01-13T11:50:30.000Z</time>
      </trkpt>
      <trkpt lat="47.82237" lon="7.0199">
        <ele>1100.9</ele>
        <time>2022-01-13T12:00:27.000Z</time>
      </trkpt>
      <trkpt lat="47.82242" lon="7.01987">
        <ele>1101.5</ele>
        <time>2022-01-13T12:00:37.000Z</time>
      </trkpt>
      <trkpt lat="47.82243" lon="7.01986">
        <ele>1101.7</ele>
        <time>2022-01-13T12:03:13.000Z</time>
      </trkpt>
      <trkpt lat="47.82246" lon="7.0198">
        <ele>1102.3</ele>
        <time>2022-01-13T12:03:23.000Z</time>
      </trkpt>
      <trkpt lat="47.82243" lon="7.01984">
        <ele>1101.8</ele>
        <time>2022-01-13T12:03:58.000Z</time>
      </trkpt>
      <trkpt lat="47.82239" lon="7.01987">
        <ele>1101.2</ele>
        <time>2022-01-13T12:04:08.000Z</time>
      </trkpt>
      <trkpt lat="47.82237" lon="7.01989">
        <ele>1101</ele>
        <time>2022-01-13T12:05:03.000Z</time>
      </trkpt>
      <trkpt lat="47.82239" lon="7.01989">
        <ele>1101.2</ele>
        <time>2022-01-13T12:06:56.000Z</time>
      </trkpt>
      <trkpt lat="47.8224" lon="7.0199">
        <ele>1101.2</ele>
        <time>2022-01-13T12:07:06.000Z</time>
      </trkpt>
      <trkpt lat="47.82244" lon="7.01987">
        <ele>1101.8</ele>
        <time>2022-01-13T12:08:38.000Z</time>
      </trkpt>
      <trkpt lat="47.82244" lon="7.01984">
        <ele>1101.9</ele>
        <time>2022-01-13T12:08:48.000Z</time>
      </trkpt>
      <trkpt lat="47.82242" lon="7.01984">
        <ele>1101.7</ele>
        <time>2022-01-13T12:09:01.000Z</time>
      </trkpt>
      <trkpt lat="47.82239" lon="7.01984">
        <ele>1101.4</ele>
        <time>2022-01-13T12:09:11.000Z</time>
      </trkpt>
      <trkpt lat="47.82236" lon="7.01987">
        <ele>1100.9</ele>
        <time>2022-01-13T12:11:43.000Z</time>
      </trkpt>
      <trkpt lat="47.82232" lon="7.01993">
        <ele>1100.3</ele>
        <time>2022-01-13T12:11:53.000Z</time>
      </trkpt>
      <trkpt lat="47.82234" lon="7.01993">
        <ele>1100.5</ele>
        <time>2022-01-13T12:12:22.000Z</time>
      </trkpt>
      <trkpt lat="47.82237" lon="7.01991">
        <ele>1100.9</ele>
        <time>2022-01-13T12:12:32.000Z</time>
      </trkpt>
      <trkpt lat="47.82234" lon="7.01988">
        <ele>1100.7</ele>
        <time>2022-01-13T12:12:42.000Z</time>
      </trkpt>
      <trkpt lat="47.82229" lon="7.01992">
        <ele>1100</ele>
        <time>2022-01-13T12:12:52.000Z</time>
      </trkpt>
      <trkpt lat="47.8223" lon="7.01992">
        <ele>1100.1</ele>
        <time>2022-01-13T12:13:02.000Z</time>
      </trkpt>
      <trkpt lat="47.82232" lon="7.01987">
        <ele>1100.5</ele>
        <time>2022-01-13T12:13:12.000Z</time>
      </trkpt>
      <trkpt lat="47.82235" lon="7.01986">
        <ele>1100.9</ele>
        <time>2022-01-13T12:13:36.000Z</time>
      </trkpt>
      <trkpt lat="47.82244" lon="7.01985">
        <ele>1101.9</ele>
        <time>2022-01-13T12:13:46.000Z</time>
      </trkpt>
      <trkpt lat="47.82251" lon="7.01974">
        <ele>1103</ele>
        <time>2022-01-13T12:13:56.000Z</time>
      </trkpt>
      <trkpt lat="47.82255" lon="7.01972">
        <ele>1103.2</ele>
        <time>2022-01-13T12:14:05.892Z</time>
      </trkpt>
      <trkpt lat="47.82264" lon="7.01982">
        <ele>1103.4</ele>
        <time>2022-01-13T12:14:15.000Z</time>
      </trkpt>
      <trkpt lat="47.82267" lon="7.01986">
        <ele>1103.4</ele>
        <time>2022-01-13T12:14:24.731Z</time>
      </trkpt>
      <trkpt lat="47.82272" lon="7.01994">
        <ele>1103.6</ele>
        <time>2022-01-13T12:14:35.000Z</time>
      </trkpt>
      <trkpt lat="47.82276" lon="7.01997">
        <ele>1103.8</ele>
        <time>2022-01-13T12:14:52.000Z</time>
      </trkpt>
      <trkpt lat="47.8228" lon="7.02002">
        <ele>1103.9</ele>
        <time>2022-01-13T12:15:01.227Z</time>
      </trkpt>
      <trkpt lat="47.82281" lon="7.02022">
        <ele>1104</ele>
        <time>2022-01-13T12:15:11.000Z</time>
      </trkpt>
      <trkpt lat="47.82281" lon="7.02026">
        <ele>1104</ele>
        <time>2022-01-13T12:15:20.727Z</time>
      </trkpt>
      <trkpt lat="47.82283" lon="7.02044">
        <ele>1104.1</ele>
        <time>2022-01-13T12:15:30.000Z</time>
      </trkpt>
      <trkpt lat="47.82282" lon="7.02065">
        <ele>1104.5</ele>
        <time>2022-01-13T12:15:40.000Z</time>
      </trkpt>
      <trkpt lat="47.82284" lon="7.02076">
        <ele>1104.9</ele>
        <time>2022-01-13T12:15:49.749Z</time>
      </trkpt>
      <trkpt lat="47.82285" lon="7.02087">
        <ele>1105.3</ele>
        <time>2022-01-13T12:15:59.688Z</time>
      </trkpt>
      <trkpt lat="47.82288" lon="7.02104">
        <ele>1105.7</ele>
        <time>2022-01-13T12:16:09.000Z</time>
      </trkpt>
      <trkpt lat="47.82289" lon="7.02108">
        <ele>1105.7</ele>
        <time>2022-01-13T12:16:18.151Z</time>
      </trkpt>
      <trkpt lat="47.82292" lon="7.02129">
        <ele>1106.7</ele>
        <time>2022-01-13T12:16:28.000Z</time>
      </trkpt>
      <trkpt lat="47.82294" lon="7.02141">
        <ele>1107.3</ele>
        <time>2022-01-13T12:16:38.000Z</time>
      </trkpt>
      <trkpt lat="47.82295" lon="7.02148">
        <ele>1107.9</ele>
        <time>2022-01-13T12:16:47.869Z</time>
      </trkpt>
      <trkpt lat="47.82297" lon="7.02165">
        <ele>1109.3</ele>
        <time>2022-01-13T12:16:58.000Z</time>
      </trkpt>
      <trkpt lat="47.82299" lon="7.02187">
        <ele>1111</ele>
        <time>2022-01-13T12:17:07.151Z</time>
      </trkpt>
      <trkpt lat="47.82301" lon="7.02205">
        <ele>1112.6</ele>
        <time>2022-01-13T12:17:16.427Z</time>
      </trkpt>
      <trkpt lat="47.82301" lon="7.0221">
        <ele>1113.2</ele>
        <time>2022-01-13T12:17:25.674Z</time>
      </trkpt>
      <trkpt lat="47.82301" lon="7.02218">
        <ele>1114</ele>
        <time>2022-01-13T12:17:35.727Z</time>
      </trkpt>
      <trkpt lat="47.82302" lon="7.02222">
        <ele>1114.5</ele>
        <time>2022-01-13T12:17:44.767Z</time>
      </trkpt>
      <trkpt lat="47.82303" lon="7.02226">
        <ele>1114.8</ele>
        <time>2022-01-13T12:17:54.000Z</time>
      </trkpt>
      <trkpt lat="47.82305" lon="7.02238">
        <ele>1116</ele>
        <time>2022-01-13T12:18:03.431Z</time>
      </trkpt>
      <trkpt lat="47.82307" lon="7.02254">
        <ele>1117.4</ele>
        <time>2022-01-13T12:18:12.868Z</time>
      </trkpt>
      <trkpt lat="47.82308" lon="7.02256">
        <ele>1117.5</ele>
        <time>2022-01-13T12:18:22.625Z</time>
      </trkpt>
      <trkpt lat="47.8231" lon="7.02269">
        <ele>1118.6</ele>
        <time>2022-01-13T12:18:32.228Z</time>
      </trkpt>
      <trkpt lat="47.82312" lon="7.02285">
        <ele>1120.3</ele>
        <time>2022-01-13T12:18:41.329Z</time>
      </trkpt>
      <trkpt lat="47.82312" lon="7.02287">
        <ele>1120.7</ele>
        <time>2022-01-13T12:18:51.000Z</time>
      </trkpt>
      <trkpt lat="47.82313" lon="7.02301">
        <ele>1122.4</ele>
        <time>2022-01-13T12:19:00.330Z</time>
      </trkpt>
      <trkpt lat="47.82313" lon="7.02304">
        <ele>1123</ele>
        <time>2022-01-13T12:19:09.571Z</time>
      </trkpt>
      <trkpt lat="47.82315" lon="7.02318">
        <ele>1124.7</ele>
        <time>2022-01-13T12:19:20.000Z</time>
      </trkpt>
      <trkpt lat="47.82315" lon="7.02322">
        <ele>1125.1</ele>
        <time>2022-01-13T12:19:29.488Z</time>
      </trkpt>
      <trkpt lat="47.82316" lon="7.02337">
        <ele>1127.2</ele>
        <time>2022-01-13T12:19:39.000Z</time>
      </trkpt>
      <trkpt lat="47.82318" lon="7.02352">
        <ele>1129.8</ele>
        <time>2022-01-13T12:19:48.827Z</time>
      </trkpt>
      <trkpt lat="47.82318" lon="7.02354">
        <ele>1130.1</ele>
        <time>2022-01-13T12:19:58.000Z</time>
      </trkpt>
      <trkpt lat="47.82318" lon="7.02358">
        <ele>1130.7</ele>
        <time>2022-01-13T12:20:12.851Z</time>
      </trkpt>
      <trkpt lat="47.82318" lon="7.02371">
        <ele>1133.1</ele>
        <time>2022-01-13T12:20:22.000Z</time>
      </trkpt>
      <trkpt lat="47.82318" lon="7.02375">
        <ele>1133.8</ele>
        <time>2022-01-13T12:20:31.750Z</time>
      </trkpt>
      <trkpt lat="47.82317" lon="7.02387">
        <ele>1135.8</ele>
        <time>2022-01-13T12:20:41.486Z</time>
      </trkpt>
      <trkpt lat="47.82316" lon="7.02404">
        <ele>1138.4</ele>
        <time>2022-01-13T12:20:51.726Z</time>
      </trkpt>
      <trkpt lat="47.82316" lon="7.02408">
        <ele>1139</ele>
        <time>2022-01-13T12:21:04.387Z</time>
      </trkpt>
      <trkpt lat="47.82314" lon="7.02423">
        <ele>1141.3</ele>
        <time>2022-01-13T12:21:13.750Z</time>
      </trkpt>
      <trkpt lat="47.82314" lon="7.02427">
        <ele>1142.1</ele>
        <time>2022-01-13T12:21:24.000Z</time>
      </trkpt>
      <trkpt lat="47.82314" lon="7.02437">
        <ele>1143.8</ele>
        <time>2022-01-13T12:21:34.000Z</time>
      </trkpt>
      <trkpt lat="47.82312" lon="7.02434">
        <ele>1143.2</ele>
        <time>2022-01-13T12:22:28.000Z</time>
      </trkpt>
      <trkpt lat="47.82306" lon="7.0242">
        <ele>1139.7</ele>
        <time>2022-01-13T12:22:38.000Z</time>
      </trkpt>
      <trkpt lat="47.82312" lon="7.02431">
        <ele>1142.6</ele>
        <time>2022-01-13T12:22:48.000Z</time>
      </trkpt>
      <trkpt lat="47.82313" lon="7.02434">
        <ele>1143.3</ele>
        <time>2022-01-13T12:23:21.308Z</time>
      </trkpt>
      <trkpt lat="47.82313" lon="7.02441">
        <ele>1144.4</ele>
        <time>2022-01-13T12:23:30.348Z</time>
      </trkpt>
      <trkpt lat="47.82312" lon="7.02456">
        <ele>1147</ele>
        <time>2022-01-13T12:23:39.612Z</time>
      </trkpt>
      <trkpt lat="47.82312" lon="7.02459">
        <ele>1147.4</ele>
        <time>2022-01-13T12:23:49.000Z</time>
      </trkpt>
      <trkpt lat="47.82312" lon="7.02473">
        <ele>1149.9</ele>
        <time>2022-01-13T12:23:58.785Z</time>
      </trkpt>
      <trkpt lat="47.82312" lon="7.02475">
        <ele>1150.2</ele>
        <time>2022-01-13T12:24:08.248Z</time>
      </trkpt>
      <trkpt lat="47.82312" lon="7.02492">
        <ele>1153.1</ele>
        <time>2022-01-13T12:24:18.000Z</time>
      </trkpt>
      <trkpt lat="47.82312" lon="7.02508">
        <ele>1155.7</ele>
        <time>2022-01-13T12:24:28.000Z</time>
      </trkpt>
      <trkpt lat="47.82312" lon="7.02511">
        <ele>1156</ele>
        <time>2022-01-13T12:24:37.845Z</time>
      </trkpt>
      <trkpt lat="47.82309" lon="7.02526">
        <ele>1158</ele>
        <time>2022-01-13T12:24:47.000Z</time>
      </trkpt>
      <trkpt lat="47.82309" lon="7.02543">
        <ele>1159.2</ele>
        <time>2022-01-13T12:24:56.846Z</time>
      </trkpt>
      <trkpt lat="47.82309" lon="7.02545">
        <ele>1159.4</ele>
        <time>2022-01-13T12:25:06.249Z</time>
      </trkpt>
      <trkpt lat="47.82311" lon="7.02557">
        <ele>1160.1</ele>
        <time>2022-01-13T12:25:16.000Z</time>
      </trkpt>
      <trkpt lat="47.82312" lon="7.02571">
        <ele>1159.7</ele>
        <time>2022-01-13T12:25:26.000Z</time>
      </trkpt>
      <trkpt lat="47.82311" lon="7.02572">
        <ele>1159.6</ele>
        <time>2022-01-13T12:25:36.000Z</time>
      </trkpt>
      <trkpt lat="47.82311" lon="7.026">
        <ele>1156.8</ele>
        <time>2022-01-13T12:25:46.000Z</time>
      </trkpt>
      <trkpt lat="47.82311" lon="7.02607">
        <ele>1155.8</ele>
        <time>2022-01-13T12:25:56.000Z</time>
      </trkpt>
      <trkpt lat="47.82305" lon="7.0262">
        <ele>1153.7</ele>
        <time>2022-01-13T12:26:06.000Z</time>
      </trkpt>
      <trkpt lat="47.82301" lon="7.02632">
        <ele>1151.8</ele>
        <time>2022-01-13T12:26:15.326Z</time>
      </trkpt>
      <trkpt lat="47.82296" lon="7.02658">
        <ele>1147.2</ele>
        <time>2022-01-13T12:26:24.446Z</time>
      </trkpt>
      <trkpt lat="47.82289" lon="7.02686">
        <ele>1141.6</ele>
        <time>2022-01-13T12:26:33.630Z</time>
      </trkpt>
      <trkpt lat="47.82286" lon="7.02713">
        <ele>1136</ele>
        <time>2022-01-13T12:26:43.306Z</time>
      </trkpt>
      <trkpt lat="47.82286" lon="7.0274">
        <ele>1130</ele>
        <time>2022-01-13T12:26:52.587Z</time>
      </trkpt>
      <trkpt lat="47.82277" lon="7.02762">
        <ele>1123.9</ele>
        <time>2022-01-13T12:27:02.332Z</time>
      </trkpt>
      <trkpt lat="47.82268" lon="7.02782">
        <ele>1118.3</ele>
        <time>2022-01-13T12:27:11.826Z</time>
      </trkpt>
      <trkpt lat="47.82257" lon="7.02798">
        <ele>1113.3</ele>
        <time>2022-01-13T12:27:21.328Z</time>
      </trkpt>
      <trkpt lat="47.82247" lon="7.02817">
        <ele>1107.7</ele>
        <time>2022-01-13T12:27:31.000Z</time>
      </trkpt>
      <trkpt lat="47.82236" lon="7.02834">
        <ele>1102.4</ele>
        <time>2022-01-13T12:27:40.428Z</time>
      </trkpt>
      <trkpt lat="47.82226" lon="7.02852">
        <ele>1095.9</ele>
        <time>2022-01-13T12:27:50.065Z</time>
      </trkpt>
      <trkpt lat="47.82217" lon="7.02868">
        <ele>1091.1</ele>
        <time>2022-01-13T12:28:00.306Z</time>
      </trkpt>
      <trkpt lat="47.82206" lon="7.0288">
        <ele>1087.4</ele>
        <time>2022-01-13T12:28:10.330Z</time>
      </trkpt>
      <trkpt lat="47.82197" lon="7.02897">
        <ele>1081.8</ele>
        <time>2022-01-13T12:28:19.706Z</time>
      </trkpt>
      <trkpt lat="47.8219" lon="7.02906">
        <ele>1078.6</ele>
        <time>2022-01-13T12:28:29.000Z</time>
      </trkpt>
      <trkpt lat="47.82179" lon="7.02922">
        <ele>1073.9</ele>
        <time>2022-01-13T12:28:38.328Z</time>
      </trkpt>
      <trkpt lat="47.8217" lon="7.02938">
        <ele>1069</ele>
        <time>2022-01-13T12:28:48.214Z</time>
      </trkpt>
      <trkpt lat="47.82162" lon="7.02955">
        <ele>1064.4</ele>
        <time>2022-01-13T12:28:57.848Z</time>
      </trkpt>
      <trkpt lat="47.82161" lon="7.02956">
        <ele>1064.3</ele>
        <time>2022-01-13T12:29:07.000Z</time>
      </trkpt>
      <trkpt lat="47.82153" lon="7.02973">
        <ele>1060.4</ele>
        <time>2022-01-13T12:29:16.867Z</time>
      </trkpt>
      <trkpt lat="47.82146" lon="7.02985">
        <ele>1057.7</ele>
        <time>2022-01-13T12:29:26.000Z</time>
      </trkpt>
      <trkpt lat="47.82137" lon="7.03001">
        <ele>1053.9</ele>
        <time>2022-01-13T12:29:35.510Z</time>
      </trkpt>
      <trkpt lat="47.8213" lon="7.03011">
        <ele>1051.8</ele>
        <time>2022-01-13T12:29:44.670Z</time>
      </trkpt>
      <trkpt lat="47.82125" lon="7.03021">
        <ele>1049.3</ele>
        <time>2022-01-13T12:29:53.789Z</time>
      </trkpt>
      <trkpt lat="47.82117" lon="7.03034">
        <ele>1046.5</ele>
        <time>2022-01-13T12:30:03.232Z</time>
      </trkpt>
      <trkpt lat="47.82108" lon="7.03047">
        <ele>1043.2</ele>
        <time>2022-01-13T12:30:12.826Z</time>
      </trkpt>
      <trkpt lat="47.82106" lon="7.03051">
        <ele>1042.5</ele>
        <time>2022-01-13T12:30:22.000Z</time>
      </trkpt>
      <trkpt lat="47.82103" lon="7.03056">
        <ele>1041.8</ele>
        <time>2022-01-13T12:30:31.326Z</time>
      </trkpt>
      <trkpt lat="47.82093" lon="7.0307">
        <ele>1039.7</ele>
        <time>2022-01-13T12:30:40.426Z</time>
      </trkpt>
      <trkpt lat="47.8209" lon="7.03081">
        <ele>1037.2</ele>
        <time>2022-01-13T12:30:50.000Z</time>
      </trkpt>
      <trkpt lat="47.82085" lon="7.03095">
        <ele>1034.4</ele>
        <time>2022-01-13T12:30:59.427Z</time>
      </trkpt>
      <trkpt lat="47.8208" lon="7.03108">
        <ele>1031.9</ele>
        <time>2022-01-13T12:31:08.668Z</time>
      </trkpt>
      <trkpt lat="47.82074" lon="7.0312">
        <ele>1030.7</ele>
        <time>2022-01-13T12:31:17.688Z</time>
      </trkpt>
      <trkpt lat="47.82067" lon="7.03134">
        <ele>1028.9</ele>
        <time>2022-01-13T12:31:26.689Z</time>
      </trkpt>
      <trkpt lat="47.82066" lon="7.03136">
        <ele>1028.7</ele>
        <time>2022-01-13T12:31:35.786Z</time>
      </trkpt>
      <trkpt lat="47.82061" lon="7.03152">
        <ele>1026.4</ele>
        <time>2022-01-13T12:31:45.865Z</time>
      </trkpt>
      <trkpt lat="47.82055" lon="7.03168">
        <ele>1025</ele>
        <time>2022-01-13T12:31:55.000Z</time>
      </trkpt>
      <trkpt lat="47.82053" lon="7.03178">
        <ele>1023.1</ele>
        <time>2022-01-13T12:32:04.230Z</time>
      </trkpt>
      <trkpt lat="47.82049" lon="7.03197">
        <ele>1020.1</ele>
        <time>2022-01-13T12:32:13.430Z</time>
      </trkpt>
      <trkpt lat="47.82045" lon="7.03215">
        <ele>1017.2</ele>
        <time>2022-01-13T12:32:23.000Z</time>
      </trkpt>
      <trkpt lat="47.82045" lon="7.03229">
        <ele>1013.9</ele>
        <time>2022-01-13T12:32:32.368Z</time>
      </trkpt>
      <trkpt lat="47.82037" lon="7.03247">
        <ele>1012.6</ele>
        <time>2022-01-13T12:32:41.747Z</time>
      </trkpt>
      <trkpt lat="47.82032" lon="7.03256">
        <ele>1012.1</ele>
        <time>2022-01-13T12:32:50.807Z</time>
      </trkpt>
      <trkpt lat="47.82023" lon="7.03277">
        <ele>1009.6</ele>
        <time>2022-01-13T12:33:00.826Z</time>
      </trkpt>
      <trkpt lat="47.82017" lon="7.0329">
        <ele>1008.2</ele>
        <time>2022-01-13T12:33:10.125Z</time>
      </trkpt>
      <trkpt lat="47.82013" lon="7.03297">
        <ele>1007.4</ele>
        <time>2022-01-13T12:33:19.229Z</time>
      </trkpt>
      <trkpt lat="47.82006" lon="7.03312">
        <ele>1005.5</ele>
        <time>2022-01-13T12:33:28.866Z</time>
      </trkpt>
      <trkpt lat="47.81996" lon="7.03326">
        <ele>1004.1</ele>
        <time>2022-01-13T12:33:38.710Z</time>
      </trkpt>
      <trkpt lat="47.81984" lon="7.03334">
        <ele>1002.8</ele>
        <time>2022-01-13T12:33:47.889Z</time>
      </trkpt>
      <trkpt lat="47.81972" lon="7.03344">
        <ele>1001.3</ele>
        <time>2022-01-13T12:33:57.390Z</time>
      </trkpt>
      <trkpt lat="47.81962" lon="7.03355">
        <ele>1000.1</ele>
        <time>2022-01-13T12:34:07.450Z</time>
      </trkpt>
      <trkpt lat="47.8195" lon="7.03365">
        <ele>999</ele>
        <time>2022-01-13T12:34:17.548Z</time>
      </trkpt>
      <trkpt lat="47.81938" lon="7.03374">
        <ele>997.9</ele>
        <time>2022-01-13T12:34:27.000Z</time>
      </trkpt>
      <trkpt lat="47.81931" lon="7.03379">
        <ele>998.3</ele>
        <time>2022-01-13T12:34:36.610Z</time>
      </trkpt>
      <trkpt lat="47.81916" lon="7.03392">
        <ele>998</ele>
        <time>2022-01-13T12:34:45.709Z</time>
      </trkpt>
      <trkpt lat="47.81905" lon="7.03405">
        <ele>995.4</ele>
        <time>2022-01-13T12:34:55.686Z</time>
      </trkpt>
      <trkpt lat="47.81897" lon="7.03413">
        <ele>994</ele>
        <time>2022-01-13T12:35:05.490Z</time>
      </trkpt>
      <trkpt lat="47.81889" lon="7.03423">
        <ele>993.5</ele>
        <time>2022-01-13T12:35:15.448Z</time>
      </trkpt>
      <trkpt lat="47.81889" lon="7.03424">
        <ele>993.4</ele>
        <time>2022-01-13T12:35:25.371Z</time>
      </trkpt>
      <trkpt lat="47.81901" lon="7.03422">
        <ele>991.8</ele>
        <time>2022-01-13T12:35:35.000Z</time>
      </trkpt>
      <trkpt lat="47.81913" lon="7.03411">
        <ele>993.1</ele>
        <time>2022-01-13T12:35:45.000Z</time>
      </trkpt>
      <trkpt lat="47.81929" lon="7.03402">
        <ele>991.1</ele>
        <time>2022-01-13T12:35:54.070Z</time>
      </trkpt>
      <trkpt lat="47.8194" lon="7.03396">
        <ele>989.8</ele>
        <time>2022-01-13T12:36:03.230Z</time>
      </trkpt>
      <trkpt lat="47.81951" lon="7.03391">
        <ele>989.3</ele>
        <time>2022-01-13T12:36:12.689Z</time>
      </trkpt>
      <trkpt lat="47.81964" lon="7.03388">
        <ele>988.4</ele>
        <time>2022-01-13T12:36:22.607Z</time>
      </trkpt>
      <trkpt lat="47.81969" lon="7.03388">
        <ele>987.7</ele>
        <time>2022-01-13T12:36:31.706Z</time>
      </trkpt>
      <trkpt lat="47.81982" lon="7.03387">
        <ele>987.3</ele>
        <time>2022-01-13T12:36:41.288Z</time>
      </trkpt>
      <trkpt lat="47.81996" lon="7.03389">
        <ele>986.1</ele>
        <time>2022-01-13T12:36:50.427Z</time>
      </trkpt>
      <trkpt lat="47.81997" lon="7.0339">
        <ele>985.9</ele>
        <time>2022-01-13T12:36:59.548Z</time>
      </trkpt>
      <trkpt lat="47.81995" lon="7.03391">
        <ele>985.6</ele>
        <time>2022-01-13T12:37:08.805Z</time>
      </trkpt>
      <trkpt lat="47.81977" lon="7.03403">
        <ele>981.4</ele>
        <time>2022-01-13T12:37:19.000Z</time>
      </trkpt>
      <trkpt lat="47.81963" lon="7.03414">
        <ele>978.8</ele>
        <time>2022-01-13T12:37:28.686Z</time>
      </trkpt>
      <trkpt lat="47.8196" lon="7.03416">
        <ele>978.3</ele>
        <time>2022-01-13T12:37:38.690Z</time>
      </trkpt>
      <trkpt lat="47.81951" lon="7.03428">
        <ele>975</ele>
        <time>2022-01-13T12:37:48.546Z</time>
      </trkpt>
      <trkpt lat="47.81942" lon="7.03442">
        <ele>971.3</ele>
        <time>2022-01-13T12:37:57.566Z</time>
      </trkpt>
      <trkpt lat="47.81933" lon="7.03461">
        <ele>968.4</ele>
        <time>2022-01-13T12:38:06.785Z</time>
      </trkpt>
      <trkpt lat="47.81925" lon="7.03488">
        <ele>966.5</ele>
        <time>2022-01-13T12:38:16.810Z</time>
      </trkpt>
      <trkpt lat="47.81917" lon="7.03505">
        <ele>968.4</ele>
        <time>2022-01-13T12:38:26.705Z</time>
      </trkpt>
      <trkpt lat="47.81917" lon="7.0351">
        <ele>968.1</ele>
        <time>2022-01-13T12:38:35.810Z</time>
      </trkpt>
      <trkpt lat="47.81913" lon="7.03527">
        <ele>966.8</ele>
        <time>2022-01-13T12:38:45.228Z</time>
      </trkpt>
      <trkpt lat="47.8191" lon="7.03544">
        <ele>965.7</ele>
        <time>2022-01-13T12:38:54.407Z</time>
      </trkpt>
      <trkpt lat="47.81911" lon="7.03563">
        <ele>962.8</ele>
        <time>2022-01-13T12:39:03.470Z</time>
      </trkpt>
      <trkpt lat="47.81908" lon="7.0358">
        <ele>961.3</ele>
        <time>2022-01-13T12:39:13.000Z</time>
      </trkpt>
      <trkpt lat="47.81907" lon="7.03588">
        <ele>960.6</ele>
        <time>2022-01-13T12:39:23.000Z</time>
      </trkpt>
      <trkpt lat="47.81904" lon="7.03603">
        <ele>958.9</ele>
        <time>2022-01-13T12:39:32.804Z</time>
      </trkpt>
      <trkpt lat="47.81901" lon="7.03621">
        <ele>956.9</ele>
        <time>2022-01-13T12:39:42.232Z</time>
      </trkpt>
      <trkpt lat="47.81895" lon="7.0364">
        <ele>955.8</ele>
        <time>2022-01-13T12:39:52.000Z</time>
      </trkpt>
      <trkpt lat="47.81888" lon="7.03646">
        <ele>956.4</ele>
        <time>2022-01-13T12:40:02.000Z</time>
      </trkpt>
      <trkpt lat="47.81885" lon="7.03647">
        <ele>954.7</ele>
        <time>2022-01-13T12:40:12.000Z</time>
      </trkpt>
      <trkpt lat="47.81882" lon="7.0365">
        <ele>952.4</ele>
        <time>2022-01-13T12:40:50.000Z</time>
      </trkpt>
      <trkpt lat="47.81877" lon="7.03653">
        <ele>949.2</ele>
        <time>2022-01-13T12:41:00.000Z</time>
      </trkpt>
      <trkpt lat="47.81878" lon="7.0365">
        <ele>950.2</ele>
        <time>2022-01-13T12:41:56.288Z</time>
      </trkpt>
      <trkpt lat="47.81879" lon="7.03633">
        <ele>955.2</ele>
        <time>2022-01-13T12:42:05.326Z</time>
      </trkpt>
      <trkpt lat="47.81875" lon="7.03622">
        <ele>956.1</ele>
        <time>2022-01-13T12:42:14.566Z</time>
      </trkpt>
      <trkpt lat="47.81867" lon="7.03607">
        <ele>956.2</ele>
        <time>2022-01-13T12:42:24.210Z</time>
      </trkpt>
      <trkpt lat="47.81859" lon="7.03597">
        <ele>954.5</ele>
        <time>2022-01-13T12:42:34.000Z</time>
      </trkpt>
      <trkpt lat="47.81855" lon="7.03588">
        <ele>953.6</ele>
        <time>2022-01-13T12:42:44.000Z</time>
      </trkpt>
      <trkpt lat="47.81845" lon="7.03575">
        <ele>951.1</ele>
        <time>2022-01-13T12:42:53.068Z</time>
      </trkpt>
      <trkpt lat="47.81832" lon="7.03563">
        <ele>947.5</ele>
        <time>2022-01-13T12:43:02.730Z</time>
      </trkpt>
      <trkpt lat="47.81818" lon="7.03552">
        <ele>943.8</ele>
        <time>2022-01-13T12:43:12.406Z</time>
      </trkpt>
      <trkpt lat="47.81813" lon="7.03539">
        <ele>945.1</ele>
        <time>2022-01-13T12:43:22.000Z</time>
      </trkpt>
      <trkpt lat="47.81804" lon="7.03534">
        <ele>942.6</ele>
        <time>2022-01-13T12:43:31.691Z</time>
      </trkpt>
      <trkpt lat="47.81793" lon="7.0352">
        <ele>940.9</ele>
        <time>2022-01-13T12:43:40.808Z</time>
      </trkpt>
      <trkpt lat="47.81781" lon="7.03506">
        <ele>939.1</ele>
        <time>2022-01-13T12:43:49.827Z</time>
      </trkpt>
      <trkpt lat="47.81768" lon="7.03492">
        <ele>937.6</ele>
        <time>2022-01-13T12:43:59.230Z</time>
      </trkpt>
      <trkpt lat="47.81766" lon="7.03491">
        <ele>937.2</ele>
        <time>2022-01-13T12:44:09.266Z</time>
      </trkpt>
      <trkpt lat="47.81742" lon="7.03471">
        <ele>934.4</ele>
        <time>2022-01-13T12:44:18.708Z</time>
      </trkpt>
      <trkpt lat="47.81719" lon="7.03438">
        <ele>937.8</ele>
        <time>2022-01-13T12:44:28.585Z</time>
      </trkpt>
      <trkpt lat="47.81701" lon="7.03435">
        <ele>936.6</ele>
        <time>2022-01-13T12:44:38.508Z</time>
      </trkpt>
      <trkpt lat="47.81689" lon="7.03435">
        <ele>935.3</ele>
        <time>2022-01-13T12:44:47.945Z</time>
      </trkpt>
      <trkpt lat="47.81678" lon="7.03432">
        <ele>935</ele>
        <time>2022-01-13T12:44:58.000Z</time>
      </trkpt>
      <trkpt lat="47.81677" lon="7.03431">
        <ele>935.2</ele>
        <time>2022-01-13T12:45:07.505Z</time>
      </trkpt>
      <trkpt lat="47.81653" lon="7.03412">
        <ele>937.8</ele>
        <time>2022-01-13T12:45:16.531Z</time>
      </trkpt>
      <trkpt lat="47.81634" lon="7.03412">
        <ele>936.3</ele>
        <time>2022-01-13T12:45:25.610Z</time>
      </trkpt>
      <trkpt lat="47.81627" lon="7.03398">
        <ele>937.9</ele>
        <time>2022-01-13T12:45:34.671Z</time>
      </trkpt>
      <trkpt lat="47.81622" lon="7.03385">
        <ele>939.2</ele>
        <time>2022-01-13T12:45:45.000Z</time>
      </trkpt>
      <trkpt lat="47.81615" lon="7.03373">
        <ele>940</ele>
        <time>2022-01-13T12:45:55.000Z</time>
      </trkpt>
      <trkpt lat="47.81612" lon="7.0337">
        <ele>940.2</ele>
        <time>2022-01-13T12:46:05.309Z</time>
      </trkpt>
      <trkpt lat="47.81607" lon="7.03359">
        <ele>940.4</ele>
        <time>2022-01-13T12:46:16.000Z</time>
      </trkpt>
      <trkpt lat="47.81606" lon="7.03358">
        <ele>940.4</ele>
        <time>2022-01-13T12:46:26.000Z</time>
      </trkpt>
      <trkpt lat="47.81606" lon="7.03356">
        <ele>940.5</ele>
        <time>2022-01-13T12:47:40.650Z</time>
      </trkpt>
      <trkpt lat="47.81609" lon="7.03339">
        <ele>941.4</ele>
        <time>2022-01-13T12:47:49.788Z</time>
      </trkpt>
      <trkpt lat="47.81603" lon="7.03323">
        <ele>940.9</ele>
        <time>2022-01-13T12:47:59.000Z</time>
      </trkpt>
      <trkpt lat="47.81594" lon="7.03314">
        <ele>939.7</ele>
        <time>2022-01-13T12:48:08.009Z</time>
      </trkpt>
      <trkpt lat="47.81589" lon="7.03315">
        <ele>938.7</ele>
        <time>2022-01-13T12:48:17.268Z</time>
      </trkpt>
      <trkpt lat="47.8158" lon="7.03327">
        <ele>936.7</ele>
        <time>2022-01-13T12:48:26.487Z</time>
      </trkpt>
      <trkpt lat="47.81571" lon="7.03342">
        <ele>935.3</ele>
        <time>2022-01-13T12:48:35.767Z</time>
      </trkpt>
      <trkpt lat="47.81561" lon="7.03354">
        <ele>933.8</ele>
        <time>2022-01-13T12:48:45.691Z</time>
      </trkpt>
      <trkpt lat="47.81544" lon="7.03362">
        <ele>931.8</ele>
        <time>2022-01-13T12:48:55.751Z</time>
      </trkpt>
      <trkpt lat="47.81532" lon="7.03364">
        <ele>930.6</ele>
        <time>2022-01-13T12:49:05.091Z</time>
      </trkpt>
      <trkpt lat="47.81519" lon="7.03363">
        <ele>930.1</ele>
        <time>2022-01-13T12:49:14.727Z</time>
      </trkpt>
      <trkpt lat="47.81506" lon="7.03362">
        <ele>930.1</ele>
        <time>2022-01-13T12:49:24.571Z</time>
      </trkpt>
      <trkpt lat="47.81497" lon="7.0337">
        <ele>930.5</ele>
        <time>2022-01-13T12:49:34.766Z</time>
      </trkpt>
      <trkpt lat="47.81488" lon="7.03379">
        <ele>930.8</ele>
        <time>2022-01-13T12:49:45.000Z</time>
      </trkpt>
      <trkpt lat="47.81477" lon="7.03392">
        <ele>930.8</ele>
        <time>2022-01-13T12:49:54.706Z</time>
      </trkpt>
      <trkpt lat="47.81473" lon="7.03398">
        <ele>929.7</ele>
        <time>2022-01-13T12:50:04.000Z</time>
      </trkpt>
      <trkpt lat="47.81471" lon="7.03396">
        <ele>929.8</ele>
        <time>2022-01-13T12:50:30.306Z</time>
      </trkpt>
      <trkpt lat="47.81464" lon="7.03384">
        <ele>929.3</ele>
        <time>2022-01-13T12:50:39.333Z</time>
      </trkpt>
      <trkpt lat="47.81454" lon="7.03369">
        <ele>927.7</ele>
        <time>2022-01-13T12:50:48.630Z</time>
      </trkpt>
      <trkpt lat="47.81443" lon="7.0336">
        <ele>926.6</ele>
        <time>2022-01-13T12:50:58.230Z</time>
      </trkpt>
      <trkpt lat="47.81431" lon="7.03359">
        <ele>924.4</ele>
        <time>2022-01-13T12:51:07.509Z</time>
      </trkpt>
      <trkpt lat="47.81417" lon="7.0336">
        <ele>921.9</ele>
        <time>2022-01-13T12:51:16.887Z</time>
      </trkpt>
      <trkpt lat="47.81403" lon="7.03361">
        <ele>918.5</ele>
        <time>2022-01-13T12:51:26.287Z</time>
      </trkpt>
      <trkpt lat="47.81389" lon="7.03356">
        <ele>915</ele>
        <time>2022-01-13T12:51:36.311Z</time>
      </trkpt>
      <trkpt lat="47.81376" lon="7.03349">
        <ele>911.8</ele>
        <time>2022-01-13T12:51:45.611Z</time>
      </trkpt>
      <trkpt lat="47.81365" lon="7.03341">
        <ele>909.3</ele>
        <time>2022-01-13T12:51:54.852Z</time>
      </trkpt>
      <trkpt lat="47.81355" lon="7.03335">
        <ele>907.1</ele>
        <time>2022-01-13T12:52:04.428Z</time>
      </trkpt>
      <trkpt lat="47.8135" lon="7.0333">
        <ele>905.6</ele>
        <time>2022-01-13T12:52:13.666Z</time>
      </trkpt>
      <trkpt lat="47.81339" lon="7.0332">
        <ele>901.8</ele>
        <time>2022-01-13T12:52:23.688Z</time>
      </trkpt>
      <trkpt lat="47.81329" lon="7.03308">
        <ele>899.5</ele>
        <time>2022-01-13T12:52:33.448Z</time>
      </trkpt>
      <trkpt lat="47.81318" lon="7.03295">
        <ele>896.7</ele>
        <time>2022-01-13T12:52:43.000Z</time>
      </trkpt>
      <trkpt lat="47.813" lon="7.0328">
        <ele>891.8</ele>
        <time>2022-01-13T12:52:52.530Z</time>
      </trkpt>
      <trkpt lat="47.81287" lon="7.03273">
        <ele>888.8</ele>
        <time>2022-01-13T12:53:01.787Z</time>
      </trkpt>
      <trkpt lat="47.81273" lon="7.03269">
        <ele>886.3</ele>
        <time>2022-01-13T12:53:12.000Z</time>
      </trkpt>
      <trkpt lat="47.8126" lon="7.03269">
        <ele>883.7</ele>
        <time>2022-01-13T12:53:21.751Z</time>
      </trkpt>
      <trkpt lat="47.81247" lon="7.03271">
        <ele>881.6</ele>
        <time>2022-01-13T12:53:31.128Z</time>
      </trkpt>
      <trkpt lat="47.81233" lon="7.0327">
        <ele>879</ele>
        <time>2022-01-13T12:53:40.269Z</time>
      </trkpt>
      <trkpt lat="47.81221" lon="7.03272">
        <ele>877</ele>
        <time>2022-01-13T12:53:49.871Z</time>
      </trkpt>
      <trkpt lat="47.81207" lon="7.03276">
        <ele>874.4</ele>
        <time>2022-01-13T12:53:59.249Z</time>
      </trkpt>
      <trkpt lat="47.81204" lon="7.03278">
        <ele>873.9</ele>
        <time>2022-01-13T12:54:08.691Z</time>
      </trkpt>
      <trkpt lat="47.81185" lon="7.0329">
        <ele>869.1</ele>
        <time>2022-01-13T12:54:18.609Z</time>
      </trkpt>
      <trkpt lat="47.81163" lon="7.03308">
        <ele>864.5</ele>
        <time>2022-01-13T12:54:28.626Z</time>
      </trkpt>
      <trkpt lat="47.81153" lon="7.03323">
        <ele>862.6</ele>
        <time>2022-01-13T12:54:37.672Z</time>
      </trkpt>
      <trkpt lat="47.81145" lon="7.03335">
        <ele>861.4</ele>
        <time>2022-01-13T12:54:47.031Z</time>
      </trkpt>
      <trkpt lat="47.81139" lon="7.03346">
        <ele>861</ele>
        <time>2022-01-13T12:54:56.748Z</time>
      </trkpt>
      <trkpt lat="47.81132" lon="7.03359">
        <ele>860.7</ele>
        <time>2022-01-13T12:55:06.729Z</time>
      </trkpt>
      <trkpt lat="47.81127" lon="7.0337">
        <ele>861</ele>
        <time>2022-01-13T12:55:16.112Z</time>
      </trkpt>
      <trkpt lat="47.81125" lon="7.03377">
        <ele>861.4</ele>
        <time>2022-01-13T12:55:26.469Z</time>
      </trkpt>
      <trkpt lat="47.81115" lon="7.03399">
        <ele>862.4</ele>
        <time>2022-01-13T12:55:36.450Z</time>
      </trkpt>
      <trkpt lat="47.81112" lon="7.03405">
        <ele>862.6</ele>
        <time>2022-01-13T12:55:45.689Z</time>
      </trkpt>
      <trkpt lat="47.81109" lon="7.03422">
        <ele>863.2</ele>
        <time>2022-01-13T12:55:55.288Z</time>
      </trkpt>
      <trkpt lat="47.81107" lon="7.03436">
        <ele>863.9</ele>
        <time>2022-01-13T12:56:04.829Z</time>
      </trkpt>
      <trkpt lat="47.81106" lon="7.0345">
        <ele>864.2</ele>
        <time>2022-01-13T12:56:14.150Z</time>
      </trkpt>
      <trkpt lat="47.81098" lon="7.03469">
        <ele>863.2</ele>
        <time>2022-01-13T12:56:23.292Z</time>
      </trkpt>
      <trkpt lat="47.81097" lon="7.03472">
        <ele>863</ele>
        <time>2022-01-13T12:56:33.000Z</time>
      </trkpt>
      <trkpt lat="47.81091" lon="7.03475">
        <ele>861.9</ele>
        <time>2022-01-13T12:56:43.000Z</time>
      </trkpt>
      <trkpt lat="47.81093" lon="7.03474">
        <ele>862.3</ele>
        <time>2022-01-13T12:56:53.000Z</time>
      </trkpt>
      <trkpt lat="47.8108" lon="7.03493">
        <ele>859.5</ele>
        <time>2022-01-13T12:57:02.234Z</time>
      </trkpt>
      <trkpt lat="47.81071" lon="7.03505">
        <ele>857.6</ele>
        <time>2022-01-13T12:57:11.668Z</time>
      </trkpt>
      <trkpt lat="47.81061" lon="7.03516">
        <ele>856.3</ele>
        <time>2022-01-13T12:57:21.010Z</time>
      </trkpt>
      <trkpt lat="47.81053" lon="7.03529">
        <ele>855.9</ele>
        <time>2022-01-13T12:57:30.630Z</time>
      </trkpt>
      <trkpt lat="47.8105" lon="7.03536">
        <ele>856.1</ele>
        <time>2022-01-13T12:57:39.870Z</time>
      </trkpt>
      <trkpt lat="47.81047" lon="7.03542">
        <ele>856.4</ele>
        <time>2022-01-13T12:57:49.891Z</time>
      </trkpt>
      <trkpt lat="47.81039" lon="7.03559">
        <ele>857.8</ele>
        <time>2022-01-13T12:57:58.930Z</time>
      </trkpt>
      <trkpt lat="47.81033" lon="7.03574">
        <ele>858.6</ele>
        <time>2022-01-13T12:58:08.000Z</time>
      </trkpt>
      <trkpt lat="47.81027" lon="7.03585">
        <ele>859</ele>
        <time>2022-01-13T12:58:17.111Z</time>
      </trkpt>
      <trkpt lat="47.81023" lon="7.03597">
        <ele>859.3</ele>
        <time>2022-01-13T12:58:26.711Z</time>
      </trkpt>
      <trkpt lat="47.81021" lon="7.03604">
        <ele>859.5</ele>
        <time>2022-01-13T12:58:36.000Z</time>
      </trkpt>
      <trkpt lat="47.81011" lon="7.03619">
        <ele>859.2</ele>
        <time>2022-01-13T12:58:45.446Z</time>
      </trkpt>
      <trkpt lat="47.81003" lon="7.0363">
        <ele>859</ele>
        <time>2022-01-13T12:58:55.526Z</time>
      </trkpt>
      <trkpt lat="47.80995" lon="7.03642">
        <ele>857.8</ele>
        <time>2022-01-13T12:59:05.068Z</time>
      </trkpt>
      <trkpt lat="47.80992" lon="7.03646">
        <ele>857.2</ele>
        <time>2022-01-13T12:59:14.569Z</time>
      </trkpt>
      <trkpt lat="47.80976" lon="7.03653">
        <ele>854.3</ele>
        <time>2022-01-13T12:59:23.588Z</time>
      </trkpt>
      <trkpt lat="47.80965" lon="7.0366">
        <ele>851.4</ele>
        <time>2022-01-13T12:59:34.000Z</time>
      </trkpt>
      <trkpt lat="47.80958" lon="7.03672">
        <ele>848.7</ele>
        <time>2022-01-13T12:59:43.689Z</time>
      </trkpt>
      <trkpt lat="47.80954" lon="7.03677">
        <ele>846.7</ele>
        <time>2022-01-13T12:59:52.710Z</time>
      </trkpt>
      <trkpt lat="47.80945" lon="7.03687">
        <ele>842.8</ele>
        <time>2022-01-13T13:00:02.365Z</time>
      </trkpt>
      <trkpt lat="47.80933" lon="7.03698">
        <ele>838.2</ele>
        <time>2022-01-13T13:00:11.430Z</time>
      </trkpt>
      <trkpt lat="47.80919" lon="7.03708">
        <ele>833.6</ele>
        <time>2022-01-13T13:00:20.887Z</time>
      </trkpt>
      <trkpt lat="47.80911" lon="7.03714">
        <ele>831.6</ele>
        <time>2022-01-13T13:00:30.000Z</time>
      </trkpt>
      <trkpt lat="47.80898" lon="7.03726">
        <ele>828.7</ele>
        <time>2022-01-13T13:00:39.126Z</time>
      </trkpt>
      <trkpt lat="47.8089" lon="7.03734">
        <ele>827.2</ele>
        <time>2022-01-13T13:00:48.466Z</time>
      </trkpt>
      <trkpt lat="47.80883" lon="7.0374">
        <ele>826.7</ele>
        <time>2022-01-13T13:00:57.868Z</time>
      </trkpt>
      <trkpt lat="47.80876" lon="7.03743">
        <ele>826.7</ele>
        <time>2022-01-13T13:01:07.350Z</time>
      </trkpt>
      <trkpt lat="47.80861" lon="7.03752">
        <ele>827.6</ele>
        <time>2022-01-13T13:01:16.891Z</time>
      </trkpt>
      <trkpt lat="47.80856" lon="7.03756">
        <ele>826.6</ele>
        <time>2022-01-13T13:01:26.000Z</time>
      </trkpt>
      <trkpt lat="47.80844" lon="7.03769">
        <ele>824.9</ele>
        <time>2022-01-13T13:01:36.000Z</time>
      </trkpt>
      <trkpt lat="47.80836" lon="7.0378">
        <ele>825</ele>
        <time>2022-01-13T13:01:46.000Z</time>
      </trkpt>
      <trkpt lat="47.80834" lon="7.03782">
        <ele>825.4</ele>
        <time>2022-01-13T13:01:56.000Z</time>
      </trkpt>
      <trkpt lat="47.80826" lon="7.03794">
        <ele>827.2</ele>
        <time>2022-01-13T13:02:06.000Z</time>
      </trkpt>
      <trkpt lat="47.80825" lon="7.03797">
        <ele>827.7</ele>
        <time>2022-01-13T13:02:18.408Z</time>
      </trkpt>
      <trkpt lat="47.80819" lon="7.03806">
        <ele>829.6</ele>
        <time>2022-01-13T13:02:27.830Z</time>
      </trkpt>
      <trkpt lat="47.80817" lon="7.0381">
        <ele>830.4</ele>
        <time>2022-01-13T13:02:36.850Z</time>
      </trkpt>
      <trkpt lat="47.80811" lon="7.03819">
        <ele>832.8</ele>
        <time>2022-01-13T13:02:46.369Z</time>
      </trkpt>
      <trkpt lat="47.80808" lon="7.03825">
        <ele>834.6</ele>
        <time>2022-01-13T13:02:56.746Z</time>
      </trkpt>
      <trkpt lat="47.80804" lon="7.03832">
        <ele>836.6</ele>
        <time>2022-01-13T13:03:06.000Z</time>
      </trkpt>
      <trkpt lat="47.80795" lon="7.03843">
        <ele>837.5</ele>
        <time>2022-01-13T13:03:15.428Z</time>
      </trkpt>
      <trkpt lat="47.80794" lon="7.03844">
        <ele>837.6</ele>
        <time>2022-01-13T13:03:24.888Z</time>
      </trkpt>
      <trkpt lat="47.80785" lon="7.03855">
        <ele>839.3</ele>
        <time>2022-01-13T13:03:34.567Z</time>
      </trkpt>
      <trkpt lat="47.80776" lon="7.03873">
        <ele>841.3</ele>
        <time>2022-01-13T13:03:44.000Z</time>
      </trkpt>
      <trkpt lat="47.80768" lon="7.03882">
        <ele>841.4</ele>
        <time>2022-01-13T13:03:53.731Z</time>
      </trkpt>
      <trkpt lat="47.80761" lon="7.03896">
        <ele>841.7</ele>
        <time>2022-01-13T13:04:02.756Z</time>
      </trkpt>
      <trkpt lat="47.80753" lon="7.03904">
        <ele>842.2</ele>
        <time>2022-01-13T13:04:12.286Z</time>
      </trkpt>
      <trkpt lat="47.80742" lon="7.03912">
        <ele>840.9</ele>
        <time>2022-01-13T13:04:21.689Z</time>
      </trkpt>
      <trkpt lat="47.80732" lon="7.03924">
        <ele>837.3</ele>
        <time>2022-01-13T13:04:31.886Z</time>
      </trkpt>
      <trkpt lat="47.80729" lon="7.03931">
        <ele>835.8</ele>
        <time>2022-01-13T13:04:41.647Z</time>
      </trkpt>
      <trkpt lat="47.80722" lon="7.03943">
        <ele>833</ele>
        <time>2022-01-13T13:04:50.688Z</time>
      </trkpt>
      <trkpt lat="47.80713" lon="7.03953">
        <ele>828.6</ele>
        <time>2022-01-13T13:05:00.229Z</time>
      </trkpt>
      <trkpt lat="47.80712" lon="7.03956">
        <ele>827.6</ele>
        <time>2022-01-13T13:05:09.506Z</time>
      </trkpt>
      <trkpt lat="47.80706" lon="7.03976">
        <ele>822.9</ele>
        <time>2022-01-13T13:05:18.687Z</time>
      </trkpt>
      <trkpt lat="47.80698" lon="7.03994">
        <ele>818.3</ele>
        <time>2022-01-13T13:05:28.000Z</time>
      </trkpt>
      <trkpt lat="47.80691" lon="7.0401">
        <ele>814.2</ele>
        <time>2022-01-13T13:05:37.712Z</time>
      </trkpt>
      <trkpt lat="47.80686" lon="7.04026">
        <ele>809.8</ele>
        <time>2022-01-13T13:05:47.486Z</time>
      </trkpt>
      <trkpt lat="47.80685" lon="7.04031">
        <ele>808.5</ele>
        <time>2022-01-13T13:05:56.828Z</time>
      </trkpt>
      <trkpt lat="47.80683" lon="7.04045">
        <ele>805.3</ele>
        <time>2022-01-13T13:06:07.000Z</time>
      </trkpt>
      <trkpt lat="47.8068" lon="7.04061">
        <ele>801.8</ele>
        <time>2022-01-13T13:06:16.710Z</time>
      </trkpt>
      <trkpt lat="47.80677" lon="7.04077">
        <ele>798.3</ele>
        <time>2022-01-13T13:06:25.809Z</time>
      </trkpt>
      <trkpt lat="47.80677" lon="7.04079">
        <ele>798.2</ele>
        <time>2022-01-13T13:06:35.000Z</time>
      </trkpt>
      <trkpt lat="47.80678" lon="7.04098">
        <ele>793.4</ele>
        <time>2022-01-13T13:06:44.805Z</time>
      </trkpt>
      <trkpt lat="47.80672" lon="7.04116">
        <ele>786.8</ele>
        <time>2022-01-13T13:06:54.000Z</time>
      </trkpt>
      <trkpt lat="47.80672" lon="7.04129">
        <ele>783.2</ele>
        <time>2022-01-13T13:07:03.671Z</time>
      </trkpt>
      <trkpt lat="47.80673" lon="7.04158">
        <ele>775.6</ele>
        <time>2022-01-13T13:07:13.000Z</time>
      </trkpt>
      <trkpt lat="47.8067" lon="7.04181">
        <ele>769.3</ele>
        <time>2022-01-13T13:07:23.000Z</time>
      </trkpt>
      <trkpt lat="47.80666" lon="7.04193">
        <ele>766.1</ele>
        <time>2022-01-13T13:07:32.786Z</time>
      </trkpt>
      <trkpt lat="47.80662" lon="7.04201">
        <ele>763</ele>
        <time>2022-01-13T13:07:42.291Z</time>
      </trkpt>
      <trkpt lat="47.80651" lon="7.0422">
        <ele>755.6</ele>
        <time>2022-01-13T13:07:51.428Z</time>
      </trkpt>
      <trkpt lat="47.80645" lon="7.0422">
        <ele>754.6</ele>
        <time>2022-01-13T13:08:00.609Z</time>
      </trkpt>
      <trkpt lat="47.80641" lon="7.04226">
        <ele>752.7</ele>
        <time>2022-01-13T13:08:09.849Z</time>
      </trkpt>
      <trkpt lat="47.80641" lon="7.04228">
        <ele>752.3</ele>
        <time>2022-01-13T13:08:19.000Z</time>
      </trkpt>
      <trkpt lat="47.80652" lon="7.04246">
        <ele>749.5</ele>
        <time>2022-01-13T13:08:28.389Z</time>
      </trkpt>
      <trkpt lat="47.80657" lon="7.0426">
        <ele>748.2</ele>
        <time>2022-01-13T13:08:37.509Z</time>
      </trkpt>
      <trkpt lat="47.80659" lon="7.04267">
        <ele>747.7</ele>
        <time>2022-01-13T13:08:46.790Z</time>
      </trkpt>
      <trkpt lat="47.80663" lon="7.04284">
        <ele>747.3</ele>
        <time>2022-01-13T13:08:55.851Z</time>
      </trkpt>
      <trkpt lat="47.8067" lon="7.04298">
        <ele>747.5</ele>
        <time>2022-01-13T13:09:05.000Z</time>
      </trkpt>
      <trkpt lat="47.80671" lon="7.04304">
        <ele>747.7</ele>
        <time>2022-01-13T13:09:14.350Z</time>
      </trkpt>
      <trkpt lat="47.80675" lon="7.04317">
        <ele>749.3</ele>
        <time>2022-01-13T13:09:24.000Z</time>
      </trkpt>
      <trkpt lat="47.80677" lon="7.04335">
        <ele>751.8</ele>
        <time>2022-01-13T13:09:34.000Z</time>
      </trkpt>
      <trkpt lat="47.80681" lon="7.04354">
        <ele>753.6</ele>
        <time>2022-01-13T13:09:43.386Z</time>
      </trkpt>
      <trkpt lat="47.80682" lon="7.04356">
        <ele>753.5</ele>
        <time>2022-01-13T13:09:52.887Z</time>
      </trkpt>
      <trkpt lat="47.80693" lon="7.04377">
        <ele>754.3</ele>
        <time>2022-01-13T13:10:02.746Z</time>
      </trkpt>
      <trkpt lat="47.80703" lon="7.04392">
        <ele>753</ele>
        <time>2022-01-13T13:10:11.984Z</time>
      </trkpt>
      <trkpt lat="47.80705" lon="7.04406">
        <ele>753.2</ele>
        <time>2022-01-13T13:10:21.244Z</time>
      </trkpt>
      <trkpt lat="47.80709" lon="7.04424">
        <ele>753.7</ele>
        <time>2022-01-13T13:10:30.272Z</time>
      </trkpt>
      <trkpt lat="47.8071" lon="7.04442">
        <ele>755.7</ele>
        <time>2022-01-13T13:10:40.000Z</time>
      </trkpt>
      <trkpt lat="47.80715" lon="7.04447">
        <ele>753.4</ele>
        <time>2022-01-13T13:10:50.000Z</time>
      </trkpt>
      <trkpt lat="47.80718" lon="7.04445">
        <ele>751.1</ele>
        <time>2022-01-13T13:11:00.000Z</time>
      </trkpt>
      <trkpt lat="47.8071" lon="7.04448">
        <ele>757.5</ele>
        <time>2022-01-13T13:11:10.000Z</time>
      </trkpt>
      <trkpt lat="47.80709" lon="7.0445">
        <ele>758.1</ele>
        <time>2022-01-13T13:11:20.000Z</time>
      </trkpt>
      <trkpt lat="47.80711" lon="7.04451">
        <ele>757.1</ele>
        <time>2022-01-13T13:11:30.000Z</time>
      </trkpt>
      <trkpt lat="47.80722" lon="7.04466">
        <ele>753.7</ele>
        <time>2022-01-13T13:11:40.000Z</time>
      </trkpt>
      <trkpt lat="47.80729" lon="7.04487">
        <ele>755.5</ele>
        <time>2022-01-13T13:11:49.871Z</time>
      </trkpt>
      <trkpt lat="47.80738" lon="7.04505">
        <ele>755.3</ele>
        <time>2022-01-13T13:11:59.369Z</time>
      </trkpt>
      <trkpt lat="47.80741" lon="7.04517">
        <ele>756.5</ele>
        <time>2022-01-13T13:12:08.466Z</time>
      </trkpt>
      <trkpt lat="47.80749" lon="7.04532">
        <ele>756</ele>
        <time>2022-01-13T13:12:17.529Z</time>
      </trkpt>
      <trkpt lat="47.8075" lon="7.04537">
        <ele>756.1</ele>
        <time>2022-01-13T13:12:27.000Z</time>
      </trkpt>
      <trkpt lat="47.80761" lon="7.04552">
        <ele>752.2</ele>
        <time>2022-01-13T13:12:36.152Z</time>
      </trkpt>
      <trkpt lat="47.80767" lon="7.04565">
        <ele>750.2</ele>
        <time>2022-01-13T13:12:46.251Z</time>
      </trkpt>
      <trkpt lat="47.80767" lon="7.04579">
        <ele>752.7</ele>
        <time>2022-01-13T13:12:55.709Z</time>
      </trkpt>
      <trkpt lat="47.80768" lon="7.0458">
        <ele>752.3</ele>
        <time>2022-01-13T13:13:05.426Z</time>
      </trkpt>
      <trkpt lat="47.80774" lon="7.04593">
        <ele>755</ele>
        <time>2022-01-13T13:13:14.973Z</time>
      </trkpt>
      <trkpt lat="47.8078" lon="7.04595">
        <ele>753</ele>
        <time>2022-01-13T13:13:24.000Z</time>
      </trkpt>
      <trkpt lat="47.80798" lon="7.04597">
        <ele>744.8</ele>
        <time>2022-01-13T13:13:33.668Z</time>
      </trkpt>
      <trkpt lat="47.80806" lon="7.04601">
        <ele>743.2</ele>
        <time>2022-01-13T13:13:43.000Z</time>
      </trkpt>
      <trkpt lat="47.80808" lon="7.04602">
        <ele>743.9</ele>
        <time>2022-01-13T13:13:57.210Z</time>
      </trkpt>
      <trkpt lat="47.80824" lon="7.04602">
        <ele>745.7</ele>
        <time>2022-01-13T13:14:07.000Z</time>
      </trkpt>
      <trkpt lat="47.80833" lon="7.04603">
        <ele>747.5</ele>
        <time>2022-01-13T13:14:17.000Z</time>
      </trkpt>
      <trkpt lat="47.80841" lon="7.04616">
        <ele>751.4</ele>
        <time>2022-01-13T13:14:27.000Z</time>
      </trkpt>
      <trkpt lat="47.80843" lon="7.04619">
        <ele>751.3</ele>
        <time>2022-01-13T13:14:39.485Z</time>
      </trkpt>
      <trkpt lat="47.80854" lon="7.04635">
        <ele>751</ele>
        <time>2022-01-13T13:14:48.691Z</time>
      </trkpt>
      <trkpt lat="47.80872" lon="7.0465">
        <ele>745.9</ele>
        <time>2022-01-13T13:14:58.467Z</time>
      </trkpt>
      <trkpt lat="47.80878" lon="7.04657">
        <ele>745.8</ele>
        <time>2022-01-13T13:15:07.847Z</time>
      </trkpt>
      <trkpt lat="47.80885" lon="7.04671">
        <ele>748.1</ele>
        <time>2022-01-13T13:15:17.367Z</time>
      </trkpt>
      <trkpt lat="47.80893" lon="7.04687">
        <ele>749</ele>
        <time>2022-01-13T13:15:26.368Z</time>
      </trkpt>
      <trkpt lat="47.80901" lon="7.04704">
        <ele>749.9</ele>
        <time>2022-01-13T13:15:35.404Z</time>
      </trkpt>
      <trkpt lat="47.80909" lon="7.0472">
        <ele>748.5</ele>
        <time>2022-01-13T13:15:45.347Z</time>
      </trkpt>
      <trkpt lat="47.80916" lon="7.04736">
        <ele>746.3</ele>
        <time>2022-01-13T13:15:55.000Z</time>
      </trkpt>
      <trkpt lat="47.80921" lon="7.04754">
        <ele>745.3</ele>
        <time>2022-01-13T13:16:04.389Z</time>
      </trkpt>
      <trkpt lat="47.80928" lon="7.04772">
        <ele>740.9</ele>
        <time>2022-01-13T13:16:13.650Z</time>
      </trkpt>
      <trkpt lat="47.80931" lon="7.04789">
        <ele>738.5</ele>
        <time>2022-01-13T13:16:23.000Z</time>
      </trkpt>
      <trkpt lat="47.80932" lon="7.04791">
        <ele>738</ele>
        <time>2022-01-13T13:16:33.000Z</time>
      </trkpt>
      <trkpt lat="47.80936" lon="7.04805">
        <ele>734.2</ele>
        <time>2022-01-13T13:16:42.749Z</time>
      </trkpt>
      <trkpt lat="47.80937" lon="7.04805">
        <ele>733.5</ele>
        <time>2022-01-13T13:16:59.000Z</time>
      </trkpt>
      <trkpt lat="47.8096" lon="7.04852">
        <ele>735.3</ele>
        <time>2022-01-13T13:17:08.067Z</time>
      </trkpt>
      <trkpt lat="47.80957" lon="7.04858">
        <ele>738.8</ele>
        <time>2022-01-13T13:17:18.000Z</time>
      </trkpt>
      <trkpt lat="47.80965" lon="7.04866">
        <ele>741.2</ele>
        <time>2022-01-13T13:17:27.705Z</time>
      </trkpt>
      <trkpt lat="47.80969" lon="7.04868">
        <ele>741.2</ele>
        <time>2022-01-13T13:17:37.610Z</time>
      </trkpt>
      <trkpt lat="47.80979" lon="7.0487">
        <ele>739.9</ele>
        <time>2022-01-13T13:17:47.000Z</time>
      </trkpt>
      <trkpt lat="47.80993" lon="7.04874">
        <ele>738.6</ele>
        <time>2022-01-13T13:17:56.630Z</time>
      </trkpt>
      <trkpt lat="47.81007" lon="7.04874">
        <ele>736</ele>
        <time>2022-01-13T13:18:06.090Z</time>
      </trkpt>
      <trkpt lat="47.81019" lon="7.04878">
        <ele>735.9</ele>
        <time>2022-01-13T13:18:15.410Z</time>
      </trkpt>
      <trkpt lat="47.8103" lon="7.04891">
        <ele>738.8</ele>
        <time>2022-01-13T13:18:24.569Z</time>
      </trkpt>
      <trkpt lat="47.81037" lon="7.04898">
        <ele>738.9</ele>
        <time>2022-01-13T13:18:34.627Z</time>
      </trkpt>
      <trkpt lat="47.81055" lon="7.04906">
        <ele>735.6</ele>
        <time>2022-01-13T13:18:44.128Z</time>
      </trkpt>
      <trkpt lat="47.81067" lon="7.04917">
        <ele>733.4</ele>
        <time>2022-01-13T13:18:53.428Z</time>
      </trkpt>
      <trkpt lat="47.81077" lon="7.04928">
        <ele>731.8</ele>
        <time>2022-01-13T13:19:02.707Z</time>
      </trkpt>
      <trkpt lat="47.81079" lon="7.04932">
        <ele>732</ele>
        <time>2022-01-13T13:19:12.328Z</time>
      </trkpt>
      <trkpt lat="47.81087" lon="7.04944">
        <ele>731.7</ele>
        <time>2022-01-13T13:19:22.000Z</time>
      </trkpt>
      <trkpt lat="47.81096" lon="7.04953">
        <ele>730</ele>
        <time>2022-01-13T13:19:32.000Z</time>
      </trkpt>
      <trkpt lat="47.81105" lon="7.0496">
        <ele>727.7</ele>
        <time>2022-01-13T13:19:41.832Z</time>
      </trkpt>
      <trkpt lat="47.81107" lon="7.04963">
        <ele>727.6</ele>
        <time>2022-01-13T13:19:51.000Z</time>
      </trkpt>
      <trkpt lat="47.81121" lon="7.04982">
        <ele>726.3</ele>
        <time>2022-01-13T13:20:00.034Z</time>
      </trkpt>
      <trkpt lat="47.81133" lon="7.05007">
        <ele>727.2</ele>
        <time>2022-01-13T13:20:09.286Z</time>
      </trkpt>
      <trkpt lat="47.81135" lon="7.0501">
        <ele>727.3</ele>
        <time>2022-01-13T13:20:18.586Z</time>
      </trkpt>
      <trkpt lat="47.81146" lon="7.05021">
        <ele>725.4</ele>
        <time>2022-01-13T13:20:28.000Z</time>
      </trkpt>
      <trkpt lat="47.81158" lon="7.05033">
        <ele>723.2</ele>
        <time>2022-01-13T13:20:37.789Z</time>
      </trkpt>
      <trkpt lat="47.81167" lon="7.05048">
        <ele>722.7</ele>
        <time>2022-01-13T13:20:47.792Z</time>
      </trkpt>
      <trkpt lat="47.81176" lon="7.05063">
        <ele>722.8</ele>
        <time>2022-01-13T13:20:57.151Z</time>
      </trkpt>
      <trkpt lat="47.81184" lon="7.0508">
        <ele>723.2</ele>
        <time>2022-01-13T13:21:06.433Z</time>
      </trkpt>
      <trkpt lat="47.81193" lon="7.05095">
        <ele>723.2</ele>
        <time>2022-01-13T13:21:15.471Z</time>
      </trkpt>
      <trkpt lat="47.81203" lon="7.05108">
        <ele>722.4</ele>
        <time>2022-01-13T13:21:24.486Z</time>
      </trkpt>
      <trkpt lat="47.81213" lon="7.05121">
        <ele>720.7</ele>
        <time>2022-01-13T13:21:34.270Z</time>
      </trkpt>
      <trkpt lat="47.81217" lon="7.05125">
        <ele>720.3</ele>
        <time>2022-01-13T13:21:43.348Z</time>
      </trkpt>
      <trkpt lat="47.81223" lon="7.05138">
        <ele>720.1</ele>
        <time>2022-01-13T13:21:52.849Z</time>
      </trkpt>
      <trkpt lat="47.81231" lon="7.05152">
        <ele>719</ele>
        <time>2022-01-13T13:22:02.109Z</time>
      </trkpt>
      <trkpt lat="47.81239" lon="7.05165">
        <ele>718.2</ele>
        <time>2022-01-13T13:22:11.711Z</time>
      </trkpt>
      <trkpt lat="47.81248" lon="7.05181">
        <ele>715.2</ele>
        <time>2022-01-13T13:22:21.571Z</time>
      </trkpt>
      <trkpt lat="47.81254" lon="7.05199">
        <ele>714.2</ele>
        <time>2022-01-13T13:22:31.000Z</time>
      </trkpt>
      <trkpt lat="47.81257" lon="7.05218">
        <ele>715.7</ele>
        <time>2022-01-13T13:22:40.587Z</time>
      </trkpt>
      <trkpt lat="47.81262" lon="7.05235">
        <ele>714.4</ele>
        <time>2022-01-13T13:22:49.590Z</time>
      </trkpt>
      <trkpt lat="47.81265" lon="7.05258">
        <ele>714.4</ele>
        <time>2022-01-13T13:22:59.353Z</time>
      </trkpt>
      <trkpt lat="47.81269" lon="7.05276">
        <ele>713.1</ele>
        <time>2022-01-13T13:23:08.448Z</time>
      </trkpt>
      <trkpt lat="47.81271" lon="7.05281">
        <ele>712</ele>
        <time>2022-01-13T13:23:17.470Z</time>
      </trkpt>
      <trkpt lat="47.81274" lon="7.05293">
        <ele>710.2</ele>
        <time>2022-01-13T13:23:26.507Z</time>
      </trkpt>
      <trkpt lat="47.81277" lon="7.05311">
        <ele>708.4</ele>
        <time>2022-01-13T13:23:36.509Z</time>
      </trkpt>
      <trkpt lat="47.81278" lon="7.05314">
        <ele>707.8</ele>
        <time>2022-01-13T13:23:45.687Z</time>
      </trkpt>
      <trkpt lat="47.81292" lon="7.05347">
        <ele>699.3</ele>
        <time>2022-01-13T13:23:55.108Z</time>
      </trkpt>
      <trkpt lat="47.81299" lon="7.05369">
        <ele>696.9</ele>
        <time>2022-01-13T13:24:04.888Z</time>
      </trkpt>
      <trkpt lat="47.81306" lon="7.05385">
        <ele>694.4</ele>
        <time>2022-01-13T13:24:14.000Z</time>
      </trkpt>
      <trkpt lat="47.81315" lon="7.05404">
        <ele>691.8</ele>
        <time>2022-01-13T13:24:23.470Z</time>
      </trkpt>
      <trkpt lat="47.81324" lon="7.05422">
        <ele>689.7</ele>
        <time>2022-01-13T13:24:32.788Z</time>
      </trkpt>
      <trkpt lat="47.81331" lon="7.05435">
        <ele>688.4</ele>
        <time>2022-01-13T13:24:42.510Z</time>
      </trkpt>
      <trkpt lat="47.81335" lon="7.05442">
        <ele>687.5</ele>
        <time>2022-01-13T13:24:52.586Z</time>
      </trkpt>
      <trkpt lat="47.81345" lon="7.05456">
        <ele>685.3</ele>
        <time>2022-01-13T13:25:02.000Z</time>
      </trkpt>
      <trkpt lat="47.81354" lon="7.05476">
        <ele>684.4</ele>
        <time>2022-01-13T13:25:11.206Z</time>
      </trkpt>
      <trkpt lat="47.8136" lon="7.05487">
        <ele>682.5</ele>
        <time>2022-01-13T13:25:21.000Z</time>
      </trkpt>
      <trkpt lat="47.81361" lon="7.0549">
        <ele>682.3</ele>
        <time>2022-01-13T13:25:31.000Z</time>
      </trkpt>
      <trkpt lat="47.81363" lon="7.05496">
        <ele>682.3</ele>
        <time>2022-01-13T13:25:49.627Z</time>
      </trkpt>
      <trkpt lat="47.81371" lon="7.05509">
        <ele>679.1</ele>
        <time>2022-01-13T13:25:59.027Z</time>
      </trkpt>
      <trkpt lat="47.81377" lon="7.05526">
        <ele>676.1</ele>
        <time>2022-01-13T13:26:08.710Z</time>
      </trkpt>
      <trkpt lat="47.81379" lon="7.05543">
        <ele>672.7</ele>
        <time>2022-01-13T13:26:18.000Z</time>
      </trkpt>
      <trkpt lat="47.81381" lon="7.05561">
        <ele>669</ele>
        <time>2022-01-13T13:26:27.146Z</time>
      </trkpt>
      <trkpt lat="47.8138" lon="7.05576">
        <ele>666</ele>
        <time>2022-01-13T13:26:36.265Z</time>
      </trkpt>
      <trkpt lat="47.8138" lon="7.05592">
        <ele>663</ele>
        <time>2022-01-13T13:26:45.328Z</time>
      </trkpt>
      <trkpt lat="47.81379" lon="7.05603">
        <ele>660.9</ele>
        <time>2022-01-13T13:26:54.751Z</time>
      </trkpt>
      <trkpt lat="47.81373" lon="7.05625">
        <ele>658.4</ele>
        <time>2022-01-13T13:27:04.000Z</time>
      </trkpt>
      <trkpt lat="47.8139" lon="7.05665">
        <ele>642</ele>
        <time>2022-01-13T13:27:13.769Z</time>
      </trkpt>
      <trkpt lat="47.81378" lon="7.05658">
        <ele>648.4</ele>
        <time>2022-01-13T13:27:22.847Z</time>
      </trkpt>
      <trkpt lat="47.81364" lon="7.05665">
        <ele>653.1</ele>
        <time>2022-01-13T13:27:32.000Z</time>
      </trkpt>
      <trkpt lat="47.81362" lon="7.05686">
        <ele>647.9</ele>
        <time>2022-01-13T13:27:41.849Z</time>
      </trkpt>
      <trkpt lat="47.81356" lon="7.05696">
        <ele>647.8</ele>
        <time>2022-01-13T13:27:51.324Z</time>
      </trkpt>
      <trkpt lat="47.81329" lon="7.05736">
        <ele>648.7</ele>
        <time>2022-01-13T13:28:00.650Z</time>
      </trkpt>
      <trkpt lat="47.81332" lon="7.05734">
        <ele>648.1</ele>
        <time>2022-01-13T13:28:10.647Z</time>
      </trkpt>
      <trkpt lat="47.81332" lon="7.05736">
        <ele>647.5</ele>
        <time>2022-01-13T13:28:20.550Z</time>
      </trkpt>
      <trkpt lat="47.81336" lon="7.05749">
        <ele>643.3</ele>
        <time>2022-01-13T13:28:30.667Z</time>
      </trkpt>
      <trkpt lat="47.81347" lon="7.05761">
        <ele>637.6</ele>
        <time>2022-01-13T13:28:40.128Z</time>
      </trkpt>
      <trkpt lat="47.81358" lon="7.05771">
        <ele>632.8</ele>
        <time>2022-01-13T13:28:49.627Z</time>
      </trkpt>
      <trkpt lat="47.81375" lon="7.05786">
        <ele>627.5</ele>
        <time>2022-01-13T13:28:59.546Z</time>
      </trkpt>
      <trkpt lat="47.81383" lon="7.05791">
        <ele>625.6</ele>
        <time>2022-01-13T13:29:09.428Z</time>
      </trkpt>
      <trkpt lat="47.81395" lon="7.058">
        <ele>622.8</ele>
        <time>2022-01-13T13:29:19.049Z</time>
      </trkpt>
      <trkpt lat="47.81406" lon="7.05808">
        <ele>621.1</ele>
        <time>2022-01-13T13:29:28.248Z</time>
      </trkpt>
      <trkpt lat="47.81421" lon="7.0582">
        <ele>619.2</ele>
        <time>2022-01-13T13:29:37.808Z</time>
      </trkpt>
      <trkpt lat="47.81442" lon="7.05834">
        <ele>617.2</ele>
        <time>2022-01-13T13:29:47.727Z</time>
      </trkpt>
      <trkpt lat="47.81443" lon="7.05836">
        <ele>617</ele>
        <time>2022-01-13T13:29:57.649Z</time>
      </trkpt>
      <trkpt lat="47.81458" lon="7.0583">
        <ele>617</ele>
        <time>2022-01-13T13:30:07.147Z</time>
      </trkpt>
      <trkpt lat="47.81473" lon="7.05828">
        <ele>616.8</ele>
        <time>2022-01-13T13:30:17.000Z</time>
      </trkpt>
      <trkpt lat="47.81486" lon="7.05817">
        <ele>615.6</ele>
        <time>2022-01-13T13:30:26.148Z</time>
      </trkpt>
      <trkpt lat="47.81502" lon="7.05817">
        <ele>614.8</ele>
        <time>2022-01-13T13:30:35.548Z</time>
      </trkpt>
      <trkpt lat="47.81506" lon="7.05818">
        <ele>614.8</ele>
        <time>2022-01-13T13:30:45.149Z</time>
      </trkpt>
      <trkpt lat="47.81521" lon="7.05814">
        <ele>614.1</ele>
        <time>2022-01-13T13:30:54.410Z</time>
      </trkpt>
      <trkpt lat="47.81533" lon="7.05814">
        <ele>613.8</ele>
        <time>2022-01-13T13:31:04.000Z</time>
      </trkpt>
      <trkpt lat="47.81548" lon="7.05811">
        <ele>613.1</ele>
        <time>2022-01-13T13:31:13.209Z</time>
      </trkpt>
      <trkpt lat="47.81558" lon="7.05806">
        <ele>612.2</ele>
        <time>2022-01-13T13:31:22.688Z</time>
      </trkpt>
      <trkpt lat="47.81571" lon="7.05799">
        <ele>611.4</ele>
        <time>2022-01-13T13:31:32.250Z</time>
      </trkpt>
      <trkpt lat="47.81582" lon="7.0579">
        <ele>609.7</ele>
        <time>2022-01-13T13:31:41.610Z</time>
      </trkpt>
      <trkpt lat="47.81594" lon="7.05781">
        <ele>608.3</ele>
        <time>2022-01-13T13:31:51.068Z</time>
      </trkpt>
      <trkpt lat="47.81607" lon="7.05771">
        <ele>605.5</ele>
        <time>2022-01-13T13:32:00.146Z</time>
      </trkpt>
      <trkpt lat="47.81622" lon="7.0577">
        <ele>605.9</ele>
        <time>2022-01-13T13:32:09.169Z</time>
      </trkpt>
      <trkpt lat="47.81632" lon="7.05758">
        <ele>602.9</ele>
        <time>2022-01-13T13:32:18.786Z</time>
      </trkpt>
      <trkpt lat="47.81645" lon="7.05748">
        <ele>599.2</ele>
        <time>2022-01-13T13:32:28.173Z</time>
      </trkpt>
      <trkpt lat="47.81658" lon="7.0574">
        <ele>594.4</ele>
        <time>2022-01-13T13:32:37.849Z</time>
      </trkpt>
      <trkpt lat="47.81666" lon="7.05745">
        <ele>595.1</ele>
        <time>2022-01-13T13:32:47.000Z</time>
      </trkpt>
      <trkpt lat="47.81679" lon="7.05751">
        <ele>594.3</ele>
        <time>2022-01-13T13:32:56.103Z</time>
      </trkpt>
      <trkpt lat="47.81691" lon="7.05757">
        <ele>592.9</ele>
        <time>2022-01-13T13:33:05.269Z</time>
      </trkpt>
      <trkpt lat="47.81692" lon="7.05758">
        <ele>592.9</ele>
        <time>2022-01-13T13:33:14.769Z</time>
      </trkpt>
      <trkpt lat="47.81706" lon="7.05775">
        <ele>591</ele>
        <time>2022-01-13T13:33:23.870Z</time>
      </trkpt>
      <trkpt lat="47.81718" lon="7.05786">
        <ele>589</ele>
        <time>2022-01-13T13:33:33.390Z</time>
      </trkpt>
      <trkpt lat="47.81735" lon="7.058">
        <ele>586.8</ele>
        <time>2022-01-13T13:33:42.447Z</time>
      </trkpt>
      <trkpt lat="47.81741" lon="7.05799">
        <ele>584.2</ele>
        <time>2022-01-13T13:33:52.471Z</time>
      </trkpt>
      <trkpt lat="47.81752" lon="7.05806">
        <ele>582.6</ele>
        <time>2022-01-13T13:34:02.000Z</time>
      </trkpt>
      <trkpt lat="47.8175" lon="7.05806">
        <ele>583.4</ele>
        <time>2022-01-13T13:34:15.000Z</time>
      </trkpt>
      <trkpt lat="47.81745" lon="7.0581">
        <ele>587.2</ele>
        <time>2022-01-13T13:34:25.000Z</time>
      </trkpt>
      <trkpt lat="47.81742" lon="7.05815">
        <ele>590.5</ele>
        <time>2022-01-13T13:34:35.000Z</time>
      </trkpt>
      <trkpt lat="47.81742" lon="7.05813">
        <ele>589.6</ele>
        <time>2022-01-13T13:34:45.000Z</time>
      </trkpt>
      <trkpt lat="47.81757" lon="7.05812">
        <ele>584.8</ele>
        <time>2022-01-13T13:34:54.270Z</time>
      </trkpt>
      <trkpt lat="47.81772" lon="7.05818">
        <ele>583.4</ele>
        <time>2022-01-13T13:35:04.220Z</time>
      </trkpt>
      <trkpt lat="47.81786" lon="7.05822">
        <ele>579.5</ele>
        <time>2022-01-13T13:35:13.231Z</time>
      </trkpt>
      <trkpt lat="47.81788" lon="7.05824">
        <ele>579.6</ele>
        <time>2022-01-13T13:35:23.248Z</time>
      </trkpt>
      <trkpt lat="47.818" lon="7.05834">
        <ele>577</ele>
        <time>2022-01-13T13:35:32.549Z</time>
      </trkpt>
      <trkpt lat="47.81812" lon="7.05843">
        <ele>573.8</ele>
        <time>2022-01-13T13:35:42.470Z</time>
      </trkpt>
      <trkpt lat="47.81824" lon="7.05853">
        <ele>571.4</ele>
        <time>2022-01-13T13:35:52.000Z</time>
      </trkpt>
      <trkpt lat="47.81832" lon="7.05866">
        <ele>571</ele>
        <time>2022-01-13T13:36:01.505Z</time>
      </trkpt>
      <trkpt lat="47.8184" lon="7.05876">
        <ele>571</ele>
        <time>2022-01-13T13:36:10.530Z</time>
      </trkpt>
      <trkpt lat="47.81851" lon="7.05887">
        <ele>569.5</ele>
        <time>2022-01-13T13:36:20.586Z</time>
      </trkpt>
      <trkpt lat="47.81865" lon="7.059">
        <ele>567.2</ele>
        <time>2022-01-13T13:36:29.671Z</time>
      </trkpt>
      <trkpt lat="47.81876" lon="7.05905">
        <ele>564.2</ele>
        <time>2022-01-13T13:36:38.808Z</time>
      </trkpt>
      <trkpt lat="47.81889" lon="7.05916">
        <ele>562.5</ele>
        <time>2022-01-13T13:36:48.000Z</time>
      </trkpt>
      <trkpt lat="47.81897" lon="7.05923">
        <ele>561</ele>
        <time>2022-01-13T13:36:57.208Z</time>
      </trkpt>
      <trkpt lat="47.81909" lon="7.05935">
        <ele>559.6</ele>
        <time>2022-01-13T13:37:06.223Z</time>
      </trkpt>
      <trkpt lat="47.81919" lon="7.05945">
        <ele>558.8</ele>
        <time>2022-01-13T13:37:15.367Z</time>
      </trkpt>
      <trkpt lat="47.81933" lon="7.05958">
        <ele>557.2</ele>
        <time>2022-01-13T13:37:24.811Z</time>
      </trkpt>
      <trkpt lat="47.81942" lon="7.05967">
        <ele>556.8</ele>
        <time>2022-01-13T13:37:34.848Z</time>
      </trkpt>
      <trkpt lat="47.81949" lon="7.05974">
        <ele>556.4</ele>
        <time>2022-01-13T13:37:45.000Z</time>
      </trkpt>
      <trkpt lat="47.81963" lon="7.05987">
        <ele>554.6</ele>
        <time>2022-01-13T13:37:54.611Z</time>
      </trkpt>
      <trkpt lat="47.81973" lon="7.05996">
        <ele>552.1</ele>
        <time>2022-01-13T13:38:05.000Z</time>
      </trkpt>
      <trkpt lat="47.81982" lon="7.06008">
        <ele>549.3</ele>
        <time>2022-01-13T13:38:14.786Z</time>
      </trkpt>
      <trkpt lat="47.81989" lon="7.06028">
        <ele>548.1</ele>
        <time>2022-01-13T13:38:24.215Z</time>
      </trkpt>
      <trkpt lat="47.81998" lon="7.06052">
        <ele>545.4</ele>
        <time>2022-01-13T13:38:33.529Z</time>
      </trkpt>
      <trkpt lat="47.82006" lon="7.06069">
        <ele>543.3</ele>
        <time>2022-01-13T13:38:43.547Z</time>
      </trkpt>
      <trkpt lat="47.82012" lon="7.06082">
        <ele>543.1</ele>
        <time>2022-01-13T13:38:52.668Z</time>
      </trkpt>
      <trkpt lat="47.82022" lon="7.06103">
        <ele>541.5</ele>
        <time>2022-01-13T13:39:03.000Z</time>
      </trkpt>
      <trkpt lat="47.82018" lon="7.06121">
        <ele>539.9</ele>
        <time>2022-01-13T13:39:13.000Z</time>
      </trkpt>
      <trkpt lat="47.82017" lon="7.06125">
        <ele>539.3</ele>
        <time>2022-01-13T13:39:23.000Z</time>
      </trkpt>
      <trkpt lat="47.8201" lon="7.06136">
        <ele>538.7</ele>
        <time>2022-01-13T13:39:32.387Z</time>
      </trkpt>
      <trkpt lat="47.82005" lon="7.06156">
        <ele>535.5</ele>
        <time>2022-01-13T13:39:41.488Z</time>
      </trkpt>
      <trkpt lat="47.82001" lon="7.06175">
        <ele>533.2</ele>
        <time>2022-01-13T13:39:50.491Z</time>
      </trkpt>
      <trkpt lat="47.82" lon="7.06182">
        <ele>533.1</ele>
        <time>2022-01-13T13:40:00.000Z</time>
      </trkpt>
      <trkpt lat="47.81997" lon="7.06194">
        <ele>533.1</ele>
        <time>2022-01-13T13:40:09.571Z</time>
      </trkpt>
      <trkpt lat="47.81997" lon="7.06214">
        <ele>531.1</ele>
        <time>2022-01-13T13:40:18.790Z</time>
      </trkpt>
      <trkpt lat="47.81996" lon="7.06241">
        <ele>529.8</ele>
        <time>2022-01-13T13:40:28.000Z</time>
      </trkpt>
      <trkpt lat="47.81999" lon="7.06262">
        <ele>528</ele>
        <time>2022-01-13T13:40:37.289Z</time>
      </trkpt>
      <trkpt lat="47.82002" lon="7.06276">
        <ele>526.1</ele>
        <time>2022-01-13T13:40:46.647Z</time>
      </trkpt>
      <trkpt lat="47.82007" lon="7.06298">
        <ele>524.2</ele>
        <time>2022-01-13T13:40:56.147Z</time>
      </trkpt>
      <trkpt lat="47.82013" lon="7.06318">
        <ele>521.9</ele>
        <time>2022-01-13T13:41:06.000Z</time>
      </trkpt>
      <trkpt lat="47.82019" lon="7.06335">
        <ele>520.1</ele>
        <time>2022-01-13T13:41:15.528Z</time>
      </trkpt>
      <trkpt lat="47.82022" lon="7.06348">
        <ele>519.3</ele>
        <time>2022-01-13T13:41:24.747Z</time>
      </trkpt>
      <trkpt lat="47.8203" lon="7.06339">
        <ele>515.7</ele>
        <time>2022-01-13T13:41:35.000Z</time>
      </trkpt>
      <trkpt lat="47.82035" lon="7.06344">
        <ele>513.9</ele>
        <time>2022-01-13T13:41:44.372Z</time>
      </trkpt>
      <trkpt lat="47.82044" lon="7.06367">
        <ele>511.4</ele>
        <time>2022-01-13T13:41:53.670Z</time>
      </trkpt>
      <trkpt lat="47.82048" lon="7.06372">
        <ele>510</ele>
        <time>2022-01-13T13:42:02.808Z</time>
      </trkpt>
      <trkpt lat="47.82057" lon="7.06386">
        <ele>507.3</ele>
        <time>2022-01-13T13:42:12.550Z</time>
      </trkpt>
      <trkpt lat="47.82068" lon="7.064">
        <ele>503.6</ele>
        <time>2022-01-13T13:42:22.028Z</time>
      </trkpt>
      <trkpt lat="47.82075" lon="7.06409">
        <ele>501.3</ele>
        <time>2022-01-13T13:42:31.287Z</time>
      </trkpt>
      <trkpt lat="47.82086" lon="7.06422">
        <ele>498.6</ele>
        <time>2022-01-13T13:42:40.371Z</time>
      </trkpt>
      <trkpt lat="47.82097" lon="7.06432">
        <ele>495.6</ele>
        <time>2022-01-13T13:42:49.872Z</time>
      </trkpt>
      <trkpt lat="47.82105" lon="7.06441">
        <ele>494</ele>
        <time>2022-01-13T13:42:59.000Z</time>
      </trkpt>
      <trkpt lat="47.82111" lon="7.06448">
        <ele>492.7</ele>
        <time>2022-01-13T13:43:09.266Z</time>
      </trkpt>
      <trkpt lat="47.82122" lon="7.06458">
        <ele>489.5</ele>
        <time>2022-01-13T13:43:18.308Z</time>
      </trkpt>
      <trkpt lat="47.82135" lon="7.06469">
        <ele>485.3</ele>
        <time>2022-01-13T13:43:27.850Z</time>
      </trkpt>
      <trkpt lat="47.82146" lon="7.06482">
        <ele>480.9</ele>
        <time>2022-01-13T13:43:38.000Z</time>
      </trkpt>
      <trkpt lat="47.82153" lon="7.06499">
        <ele>478</ele>
        <time>2022-01-13T13:43:47.267Z</time>
      </trkpt>
      <trkpt lat="47.8216" lon="7.06522">
        <ele>475.4</ele>
        <time>2022-01-13T13:43:56.528Z</time>
      </trkpt>
      <trkpt lat="47.82163" lon="7.06545">
        <ele>474.1</ele>
        <time>2022-01-13T13:44:06.404Z</time>
      </trkpt>
      <trkpt lat="47.82167" lon="7.06545">
        <ele>471.8</ele>
        <time>2022-01-13T13:44:15.691Z</time>
      </trkpt>
      <trkpt lat="47.82172" lon="7.06571">
        <ele>468.5</ele>
        <time>2022-01-13T13:44:25.000Z</time>
      </trkpt>
      <trkpt lat="47.82175" lon="7.06577">
        <ele>466.6</ele>
        <time>2022-01-13T13:44:34.528Z</time>
      </trkpt>
      <trkpt lat="47.82176" lon="7.06555">
        <ele>466.4</ele>
        <time>2022-01-13T13:44:44.586Z</time>
      </trkpt>
      <trkpt lat="47.8218" lon="7.06529">
        <ele>464.6</ele>
        <time>2022-01-13T13:44:54.711Z</time>
      </trkpt>
      <trkpt lat="47.82183" lon="7.06509">
        <ele>462.6</ele>
        <time>2022-01-13T13:45:04.108Z</time>
      </trkpt>
      <trkpt lat="47.82185" lon="7.06502">
        <ele>461.6</ele>
        <time>2022-01-13T13:45:13.548Z</time>
      </trkpt>
      <trkpt lat="47.82188" lon="7.06486">
        <ele>460.4</ele>
        <time>2022-01-13T13:45:22.550Z</time>
      </trkpt>
      <trkpt lat="47.82192" lon="7.06455">
        <ele>457.5</ele>
        <time>2022-01-13T13:45:32.051Z</time>
      </trkpt>
      <trkpt lat="47.82198" lon="7.06449">
        <ele>455.1</ele>
        <time>2022-01-13T13:45:41.149Z</time>
      </trkpt>
      <trkpt lat="47.82201" lon="7.0645">
        <ele>454.3</ele>
        <time>2022-01-13T13:45:50.629Z</time>
      </trkpt>
      <trkpt lat="47.82211" lon="7.06471">
        <ele>450.9</ele>
        <time>2022-01-13T13:46:00.000Z</time>
      </trkpt>
      <trkpt lat="47.8222" lon="7.06485">
        <ele>447.5</ele>
        <time>2022-01-13T13:46:09.386Z</time>
      </trkpt>
      <trkpt lat="47.82224" lon="7.06494">
        <ele>445.7</ele>
        <time>2022-01-13T13:46:18.450Z</time>
      </trkpt>
      <trkpt lat="47.82235" lon="7.06511">
        <ele>443</ele>
        <time>2022-01-13T13:46:27.707Z</time>
      </trkpt>
      <trkpt lat="47.82237" lon="7.06539">
        <ele>441.3</ele>
        <time>2022-01-13T13:46:36.844Z</time>
      </trkpt>
      <trkpt lat="47.82245" lon="7.0655">
        <ele>438.7</ele>
        <time>2022-01-13T13:46:47.000Z</time>
      </trkpt>
      <trkpt lat="47.8226" lon="7.06565">
        <ele>435</ele>
        <time>2022-01-13T13:46:57.000Z</time>
      </trkpt>
      <trkpt lat="47.82271" lon="7.0657">
        <ele>432.4</ele>
        <time>2022-01-13T13:47:06.269Z</time>
      </trkpt>
      <trkpt lat="47.82286" lon="7.0658">
        <ele>428.7</ele>
        <time>2022-01-13T13:47:15.327Z</time>
      </trkpt>
      <trkpt lat="47.82287" lon="7.06582">
        <ele>428.4</ele>
        <time>2022-01-13T13:47:24.330Z</time>
      </trkpt>
      <trkpt lat="47.82298" lon="7.06592">
        <ele>425.8</ele>
        <time>2022-01-13T13:47:34.000Z</time>
      </trkpt>
      <trkpt lat="47.82306" lon="7.06599">
        <ele>423.9</ele>
        <time>2022-01-13T13:47:43.370Z</time>
      </trkpt>
      <trkpt lat="47.82317" lon="7.06607">
        <ele>421.2</ele>
        <time>2022-01-13T13:47:52.428Z</time>
      </trkpt>
      <trkpt lat="47.82328" lon="7.06615">
        <ele>418.8</ele>
        <time>2022-01-13T13:48:02.000Z</time>
      </trkpt>
      <trkpt lat="47.82333" lon="7.06618">
        <ele>417.8</ele>
        <time>2022-01-13T13:48:11.549Z</time>
      </trkpt>
      <trkpt lat="47.82352" lon="7.0663">
        <ele>413.9</ele>
        <time>2022-01-13T13:48:21.530Z</time>
      </trkpt>
      <trkpt lat="47.82355" lon="7.06632">
        <ele>413.3</ele>
        <time>2022-01-13T13:48:30.629Z</time>
      </trkpt>
      <trkpt lat="47.82367" lon="7.06641">
        <ele>411.2</ele>
        <time>2022-01-13T13:48:40.569Z</time>
      </trkpt>
      <trkpt lat="47.82378" lon="7.06652">
        <ele>409.3</ele>
        <time>2022-01-13T13:48:50.587Z</time>
      </trkpt>
      <trkpt lat="47.82391" lon="7.06663">
        <ele>406.9</ele>
        <time>2022-01-13T13:49:00.127Z</time>
      </trkpt>
      <trkpt lat="47.824" lon="7.06677">
        <ele>405.5</ele>
        <time>2022-01-13T13:49:09.151Z</time>
      </trkpt>
      <trkpt lat="47.82411" lon="7.06691">
        <ele>403.3</ele>
        <time>2022-01-13T13:49:18.189Z</time>
      </trkpt>
      <trkpt lat="47.82424" lon="7.06705">
        <ele>400.5</ele>
        <time>2022-01-13T13:49:27.808Z</time>
      </trkpt>
      <trkpt lat="47.82432" lon="7.06718">
        <ele>398.6</ele>
        <time>2022-01-13T13:49:36.844Z</time>
      </trkpt>
      <trkpt lat="47.8244" lon="7.06739">
        <ele>395.5</ele>
        <time>2022-01-13T13:49:46.000Z</time>
      </trkpt>
      <trkpt lat="47.82444" lon="7.06751">
        <ele>394</ele>
        <time>2022-01-13T13:49:56.367Z</time>
      </trkpt>
      <trkpt lat="47.82449" lon="7.06766">
        <ele>392.3</ele>
        <time>2022-01-13T13:50:05.807Z</time>
      </trkpt>
      <trkpt lat="47.82458" lon="7.06783">
        <ele>390.3</ele>
        <time>2022-01-13T13:50:15.407Z</time>
      </trkpt>
      <trkpt lat="47.82464" lon="7.06801">
        <ele>388.8</ele>
        <time>2022-01-13T13:50:24.748Z</time>
      </trkpt>
      <trkpt lat="47.82472" lon="7.06817">
        <ele>387.6</ele>
        <time>2022-01-13T13:50:34.669Z</time>
      </trkpt>
      <trkpt lat="47.82479" lon="7.06838">
        <ele>386.4</ele>
        <time>2022-01-13T13:50:44.000Z</time>
      </trkpt>
      <trkpt lat="47.82482" lon="7.06865">
        <ele>385.2</ele>
        <time>2022-01-13T13:50:54.000Z</time>
      </trkpt>
      <trkpt lat="47.82481" lon="7.06882">
        <ele>384.9</ele>
        <time>2022-01-13T13:51:03.148Z</time>
      </trkpt>
      <trkpt lat="47.82481" lon="7.06905">
        <ele>384.5</ele>
        <time>2022-01-13T13:51:12.466Z</time>
      </trkpt>
      <trkpt lat="47.82481" lon="7.06927">
        <ele>384.2</ele>
        <time>2022-01-13T13:51:22.000Z</time>
      </trkpt>
      <trkpt lat="47.82482" lon="7.06946">
        <ele>383.9</ele>
        <time>2022-01-13T13:51:31.386Z</time>
      </trkpt>
      <trkpt lat="47.82489" lon="7.06958">
        <ele>382.7</ele>
        <time>2022-01-13T13:51:40.549Z</time>
      </trkpt>
      <trkpt lat="47.82499" lon="7.06965">
        <ele>381.4</ele>
        <time>2022-01-13T13:51:50.587Z</time>
      </trkpt>
      <trkpt lat="47.82509" lon="7.06968">
        <ele>380.8</ele>
        <time>2022-01-13T13:52:00.589Z</time>
      </trkpt>
      <trkpt lat="47.82524" lon="7.06969">
        <ele>380.3</ele>
        <time>2022-01-13T13:52:10.000Z</time>
      </trkpt>
      <trkpt lat="47.82536" lon="7.06972">
        <ele>379.1</ele>
        <time>2022-01-13T13:52:19.386Z</time>
      </trkpt>
      <trkpt lat="47.82554" lon="7.06978">
        <ele>377</ele>
        <time>2022-01-13T13:52:28.684Z</time>
      </trkpt>
      <trkpt lat="47.82562" lon="7.06994">
        <ele>376.2</ele>
        <time>2022-01-13T13:52:38.000Z</time>
      </trkpt>
      <trkpt lat="47.82566" lon="7.07014">
        <ele>375.5</ele>
        <time>2022-01-13T13:52:47.569Z</time>
      </trkpt>
      <trkpt lat="47.82566" lon="7.0702">
        <ele>375.3</ele>
        <time>2022-01-13T13:52:56.828Z</time>
      </trkpt>
      <trkpt lat="47.82571" lon="7.07043">
        <ele>375</ele>
        <time>2022-01-13T13:53:06.554Z</time>
      </trkpt>
      <trkpt lat="47.82573" lon="7.07055">
        <ele>374.7</ele>
        <time>2022-01-13T13:53:16.565Z</time>
      </trkpt>
      <trkpt lat="47.82578" lon="7.07076">
        <ele>374.1</ele>
        <time>2022-01-13T13:53:26.000Z</time>
      </trkpt>
      <trkpt lat="47.82585" lon="7.07109">
        <ele>373.1</ele>
        <time>2022-01-13T13:53:36.000Z</time>
      </trkpt>
      <trkpt lat="47.82584" lon="7.07123">
        <ele>373</ele>
        <time>2022-01-13T13:53:45.446Z</time>
      </trkpt>
      <trkpt lat="47.82581" lon="7.07141">
        <ele>372.9</ele>
        <time>2022-01-13T13:53:55.108Z</time>
      </trkpt>
      <trkpt lat="47.8258" lon="7.07151">
        <ele>372.6</ele>
        <time>2022-01-13T13:54:04.484Z</time>
      </trkpt>
      <trkpt lat="47.82592" lon="7.07179">
        <ele>371.8</ele>
        <time>2022-01-13T13:54:13.937Z</time>
      </trkpt>
      <trkpt lat="47.82598" lon="7.07194">
        <ele>371.5</ele>
        <time>2022-01-13T13:54:23.000Z</time>
      </trkpt>
      <trkpt lat="47.82601" lon="7.0721">
        <ele>371.6</ele>
        <time>2022-01-13T13:54:33.000Z</time>
      </trkpt>
      <trkpt lat="47.82602" lon="7.07221">
        <ele>371.7</ele>
        <time>2022-01-13T13:54:42.506Z</time>
      </trkpt>
      <trkpt lat="47.82604" lon="7.07242">
        <ele>372.2</ele>
        <time>2022-01-13T13:54:52.000Z</time>
      </trkpt>
      <trkpt lat="47.82606" lon="7.07266">
        <ele>372</ele>
        <time>2022-01-13T13:55:02.000Z</time>
      </trkpt>
      <trkpt lat="47.82606" lon="7.07289">
        <ele>371.6</ele>
        <time>2022-01-13T13:55:11.466Z</time>
      </trkpt>
      <trkpt lat="47.82607" lon="7.07309">
        <ele>371.7</ele>
        <time>2022-01-13T13:55:20.489Z</time>
      </trkpt>
      <trkpt lat="47.82608" lon="7.07326">
        <ele>371.7</ele>
        <time>2022-01-13T13:55:29.587Z</time>
      </trkpt>
      <trkpt lat="47.82609" lon="7.07338">
        <ele>371.9</ele>
        <time>2022-01-13T13:55:38.630Z</time>
      </trkpt>
      <trkpt lat="47.82609" lon="7.07354">
        <ele>372.5</ele>
        <time>2022-01-13T13:55:47.786Z</time>
      </trkpt>
      <trkpt lat="47.82609" lon="7.07369">
        <ele>372.5</ele>
        <time>2022-01-13T13:55:57.368Z</time>
      </trkpt>
      <trkpt lat="47.82611" lon="7.07384">
        <ele>372.2</ele>
        <time>2022-01-13T13:56:06.384Z</time>
      </trkpt>
      <trkpt lat="47.82611" lon="7.07396">
        <ele>372</ele>
        <time>2022-01-13T13:56:16.850Z</time>
      </trkpt>
      <trkpt lat="47.82615" lon="7.07431">
        <ele>372.2</ele>
        <time>2022-01-13T13:56:26.388Z</time>
      </trkpt>
      <trkpt lat="47.82613" lon="7.0746">
        <ele>371.5</ele>
        <time>2022-01-13T13:56:35.547Z</time>
      </trkpt>
      <trkpt lat="47.82619" lon="7.07484">
        <ele>370.9</ele>
        <time>2022-01-13T13:56:45.550Z</time>
      </trkpt>
      <trkpt lat="47.82625" lon="7.07496">
        <ele>370.7</ele>
        <time>2022-01-13T13:56:54.647Z</time>
      </trkpt>
      <trkpt lat="47.82634" lon="7.07512">
        <ele>370</ele>
        <time>2022-01-13T13:57:04.745Z</time>
      </trkpt>
      <trkpt lat="47.82639" lon="7.0753">
        <ele>368.9</ele>
        <time>2022-01-13T13:57:14.767Z</time>
      </trkpt>
      <trkpt lat="47.82645" lon="7.07546">
        <ele>368.1</ele>
        <time>2022-01-13T13:57:24.267Z</time>
      </trkpt>
      <trkpt lat="47.82653" lon="7.07561">
        <ele>367.4</ele>
        <time>2022-01-13T13:57:33.767Z</time>
      </trkpt>
      <trkpt lat="47.82663" lon="7.07575">
        <ele>365.5</ele>
        <time>2022-01-13T13:57:43.629Z</time>
      </trkpt>
      <trkpt lat="47.82672" lon="7.07589">
        <ele>363.8</ele>
        <time>2022-01-13T13:57:53.087Z</time>
      </trkpt>
      <trkpt lat="47.82681" lon="7.07597">
        <ele>363.5</ele>
        <time>2022-01-13T13:58:02.107Z</time>
      </trkpt>
      <trkpt lat="47.82693" lon="7.07615">
        <ele>362.7</ele>
        <time>2022-01-13T13:58:11.427Z</time>
      </trkpt>
      <trkpt lat="47.82703" lon="7.07631">
        <ele>361.6</ele>
        <time>2022-01-13T13:58:20.847Z</time>
      </trkpt>
      <trkpt lat="47.82715" lon="7.07639">
        <ele>361</ele>
        <time>2022-01-13T13:58:30.769Z</time>
      </trkpt>
      <trkpt lat="47.82723" lon="7.07643">
        <ele>360.8</ele>
        <time>2022-01-13T13:58:40.269Z</time>
      </trkpt>
      <trkpt lat="47.82733" lon="7.07651">
        <ele>360.9</ele>
        <time>2022-01-13T13:58:49.467Z</time>
      </trkpt>
      <trkpt lat="47.82748" lon="7.07665">
        <ele>361</ele>
        <time>2022-01-13T13:58:58.767Z</time>
      </trkpt>
      <trkpt lat="47.8276" lon="7.07672">
        <ele>360.7</ele>
        <time>2022-01-13T13:59:08.224Z</time>
      </trkpt>
      <trkpt lat="47.82773" lon="7.07678">
        <ele>360.2</ele>
        <time>2022-01-13T13:59:18.000Z</time>
      </trkpt>
      <trkpt lat="47.82785" lon="7.07683">
        <ele>359.9</ele>
        <time>2022-01-13T13:59:27.869Z</time>
      </trkpt>
      <trkpt lat="47.82795" lon="7.07691">
        <ele>359.3</ele>
        <time>2022-01-13T13:59:37.000Z</time>
      </trkpt>
      <trkpt lat="47.82809" lon="7.07701">
        <ele>359.1</ele>
        <time>2022-01-13T13:59:46.507Z</time>
      </trkpt>
      <trkpt lat="47.82817" lon="7.07707">
        <ele>359.2</ele>
        <time>2022-01-13T13:59:56.000Z</time>
      </trkpt>
      <trkpt lat="47.82827" lon="7.07724">
        <ele>359</ele>
        <time>2022-01-13T14:00:05.371Z</time>
      </trkpt>
      <trkpt lat="47.82836" lon="7.07738">
        <ele>359</ele>
        <time>2022-01-13T14:00:14.408Z</time>
      </trkpt>
      <trkpt lat="47.8284" lon="7.07759">
        <ele>359</ele>
        <time>2022-01-13T14:00:24.510Z</time>
      </trkpt>
      <trkpt lat="47.82844" lon="7.07779">
        <ele>359</ele>
        <time>2022-01-13T14:00:33.909Z</time>
      </trkpt>
      <trkpt lat="47.82849" lon="7.07798">
        <ele>358.6</ele>
        <time>2022-01-13T14:00:43.000Z</time>
      </trkpt>
      <trkpt lat="47.82853" lon="7.07809">
        <ele>358.3</ele>
        <time>2022-01-13T14:00:52.868Z</time>
      </trkpt>
      <trkpt lat="47.8286" lon="7.07825">
        <ele>358</ele>
        <time>2022-01-13T14:01:02.220Z</time>
      </trkpt>
      <trkpt lat="47.82865" lon="7.07839">
        <ele>358</ele>
        <time>2022-01-13T14:01:11.588Z</time>
      </trkpt>
      <trkpt lat="47.82871" lon="7.07862">
        <ele>358</ele>
        <time>2022-01-13T14:01:21.690Z</time>
      </trkpt>
      <trkpt lat="47.82877" lon="7.07878">
        <ele>358.3</ele>
        <time>2022-01-13T14:01:31.547Z</time>
      </trkpt>
      <trkpt lat="47.82881" lon="7.07888">
        <ele>358.7</ele>
        <time>2022-01-13T14:01:40.550Z</time>
      </trkpt>
      <trkpt lat="47.82884" lon="7.07907">
        <ele>358.5</ele>
        <time>2022-01-13T14:01:49.585Z</time>
      </trkpt>
      <trkpt lat="47.82889" lon="7.07912">
        <ele>358.2</ele>
        <time>2022-01-13T14:01:58.986Z</time>
      </trkpt>
      <trkpt lat="47.82894" lon="7.07923">
        <ele>358</ele>
        <time>2022-01-13T14:02:08.585Z</time>
      </trkpt>
      <trkpt lat="47.82899" lon="7.07933">
        <ele>358</ele>
        <time>2022-01-13T14:02:17.669Z</time>
      </trkpt>
      <trkpt lat="47.82905" lon="7.07951">
        <ele>358</ele>
        <time>2022-01-13T14:02:27.671Z</time>
      </trkpt>
      <trkpt lat="47.82919" lon="7.07953">
        <ele>358</ele>
        <time>2022-01-13T14:02:36.688Z</time>
      </trkpt>
      <trkpt lat="47.82936" lon="7.07948">
        <ele>358</ele>
        <time>2022-01-13T14:02:46.000Z</time>
      </trkpt>
      <trkpt lat="47.82945" lon="7.07942">
        <ele>358</ele>
        <time>2022-01-13T14:02:55.366Z</time>
      </trkpt>
      <trkpt lat="47.8296" lon="7.07928">
        <ele>358.6</ele>
        <time>2022-01-13T14:03:04.491Z</time>
      </trkpt>
      <trkpt lat="47.82974" lon="7.07909">
        <ele>359</ele>
        <time>2022-01-13T14:03:14.371Z</time>
      </trkpt>
      <trkpt lat="47.82984" lon="7.07892">
        <ele>359</ele>
        <time>2022-01-13T14:03:23.490Z</time>
      </trkpt>
      <trkpt lat="47.82997" lon="7.0788">
        <ele>359</ele>
        <time>2022-01-13T14:03:33.432Z</time>
      </trkpt>
      <trkpt lat="47.83005" lon="7.07872">
        <ele>359</ele>
        <time>2022-01-13T14:03:42.788Z</time>
      </trkpt>
      <trkpt lat="47.83015" lon="7.07863">
        <ele>359</ele>
        <time>2022-01-13T14:03:52.613Z</time>
      </trkpt>
      <trkpt lat="47.83021" lon="7.07855">
        <ele>359.1</ele>
        <time>2022-01-13T14:04:01.731Z</time>
      </trkpt>
      <trkpt lat="47.83027" lon="7.07852">
        <ele>359</ele>
        <time>2022-01-13T14:04:11.790Z</time>
      </trkpt>
      <trkpt lat="47.83033" lon="7.07848">
        <ele>359</ele>
        <time>2022-01-13T14:04:22.000Z</time>
      </trkpt>
      <trkpt lat="47.83035" lon="7.07845">
        <ele>359</ele>
        <time>2022-01-13T14:04:32.000Z</time>
      </trkpt>
      <trkpt lat="47.83035" lon="7.07845">
        <ele>359</ele>
        <time>2022-01-13T14:04:33.000Z</time>
      </trkpt>
    </trkseg>
  </trk>
</gpx>